<?xml version="1.0" encoding="UTF-8" standalone="no" ?>
<gpx xmlns="http://www.topografix.com/GPX/1/1" xmlns:xsi="http://www.w3.org/2001/XMLSchema-instance" xsi:schemaLocation="http://www.topografix.com/GPX/1/1 http://www.topografix.com/GPX/1/1/gpx.xsd" version="1.1" creator="VisuGPX - https://www.visugpx.com">
  <metadata>
    <name>aspet-marignac par boutx</name>
  </metadata>
  <trk>
    <name><![CDATA[aspet-marignac par boutx]]></name>
    <trkseg>
      <trkpt lat="43.0246" lon="0.7967">
        <ele>463.48</ele>
        <time>2024-02-16T08:45:02.000Z</time>
      </trkpt>
      <trkpt lat="43.02463" lon="0.79696">
        <ele>463.02</ele>
        <time>2024-02-16T08:45:02.006Z</time>
      </trkpt>
      <trkpt lat="43.02456" lon="0.79718">
        <ele>462.2</ele>
        <time>2024-02-16T08:45:02.018Z</time>
      </trkpt>
      <trkpt lat="43.02451" lon="0.79728">
        <ele>461.15</ele>
        <time>2024-02-16T08:45:02.033Z</time>
      </trkpt>
      <trkpt lat="43.02451" lon="0.79728">
        <ele>460.05</ele>
        <time>2024-02-16T08:45:02.048Z</time>
      </trkpt>
      <trkpt lat="43.02449" lon="0.79731">
        <ele>458.72</ele>
        <time>2024-02-16T08:45:02.064Z</time>
      </trkpt>
      <trkpt lat="43.02438" lon="0.79732">
        <ele>457.03</ele>
        <time>2024-02-16T08:45:02.084Z</time>
      </trkpt>
      <trkpt lat="43.02425" lon="0.79729">
        <ele>455.02</ele>
        <time>2024-02-16T08:45:02.108Z</time>
      </trkpt>
      <trkpt lat="43.02418" lon="0.79706">
        <ele>452.83</ele>
        <time>2024-02-16T08:45:02.139Z</time>
      </trkpt>
      <trkpt lat="43.02367" lon="0.79632">
        <ele>449.49</ele>
        <time>2024-02-16T08:45:02.194Z</time>
      </trkpt>
      <trkpt lat="43.0236" lon="0.79613">
        <ele>446.74</ele>
        <time>2024-02-16T08:45:02.254Z</time>
      </trkpt>
      <trkpt lat="43.02353" lon="0.79581">
        <ele>444.07</ele>
        <time>2024-02-16T08:45:02.323Z</time>
      </trkpt>
      <trkpt lat="43.02356" lon="0.79556">
        <ele>441.83</ele>
        <time>2024-02-16T08:45:02.398Z</time>
      </trkpt>
      <trkpt lat="43.02381" lon="0.79457">
        <ele>439.35</ele>
        <time>2024-02-16T08:45:02.498Z</time>
      </trkpt>
      <trkpt lat="43.02384" lon="0.79427">
        <ele>436.76</ele>
        <time>2024-02-16T08:45:02.606Z</time>
      </trkpt>
      <trkpt lat="43.02385" lon="0.79427">
        <ele>434.75</ele>
        <time>2024-02-16T08:45:02.714Z</time>
      </trkpt>
      <trkpt lat="43.02387" lon="0.79412">
        <ele>432.58</ele>
        <time>2024-02-16T08:45:02.826Z</time>
      </trkpt>
      <trkpt lat="43.02384" lon="0.79398">
        <ele>430.42</ele>
        <time>2024-02-16T08:45:02.941Z</time>
      </trkpt>
      <trkpt lat="43.02381" lon="0.79394">
        <ele>428.42</ele>
        <time>2024-02-16T08:45:03.057Z</time>
      </trkpt>
      <trkpt lat="43.02375" lon="0.79393">
        <ele>426.39</ele>
        <time>2024-02-16T08:45:03.176Z</time>
      </trkpt>
      <trkpt lat="43.02346" lon="0.794">
        <ele>424.14</ele>
        <time>2024-02-16T08:45:03.304Z</time>
      </trkpt>
      <trkpt lat="43.02332" lon="0.79404">
        <ele>422.49</ele>
        <time>2024-02-16T08:45:03.437Z</time>
      </trkpt>
      <trkpt lat="43.02328" lon="0.79401">
        <ele>421.14</ele>
        <time>2024-02-16T08:45:03.572Z</time>
      </trkpt>
      <trkpt lat="43.02318" lon="0.79387">
        <ele>419.89</ele>
        <time>2024-02-16T08:45:03.712Z</time>
      </trkpt>
      <trkpt lat="43.02302" lon="0.79412">
        <ele>419.58</ele>
        <time>2024-02-16T08:45:03.860Z</time>
      </trkpt>
      <trkpt lat="43.02302" lon="0.79412">
        <ele>419.57</ele>
        <time>2024-02-16T08:45:04.008Z</time>
      </trkpt>
      <trkpt lat="43.02302" lon="0.79412">
        <ele>419.58</ele>
        <time>2024-02-16T08:45:04.156Z</time>
      </trkpt>
      <trkpt lat="43.02285" lon="0.79433">
        <ele>419.57</ele>
        <time>2024-02-16T08:45:04.311Z</time>
      </trkpt>
      <trkpt lat="43.02243" lon="0.79487">
        <ele>419.79</ele>
        <time>2024-02-16T08:45:04.486Z</time>
      </trkpt>
      <trkpt lat="43.02232" lon="0.79493">
        <ele>419.85</ele>
        <time>2024-02-16T08:45:04.664Z</time>
      </trkpt>
      <trkpt lat="43.02145" lon="0.79564">
        <ele>420.22</ele>
        <time>2024-02-16T08:45:04.876Z</time>
      </trkpt>
      <trkpt lat="43.02139" lon="0.79568">
        <ele>420.3</ele>
        <time>2024-02-16T08:45:05.091Z</time>
      </trkpt>
      <trkpt lat="43.02131" lon="0.79566">
        <ele>420.33</ele>
        <time>2024-02-16T08:45:05.308Z</time>
      </trkpt>
      <trkpt lat="43.02123" lon="0.7957">
        <ele>420.34</ele>
        <time>2024-02-16T08:45:05.528Z</time>
      </trkpt>
      <trkpt lat="43.02117" lon="0.79578">
        <ele>420.35</ele>
        <time>2024-02-16T08:45:05.751Z</time>
      </trkpt>
      <trkpt lat="43.02117" lon="0.79578">
        <ele>420.41</ele>
        <time>2024-02-16T08:45:05.974Z</time>
      </trkpt>
      <trkpt lat="43.02116" lon="0.79589">
        <ele>420.52</ele>
        <time>2024-02-16T08:45:06.199Z</time>
      </trkpt>
      <trkpt lat="43.02119" lon="0.79597">
        <ele>420.72</ele>
        <time>2024-02-16T08:45:06.427Z</time>
      </trkpt>
      <trkpt lat="43.02124" lon="0.79604">
        <ele>421.01</ele>
        <time>2024-02-16T08:45:06.657Z</time>
      </trkpt>
      <trkpt lat="43.02123" lon="0.79604">
        <ele>421.36</ele>
        <time>2024-02-16T08:45:06.887Z</time>
      </trkpt>
      <trkpt lat="43.02114" lon="0.79609">
        <ele>421.79</ele>
        <time>2024-02-16T08:45:07.120Z</time>
      </trkpt>
      <trkpt lat="43.02064" lon="0.79672">
        <ele>422.3</ele>
        <time>2024-02-16T08:45:07.376Z</time>
      </trkpt>
      <trkpt lat="43.02042" lon="0.79698">
        <ele>423.17</ele>
        <time>2024-02-16T08:45:07.642Z</time>
      </trkpt>
      <trkpt lat="43.01948" lon="0.79769">
        <ele>424.37</ele>
        <time>2024-02-16T08:45:07.944Z</time>
      </trkpt>
      <trkpt lat="43.01861" lon="0.79819">
        <ele>425.17</ele>
        <time>2024-02-16T08:45:08.277Z</time>
      </trkpt>
      <trkpt lat="43.01821" lon="0.79846">
        <ele>425.88</ele>
        <time>2024-02-16T08:45:08.625Z</time>
      </trkpt>
      <trkpt lat="43.01809" lon="0.79836">
        <ele>426.87</ele>
        <time>2024-02-16T08:45:08.977Z</time>
      </trkpt>
      <trkpt lat="43.01799" lon="0.79828">
        <ele>426.78</ele>
        <time>2024-02-16T08:45:09.334Z</time>
      </trkpt>
      <trkpt lat="43.01767" lon="0.79795">
        <ele>426.87</ele>
        <time>2024-02-16T08:45:09.704Z</time>
      </trkpt>
      <trkpt lat="43.01767" lon="0.79795">
        <ele>427.11</ele>
        <time>2024-02-16T08:45:10.074Z</time>
      </trkpt>
      <trkpt lat="43.01744" lon="0.7977">
        <ele>427.49</ele>
        <time>2024-02-16T08:45:10.454Z</time>
      </trkpt>
      <trkpt lat="43.01723" lon="0.79765">
        <ele>428.15</ele>
        <time>2024-02-16T08:45:10.841Z</time>
      </trkpt>
      <trkpt lat="43.01717" lon="0.79761">
        <ele>429.19</ele>
        <time>2024-02-16T08:45:11.230Z</time>
      </trkpt>
      <trkpt lat="43.0171" lon="0.79766">
        <ele>429.58</ele>
        <time>2024-02-16T08:45:11.622Z</time>
      </trkpt>
      <trkpt lat="43.01695" lon="0.79765">
        <ele>430</ele>
        <time>2024-02-16T08:45:12.019Z</time>
      </trkpt>
      <trkpt lat="43.01681" lon="0.79769">
        <ele>430.44</ele>
        <time>2024-02-16T08:45:12.420Z</time>
      </trkpt>
      <trkpt lat="43.01657" lon="0.79809">
        <ele>430.97</ele>
        <time>2024-02-16T08:45:12.834Z</time>
      </trkpt>
      <trkpt lat="43.01645" lon="0.79839">
        <ele>431.87</ele>
        <time>2024-02-16T08:45:13.256Z</time>
      </trkpt>
      <trkpt lat="43.01637" lon="0.79858">
        <ele>434.15</ele>
        <time>2024-02-16T08:45:13.684Z</time>
      </trkpt>
      <trkpt lat="43.01637" lon="0.79858">
        <ele>434.16</ele>
        <time>2024-02-16T08:45:14.112Z</time>
      </trkpt>
      <trkpt lat="43.01637" lon="0.79859">
        <ele>434.43</ele>
        <time>2024-02-16T08:45:14.540Z</time>
      </trkpt>
      <trkpt lat="43.01623" lon="0.79872">
        <ele>434.65</ele>
        <time>2024-02-16T08:45:14.974Z</time>
      </trkpt>
      <trkpt lat="43.01581" lon="0.79873">
        <ele>435.21</ele>
        <time>2024-02-16T08:45:15.422Z</time>
      </trkpt>
      <trkpt lat="43.0155" lon="0.79868">
        <ele>435.71</ele>
        <time>2024-02-16T08:45:15.880Z</time>
      </trkpt>
      <trkpt lat="43.01509" lon="0.79845">
        <ele>436.07</ele>
        <time>2024-02-16T08:45:16.353Z</time>
      </trkpt>
      <trkpt lat="43.01458" lon="0.798">
        <ele>437.21</ele>
        <time>2024-02-16T08:45:16.846Z</time>
      </trkpt>
      <trkpt lat="43.01437" lon="0.79788">
        <ele>437.85</ele>
        <time>2024-02-16T08:45:17.346Z</time>
      </trkpt>
      <trkpt lat="43.01437" lon="0.79788">
        <ele>438.33</ele>
        <time>2024-02-16T08:45:17.846Z</time>
      </trkpt>
      <trkpt lat="43.01412" lon="0.79777">
        <ele>438.62</ele>
        <time>2024-02-16T08:45:18.355Z</time>
      </trkpt>
      <trkpt lat="43.0139" lon="0.79774">
        <ele>438.7</ele>
        <time>2024-02-16T08:45:18.872Z</time>
      </trkpt>
      <trkpt lat="43.01373" lon="0.79783">
        <ele>438.87</ele>
        <time>2024-02-16T08:45:19.395Z</time>
      </trkpt>
      <trkpt lat="43.01344" lon="0.79805">
        <ele>439.45</ele>
        <time>2024-02-16T08:45:19.929Z</time>
      </trkpt>
      <trkpt lat="43.01323" lon="0.79826">
        <ele>439.84</ele>
        <time>2024-02-16T08:45:20.471Z</time>
      </trkpt>
      <trkpt lat="43.01297" lon="0.79843">
        <ele>439.81</ele>
        <time>2024-02-16T08:45:21.023Z</time>
      </trkpt>
      <trkpt lat="43.01286" lon="0.79859">
        <ele>439.69</ele>
        <time>2024-02-16T08:45:21.580Z</time>
      </trkpt>
      <trkpt lat="43.01263" lon="0.79854">
        <ele>439.3</ele>
        <time>2024-02-16T08:45:22.145Z</time>
      </trkpt>
      <trkpt lat="43.01188" lon="0.79841">
        <ele>438.95</ele>
        <time>2024-02-16T08:45:22.735Z</time>
      </trkpt>
      <trkpt lat="43.01157" lon="0.79838">
        <ele>438.86</ele>
        <time>2024-02-16T08:45:23.336Z</time>
      </trkpt>
      <trkpt lat="43.01141" lon="0.79839">
        <ele>439.04</ele>
        <time>2024-02-16T08:45:23.942Z</time>
      </trkpt>
      <trkpt lat="43.01116" lon="0.79841">
        <ele>439.46</ele>
        <time>2024-02-16T08:45:24.556Z</time>
      </trkpt>
      <trkpt lat="43.01093" lon="0.79848">
        <ele>440.11</ele>
        <time>2024-02-16T08:45:25.178Z</time>
      </trkpt>
      <trkpt lat="43.01073" lon="0.79856">
        <ele>440.82</ele>
        <time>2024-02-16T08:45:25.807Z</time>
      </trkpt>
      <trkpt lat="43.01024" lon="0.79882">
        <ele>441.77</ele>
        <time>2024-02-16T08:45:26.454Z</time>
      </trkpt>
      <trkpt lat="43.01002" lon="0.79891">
        <ele>442.54</ele>
        <time>2024-02-16T08:45:27.109Z</time>
      </trkpt>
      <trkpt lat="43.00999" lon="0.79891">
        <ele>443.49</ele>
        <time>2024-02-16T08:45:27.764Z</time>
      </trkpt>
      <trkpt lat="43.00939" lon="0.79909">
        <ele>444.86</ele>
        <time>2024-02-16T08:45:28.440Z</time>
      </trkpt>
      <trkpt lat="43.00939" lon="0.79909">
        <ele>446.02</ele>
        <time>2024-02-16T08:45:29.116Z</time>
      </trkpt>
      <trkpt lat="43.00872" lon="0.79932">
        <ele>447.88</ele>
        <time>2024-02-16T08:45:29.815Z</time>
      </trkpt>
      <trkpt lat="43.00853" lon="0.79931">
        <ele>448.42</ele>
        <time>2024-02-16T08:45:30.520Z</time>
      </trkpt>
      <trkpt lat="43.00837" lon="0.79929">
        <ele>448.99</ele>
        <time>2024-02-16T08:45:31.230Z</time>
      </trkpt>
      <trkpt lat="43.00817" lon="0.79924">
        <ele>449.83</ele>
        <time>2024-02-16T08:45:31.947Z</time>
      </trkpt>
      <trkpt lat="43.00817" lon="0.79924">
        <ele>449.84</ele>
        <time>2024-02-16T08:45:32.664Z</time>
      </trkpt>
      <trkpt lat="43.0079" lon="0.79917">
        <ele>451.06</ele>
        <time>2024-02-16T08:45:33.390Z</time>
      </trkpt>
      <trkpt lat="43.00553" lon="0.79875">
        <ele>451.96</ele>
        <time>2024-02-16T08:45:34.196Z</time>
      </trkpt>
      <trkpt lat="43.0042" lon="0.79854">
        <ele>453.54</ele>
        <time>2024-02-16T08:45:35.047Z</time>
      </trkpt>
      <trkpt lat="43.0042" lon="0.79854">
        <ele>455.08</ele>
        <time>2024-02-16T08:45:35.898Z</time>
      </trkpt>
      <trkpt lat="43.00365" lon="0.79843">
        <ele>456.56</ele>
        <time>2024-02-16T08:45:36.767Z</time>
      </trkpt>
      <trkpt lat="43.0031" lon="0.79814">
        <ele>457.74</ele>
        <time>2024-02-16T08:45:37.656Z</time>
      </trkpt>
      <trkpt lat="42.99604" lon="0.79417">
        <ele>462.32</ele>
        <time>2024-02-16T08:45:38.800Z</time>
      </trkpt>
      <trkpt lat="42.99604" lon="0.79417">
        <ele>465.19</ele>
        <time>2024-02-16T08:45:39.944Z</time>
      </trkpt>
      <trkpt lat="42.99575" lon="0.794">
        <ele>467.54</ele>
        <time>2024-02-16T08:45:41.098Z</time>
      </trkpt>
      <trkpt lat="42.99395" lon="0.79283">
        <ele>470.6</ele>
        <time>2024-02-16T08:45:42.318Z</time>
      </trkpt>
      <trkpt lat="42.99317" lon="0.79228">
        <ele>472.17</ele>
        <time>2024-02-16T08:45:43.568Z</time>
      </trkpt>
      <trkpt lat="42.99214" lon="0.79164">
        <ele>476.23</ele>
        <time>2024-02-16T08:45:44.856Z</time>
      </trkpt>
      <trkpt lat="42.99193" lon="0.79161">
        <ele>478.04</ele>
        <time>2024-02-16T08:45:46.151Z</time>
      </trkpt>
      <trkpt lat="42.99168" lon="0.79161">
        <ele>479.08</ele>
        <time>2024-02-16T08:45:47.454Z</time>
      </trkpt>
      <trkpt lat="42.99108" lon="0.79129">
        <ele>480.89</ele>
        <time>2024-02-16T08:45:48.778Z</time>
      </trkpt>
      <trkpt lat="42.99061" lon="0.7911">
        <ele>481.85</ele>
        <time>2024-02-16T08:45:50.119Z</time>
      </trkpt>
      <trkpt lat="42.99052" lon="0.79109">
        <ele>482.74</ele>
        <time>2024-02-16T08:45:51.463Z</time>
      </trkpt>
      <trkpt lat="42.99052" lon="0.79109">
        <ele>483.53</ele>
        <time>2024-02-16T08:45:52.807Z</time>
      </trkpt>
      <trkpt lat="42.99018" lon="0.79105">
        <ele>484.12</ele>
        <time>2024-02-16T08:45:54.162Z</time>
      </trkpt>
      <trkpt lat="42.98942" lon="0.79118">
        <ele>484.36</ele>
        <time>2024-02-16T08:45:55.543Z</time>
      </trkpt>
      <trkpt lat="42.98842" lon="0.79138">
        <ele>486.04</ele>
        <time>2024-02-16T08:45:56.957Z</time>
      </trkpt>
      <trkpt lat="42.98809" lon="0.79143">
        <ele>487.24</ele>
        <time>2024-02-16T08:45:58.383Z</time>
      </trkpt>
      <trkpt lat="42.98796" lon="0.79148">
        <ele>488.12</ele>
        <time>2024-02-16T08:45:59.813Z</time>
      </trkpt>
      <trkpt lat="42.98782" lon="0.79153">
        <ele>489.12</ele>
        <time>2024-02-16T08:46:01.248Z</time>
      </trkpt>
      <trkpt lat="42.98723" lon="0.79188">
        <ele>490.01</ele>
        <time>2024-02-16T08:46:02.704Z</time>
      </trkpt>
      <trkpt lat="42.98703" lon="0.79205">
        <ele>490.68</ele>
        <time>2024-02-16T08:46:04.168Z</time>
      </trkpt>
      <trkpt lat="42.98673" lon="0.79216">
        <ele>490.9</ele>
        <time>2024-02-16T08:46:05.642Z</time>
      </trkpt>
      <trkpt lat="42.98654" lon="0.79213">
        <ele>491.36</ele>
        <time>2024-02-16T08:46:07.123Z</time>
      </trkpt>
      <trkpt lat="42.98639" lon="0.79207">
        <ele>491.76</ele>
        <time>2024-02-16T08:46:08.609Z</time>
      </trkpt>
      <trkpt lat="42.98628" lon="0.79197">
        <ele>492.31</ele>
        <time>2024-02-16T08:46:10.099Z</time>
      </trkpt>
      <trkpt lat="42.98621" lon="0.79187">
        <ele>492.92</ele>
        <time>2024-02-16T08:46:11.593Z</time>
      </trkpt>
      <trkpt lat="42.98611" lon="0.79165">
        <ele>493.7</ele>
        <time>2024-02-16T08:46:13.093Z</time>
      </trkpt>
      <trkpt lat="42.98603" lon="0.79116">
        <ele>494.93</ele>
        <time>2024-02-16T08:46:14.605Z</time>
      </trkpt>
      <trkpt lat="42.98597" lon="0.79103">
        <ele>495.86</ele>
        <time>2024-02-16T08:46:16.121Z</time>
      </trkpt>
      <trkpt lat="42.98583" lon="0.79084">
        <ele>496.75</ele>
        <time>2024-02-16T08:46:17.644Z</time>
      </trkpt>
      <trkpt lat="42.98573" lon="0.79077">
        <ele>497.45</ele>
        <time>2024-02-16T08:46:19.171Z</time>
      </trkpt>
      <trkpt lat="42.98463" lon="0.79044">
        <ele>497.79</ele>
        <time>2024-02-16T08:46:20.735Z</time>
      </trkpt>
      <trkpt lat="42.98452" lon="0.79033">
        <ele>498.66</ele>
        <time>2024-02-16T08:46:22.303Z</time>
      </trkpt>
      <trkpt lat="42.98446" lon="0.79026">
        <ele>499.57</ele>
        <time>2024-02-16T08:46:23.874Z</time>
      </trkpt>
      <trkpt lat="42.98441" lon="0.79017">
        <ele>500.65</ele>
        <time>2024-02-16T08:46:25.448Z</time>
      </trkpt>
      <trkpt lat="42.98437" lon="0.79">
        <ele>501.97</ele>
        <time>2024-02-16T08:46:27.026Z</time>
      </trkpt>
      <trkpt lat="42.98437" lon="0.78984">
        <ele>503.44</ele>
        <time>2024-02-16T08:46:28.608Z</time>
      </trkpt>
      <trkpt lat="42.98441" lon="0.7897">
        <ele>505.05</ele>
        <time>2024-02-16T08:46:30.194Z</time>
      </trkpt>
      <trkpt lat="42.98462" lon="0.78919">
        <ele>507.28</ele>
        <time>2024-02-16T08:46:31.794Z</time>
      </trkpt>
      <trkpt lat="42.98462" lon="0.78919">
        <ele>508.93</ele>
        <time>2024-02-16T08:46:33.394Z</time>
      </trkpt>
      <trkpt lat="42.98501" lon="0.78831">
        <ele>511.15</ele>
        <time>2024-02-16T08:46:35.019Z</time>
      </trkpt>
      <trkpt lat="42.9852" lon="0.78785">
        <ele>512.97</ele>
        <time>2024-02-16T08:46:36.657Z</time>
      </trkpt>
      <trkpt lat="42.98526" lon="0.78766">
        <ele>514.65</ele>
        <time>2024-02-16T08:46:38.300Z</time>
      </trkpt>
      <trkpt lat="42.98526" lon="0.78752">
        <ele>516.3</ele>
        <time>2024-02-16T08:46:39.947Z</time>
      </trkpt>
      <trkpt lat="42.98526" lon="0.78752">
        <ele>517.89</ele>
        <time>2024-02-16T08:46:41.594Z</time>
      </trkpt>
      <trkpt lat="42.98517" lon="0.78731">
        <ele>519.61</ele>
        <time>2024-02-16T08:46:43.247Z</time>
      </trkpt>
      <trkpt lat="42.98517" lon="0.78731">
        <ele>521.09</ele>
        <time>2024-02-16T08:46:44.900Z</time>
      </trkpt>
      <trkpt lat="42.9851" lon="0.78725">
        <ele>522.74</ele>
        <time>2024-02-16T08:46:46.555Z</time>
      </trkpt>
      <trkpt lat="42.98502" lon="0.78723">
        <ele>524.23</ele>
        <time>2024-02-16T08:46:48.213Z</time>
      </trkpt>
      <trkpt lat="42.98494" lon="0.78725">
        <ele>525.32</ele>
        <time>2024-02-16T08:46:49.874Z</time>
      </trkpt>
      <trkpt lat="42.98486" lon="0.78732">
        <ele>526.11</ele>
        <time>2024-02-16T08:46:51.538Z</time>
      </trkpt>
      <trkpt lat="42.98466" lon="0.7876">
        <ele>526.7</ele>
        <time>2024-02-16T08:46:53.212Z</time>
      </trkpt>
      <trkpt lat="42.98456" lon="0.78772">
        <ele>527.12</ele>
        <time>2024-02-16T08:46:54.890Z</time>
      </trkpt>
      <trkpt lat="42.98443" lon="0.78781">
        <ele>527.34</ele>
        <time>2024-02-16T08:46:56.573Z</time>
      </trkpt>
      <trkpt lat="42.98428" lon="0.78785">
        <ele>527.61</ele>
        <time>2024-02-16T08:46:58.261Z</time>
      </trkpt>
      <trkpt lat="42.98409" lon="0.78786">
        <ele>527.91</ele>
        <time>2024-02-16T08:46:59.955Z</time>
      </trkpt>
      <trkpt lat="42.98367" lon="0.78766">
        <ele>528.64</ele>
        <time>2024-02-16T08:47:01.664Z</time>
      </trkpt>
      <trkpt lat="42.98359" lon="0.78765">
        <ele>529.03</ele>
        <time>2024-02-16T08:47:03.376Z</time>
      </trkpt>
      <trkpt lat="42.98349" lon="0.78769">
        <ele>529.29</ele>
        <time>2024-02-16T08:47:05.091Z</time>
      </trkpt>
      <trkpt lat="42.98321" lon="0.78813">
        <ele>529.32</ele>
        <time>2024-02-16T08:47:06.820Z</time>
      </trkpt>
      <trkpt lat="42.98312" lon="0.78824">
        <ele>529.28</ele>
        <time>2024-02-16T08:47:08.554Z</time>
      </trkpt>
      <trkpt lat="42.98307" lon="0.78826">
        <ele>528.62</ele>
        <time>2024-02-16T08:47:10.289Z</time>
      </trkpt>
      <trkpt lat="42.98307" lon="0.78826">
        <ele>528.62</ele>
        <time>2024-02-16T08:47:12.024Z</time>
      </trkpt>
      <trkpt lat="42.98297" lon="0.78831">
        <ele>528.09</ele>
        <time>2024-02-16T08:47:13.763Z</time>
      </trkpt>
      <trkpt lat="42.98281" lon="0.78829">
        <ele>527.54</ele>
        <time>2024-02-16T08:47:15.507Z</time>
      </trkpt>
      <trkpt lat="42.98281" lon="0.78829">
        <ele>526.94</ele>
        <time>2024-02-16T08:47:17.251Z</time>
      </trkpt>
      <trkpt lat="42.98261" lon="0.78822">
        <ele>526.47</ele>
        <time>2024-02-16T08:47:19.002Z</time>
      </trkpt>
      <trkpt lat="42.98186" lon="0.78785">
        <ele>526.44</ele>
        <time>2024-02-16T08:47:20.780Z</time>
      </trkpt>
      <trkpt lat="42.98182" lon="0.78798">
        <ele>525.84</ele>
        <time>2024-02-16T08:47:22.561Z</time>
      </trkpt>
      <trkpt lat="42.98176" lon="0.78808">
        <ele>525.04</ele>
        <time>2024-02-16T08:47:24.345Z</time>
      </trkpt>
      <trkpt lat="42.98161" lon="0.7882">
        <ele>524.12</ele>
        <time>2024-02-16T08:47:26.135Z</time>
      </trkpt>
      <trkpt lat="42.98151" lon="0.78822">
        <ele>523.2</ele>
        <time>2024-02-16T08:47:27.928Z</time>
      </trkpt>
      <trkpt lat="42.98125" lon="0.78818">
        <ele>522.32</ele>
        <time>2024-02-16T08:47:29.730Z</time>
      </trkpt>
      <trkpt lat="42.98093" lon="0.78828">
        <ele>521.02</ele>
        <time>2024-02-16T08:47:31.543Z</time>
      </trkpt>
      <trkpt lat="42.9805" lon="0.78847">
        <ele>519.13</ele>
        <time>2024-02-16T08:47:33.371Z</time>
      </trkpt>
      <trkpt lat="42.98036" lon="0.78848">
        <ele>517.47</ele>
        <time>2024-02-16T08:47:35.204Z</time>
      </trkpt>
      <trkpt lat="42.98018" lon="0.78849">
        <ele>515.92</ele>
        <time>2024-02-16T08:47:37.043Z</time>
      </trkpt>
      <trkpt lat="42.97945" lon="0.78846">
        <ele>513.74</ele>
        <time>2024-02-16T08:47:38.906Z</time>
      </trkpt>
      <trkpt lat="42.97896" lon="0.78837">
        <ele>511.46</ele>
        <time>2024-02-16T08:47:40.786Z</time>
      </trkpt>
      <trkpt lat="42.97871" lon="0.78833">
        <ele>509.87</ele>
        <time>2024-02-16T08:47:42.674Z</time>
      </trkpt>
      <trkpt lat="42.97842" lon="0.78837">
        <ele>509.25</ele>
        <time>2024-02-16T08:47:44.572Z</time>
      </trkpt>
      <trkpt lat="42.97824" lon="0.78843">
        <ele>509.05</ele>
        <time>2024-02-16T08:47:46.476Z</time>
      </trkpt>
      <trkpt lat="42.97784" lon="0.78868">
        <ele>508.31</ele>
        <time>2024-02-16T08:47:48.395Z</time>
      </trkpt>
      <trkpt lat="42.97766" lon="0.78877">
        <ele>507.5</ele>
        <time>2024-02-16T08:47:50.320Z</time>
      </trkpt>
      <trkpt lat="42.97734" lon="0.78876">
        <ele>507.17</ele>
        <time>2024-02-16T08:47:52.256Z</time>
      </trkpt>
      <trkpt lat="42.9772" lon="0.78881">
        <ele>507.04</ele>
        <time>2024-02-16T08:47:54.197Z</time>
      </trkpt>
      <trkpt lat="42.97667" lon="0.7891">
        <ele>506.63</ele>
        <time>2024-02-16T08:47:56.156Z</time>
      </trkpt>
      <trkpt lat="42.97609" lon="0.78919">
        <ele>505.92</ele>
        <time>2024-02-16T08:47:58.135Z</time>
      </trkpt>
      <trkpt lat="42.9755" lon="0.7889">
        <ele>505.9</ele>
        <time>2024-02-16T08:48:00.135Z</time>
      </trkpt>
      <trkpt lat="42.97509" lon="0.78866">
        <ele>506.04</ele>
        <time>2024-02-16T08:48:02.150Z</time>
      </trkpt>
      <trkpt lat="42.9749" lon="0.78859">
        <ele>506.33</ele>
        <time>2024-02-16T08:48:04.171Z</time>
      </trkpt>
      <trkpt lat="42.97479" lon="0.78858">
        <ele>506.69</ele>
        <time>2024-02-16T08:48:06.196Z</time>
      </trkpt>
      <trkpt lat="42.97456" lon="0.78863">
        <ele>507.01</ele>
        <time>2024-02-16T08:48:08.229Z</time>
      </trkpt>
      <trkpt lat="42.97418" lon="0.78885">
        <ele>507.63</ele>
        <time>2024-02-16T08:48:10.275Z</time>
      </trkpt>
      <trkpt lat="42.97353" lon="0.78916">
        <ele>508.75</ele>
        <time>2024-02-16T08:48:12.345Z</time>
      </trkpt>
      <trkpt lat="42.97353" lon="0.78916">
        <ele>509.91</ele>
        <time>2024-02-16T08:48:14.415Z</time>
      </trkpt>
      <trkpt lat="42.9729" lon="0.78943">
        <ele>511.63</ele>
        <time>2024-02-16T08:48:16.506Z</time>
      </trkpt>
      <trkpt lat="42.9726" lon="0.7896">
        <ele>514.24</ele>
        <time>2024-02-16T08:48:18.608Z</time>
      </trkpt>
      <trkpt lat="42.97198" lon="0.79034">
        <ele>516.63</ele>
        <time>2024-02-16T08:48:20.738Z</time>
      </trkpt>
      <trkpt lat="42.97134" lon="0.79053">
        <ele>518.57</ele>
        <time>2024-02-16T08:48:22.890Z</time>
      </trkpt>
      <trkpt lat="42.97061" lon="0.79082">
        <ele>520.91</ele>
        <time>2024-02-16T08:48:25.067Z</time>
      </trkpt>
      <trkpt lat="42.97046" lon="0.7909">
        <ele>523.22</ele>
        <time>2024-02-16T08:48:27.249Z</time>
      </trkpt>
      <trkpt lat="42.96963" lon="0.79128">
        <ele>525.05</ele>
        <time>2024-02-16T08:48:29.460Z</time>
      </trkpt>
      <trkpt lat="42.9695" lon="0.79131">
        <ele>527.34</ele>
        <time>2024-02-16T08:48:31.676Z</time>
      </trkpt>
      <trkpt lat="42.96918" lon="0.79127">
        <ele>530.22</ele>
        <time>2024-02-16T08:48:33.903Z</time>
      </trkpt>
      <trkpt lat="42.96878" lon="0.79116">
        <ele>533.38</ele>
        <time>2024-02-16T08:48:36.143Z</time>
      </trkpt>
      <trkpt lat="42.96859" lon="0.79121">
        <ele>536.03</ele>
        <time>2024-02-16T08:48:38.390Z</time>
      </trkpt>
      <trkpt lat="42.96819" lon="0.79152">
        <ele>538.53</ele>
        <time>2024-02-16T08:48:40.652Z</time>
      </trkpt>
      <trkpt lat="42.96804" lon="0.79156">
        <ele>541.17</ele>
        <time>2024-02-16T08:48:42.919Z</time>
      </trkpt>
      <trkpt lat="42.96782" lon="0.7918">
        <ele>543.95</ele>
        <time>2024-02-16T08:48:45.195Z</time>
      </trkpt>
      <trkpt lat="42.96697" lon="0.79278">
        <ele>548.2</ele>
        <time>2024-02-16T08:48:47.508Z</time>
      </trkpt>
      <trkpt lat="42.96683" lon="0.7931">
        <ele>551.39</ele>
        <time>2024-02-16T08:48:49.831Z</time>
      </trkpt>
      <trkpt lat="42.96676" lon="0.7935">
        <ele>553.93</ele>
        <time>2024-02-16T08:48:52.164Z</time>
      </trkpt>
      <trkpt lat="42.96674" lon="0.79403">
        <ele>555.75</ele>
        <time>2024-02-16T08:48:54.510Z</time>
      </trkpt>
      <trkpt lat="42.9666" lon="0.79437">
        <ele>558.18</ele>
        <time>2024-02-16T08:48:56.865Z</time>
      </trkpt>
      <trkpt lat="42.96646" lon="0.79449">
        <ele>560.58</ele>
        <time>2024-02-16T08:48:59.226Z</time>
      </trkpt>
      <trkpt lat="42.96632" lon="0.79451">
        <ele>563.07</ele>
        <time>2024-02-16T08:49:01.592Z</time>
      </trkpt>
      <trkpt lat="42.9661" lon="0.79445">
        <ele>565.79</ele>
        <time>2024-02-16T08:49:03.965Z</time>
      </trkpt>
      <trkpt lat="42.96515" lon="0.79436">
        <ele>568.99</ele>
        <time>2024-02-16T08:49:06.370Z</time>
      </trkpt>
      <trkpt lat="42.96459" lon="0.79436">
        <ele>571.92</ele>
        <time>2024-02-16T08:49:08.793Z</time>
      </trkpt>
      <trkpt lat="42.9643" lon="0.7944">
        <ele>574.33</ele>
        <time>2024-02-16T08:49:11.226Z</time>
      </trkpt>
      <trkpt lat="42.96407" lon="0.79449">
        <ele>576.86</ele>
        <time>2024-02-16T08:49:13.667Z</time>
      </trkpt>
      <trkpt lat="42.96356" lon="0.79502">
        <ele>578.75</ele>
        <time>2024-02-16T08:49:16.129Z</time>
      </trkpt>
      <trkpt lat="42.96356" lon="0.79502">
        <ele>580.51</ele>
        <time>2024-02-16T08:49:18.591Z</time>
      </trkpt>
      <trkpt lat="42.96326" lon="0.79544">
        <ele>581.98</ele>
        <time>2024-02-16T08:49:21.068Z</time>
      </trkpt>
      <trkpt lat="42.96296" lon="0.79577">
        <ele>583.62</ele>
        <time>2024-02-16T08:49:23.558Z</time>
      </trkpt>
      <trkpt lat="42.96279" lon="0.79606">
        <ele>584.54</ele>
        <time>2024-02-16T08:49:26.057Z</time>
      </trkpt>
      <trkpt lat="42.96259" lon="0.7963">
        <ele>585.62</ele>
        <time>2024-02-16T08:49:28.565Z</time>
      </trkpt>
      <trkpt lat="42.96241" lon="0.79643">
        <ele>586.52</ele>
        <time>2024-02-16T08:49:31.079Z</time>
      </trkpt>
      <trkpt lat="42.96224" lon="0.7965">
        <ele>587.44</ele>
        <time>2024-02-16T08:49:33.599Z</time>
      </trkpt>
      <trkpt lat="42.96196" lon="0.79654">
        <ele>588.35</ele>
        <time>2024-02-16T08:49:36.129Z</time>
      </trkpt>
      <trkpt lat="42.96182" lon="0.79661">
        <ele>588.92</ele>
        <time>2024-02-16T08:49:38.664Z</time>
      </trkpt>
      <trkpt lat="42.96175" lon="0.7967">
        <ele>589.26</ele>
        <time>2024-02-16T08:49:41.202Z</time>
      </trkpt>
      <trkpt lat="42.96168" lon="0.79681">
        <ele>589.5</ele>
        <time>2024-02-16T08:49:43.743Z</time>
      </trkpt>
      <trkpt lat="42.96125" lon="0.79723">
        <ele>589.73</ele>
        <time>2024-02-16T08:49:46.302Z</time>
      </trkpt>
      <trkpt lat="42.96101" lon="0.79736">
        <ele>590.34</ele>
        <time>2024-02-16T08:49:48.870Z</time>
      </trkpt>
      <trkpt lat="42.96082" lon="0.79741">
        <ele>590.9</ele>
        <time>2024-02-16T08:49:51.444Z</time>
      </trkpt>
      <trkpt lat="42.95986" lon="0.79738">
        <ele>591.9</ele>
        <time>2024-02-16T08:49:54.050Z</time>
      </trkpt>
      <trkpt lat="42.95965" lon="0.79733">
        <ele>592.71</ele>
        <time>2024-02-16T08:49:56.663Z</time>
      </trkpt>
      <trkpt lat="42.95956" lon="0.79721">
        <ele>593.7</ele>
        <time>2024-02-16T08:49:59.281Z</time>
      </trkpt>
      <trkpt lat="42.95947" lon="0.79687">
        <ele>595.03</ele>
        <time>2024-02-16T08:50:01.907Z</time>
      </trkpt>
      <trkpt lat="42.95943" lon="0.79683">
        <ele>596.09</ele>
        <time>2024-02-16T08:50:04.535Z</time>
      </trkpt>
      <trkpt lat="42.9594" lon="0.79681">
        <ele>597.17</ele>
        <time>2024-02-16T08:50:07.164Z</time>
      </trkpt>
      <trkpt lat="42.95934" lon="0.79682">
        <ele>598.29</ele>
        <time>2024-02-16T08:50:09.795Z</time>
      </trkpt>
      <trkpt lat="42.9593" lon="0.79686">
        <ele>599.46</ele>
        <time>2024-02-16T08:50:12.428Z</time>
      </trkpt>
      <trkpt lat="42.95929" lon="0.79694">
        <ele>600.66</ele>
        <time>2024-02-16T08:50:15.063Z</time>
      </trkpt>
      <trkpt lat="42.95929" lon="0.79709">
        <ele>601.91</ele>
        <time>2024-02-16T08:50:17.701Z</time>
      </trkpt>
      <trkpt lat="42.95932" lon="0.79733">
        <ele>603.27</ele>
        <time>2024-02-16T08:50:20.345Z</time>
      </trkpt>
      <trkpt lat="42.95975" lon="0.79859">
        <ele>604.52</ele>
        <time>2024-02-16T08:50:23.023Z</time>
      </trkpt>
      <trkpt lat="42.95976" lon="0.79877">
        <ele>606.04</ele>
        <time>2024-02-16T08:50:25.706Z</time>
      </trkpt>
      <trkpt lat="42.95972" lon="0.79895">
        <ele>607.74</ele>
        <time>2024-02-16T08:50:28.394Z</time>
      </trkpt>
      <trkpt lat="42.95909" lon="0.80048">
        <ele>609.96</ele>
        <time>2024-02-16T08:50:31.124Z</time>
      </trkpt>
      <trkpt lat="42.95833" lon="0.80179">
        <ele>611.8</ele>
        <time>2024-02-16T08:50:33.895Z</time>
      </trkpt>
      <trkpt lat="42.95813" lon="0.80203">
        <ele>613.47</ele>
        <time>2024-02-16T08:50:36.675Z</time>
      </trkpt>
      <trkpt lat="42.95805" lon="0.8021">
        <ele>615.37</ele>
        <time>2024-02-16T08:50:39.458Z</time>
      </trkpt>
      <trkpt lat="42.95776" lon="0.80223">
        <ele>617.76</ele>
        <time>2024-02-16T08:50:42.252Z</time>
      </trkpt>
      <trkpt lat="42.95743" lon="0.80251">
        <ele>619.95</ele>
        <time>2024-02-16T08:50:45.058Z</time>
      </trkpt>
      <trkpt lat="42.95684" lon="0.80307">
        <ele>620.14</ele>
        <time>2024-02-16T08:50:47.888Z</time>
      </trkpt>
      <trkpt lat="42.95678" lon="0.80311">
        <ele>621.56</ele>
        <time>2024-02-16T08:50:50.721Z</time>
      </trkpt>
      <trkpt lat="42.95673" lon="0.80311">
        <ele>622.98</ele>
        <time>2024-02-16T08:50:53.555Z</time>
      </trkpt>
      <trkpt lat="42.95639" lon="0.80299">
        <ele>624.81</ele>
        <time>2024-02-16T08:50:56.401Z</time>
      </trkpt>
      <trkpt lat="42.95607" lon="0.80296">
        <ele>626.9</ele>
        <time>2024-02-16T08:50:59.258Z</time>
      </trkpt>
      <trkpt lat="42.95596" lon="0.80298">
        <ele>628.26</ele>
        <time>2024-02-16T08:51:02.118Z</time>
      </trkpt>
      <trkpt lat="42.95589" lon="0.80302">
        <ele>629.32</ele>
        <time>2024-02-16T08:51:04.981Z</time>
      </trkpt>
      <trkpt lat="42.95526" lon="0.80362">
        <ele>629.97</ele>
        <time>2024-02-16T08:51:07.870Z</time>
      </trkpt>
      <trkpt lat="42.95503" lon="0.80385">
        <ele>630.43</ele>
        <time>2024-02-16T08:51:10.768Z</time>
      </trkpt>
      <trkpt lat="42.95496" lon="0.80391">
        <ele>630.87</ele>
        <time>2024-02-16T08:51:13.669Z</time>
      </trkpt>
      <trkpt lat="42.95488" lon="0.80393">
        <ele>631.24</ele>
        <time>2024-02-16T08:51:16.573Z</time>
      </trkpt>
      <trkpt lat="42.95475" lon="0.80391">
        <ele>631.51</ele>
        <time>2024-02-16T08:51:19.481Z</time>
      </trkpt>
      <trkpt lat="42.95421" lon="0.80358">
        <ele>632.34</ele>
        <time>2024-02-16T08:51:22.408Z</time>
      </trkpt>
      <trkpt lat="42.95412" lon="0.80355">
        <ele>632.42</ele>
        <time>2024-02-16T08:51:25.339Z</time>
      </trkpt>
      <trkpt lat="42.95402" lon="0.80356">
        <ele>632.28</ele>
        <time>2024-02-16T08:51:28.273Z</time>
      </trkpt>
      <trkpt lat="42.95398" lon="0.8036">
        <ele>631.88</ele>
        <time>2024-02-16T08:51:31.209Z</time>
      </trkpt>
      <trkpt lat="42.95398" lon="0.80371">
        <ele>631.21</ele>
        <time>2024-02-16T08:51:34.147Z</time>
      </trkpt>
      <trkpt lat="42.95399" lon="0.80379">
        <ele>630.46</ele>
        <time>2024-02-16T08:51:37.088Z</time>
      </trkpt>
      <trkpt lat="42.95402" lon="0.80395">
        <ele>629.49</ele>
        <time>2024-02-16T08:51:40.033Z</time>
      </trkpt>
      <trkpt lat="42.95443" lon="0.80462">
        <ele>628.03</ele>
        <time>2024-02-16T08:51:42.999Z</time>
      </trkpt>
      <trkpt lat="42.95446" lon="0.80471">
        <ele>627</ele>
        <time>2024-02-16T08:51:45.967Z</time>
      </trkpt>
      <trkpt lat="42.95452" lon="0.80501">
        <ele>625.74</ele>
        <time>2024-02-16T08:51:48.943Z</time>
      </trkpt>
      <trkpt lat="42.95448" lon="0.80531">
        <ele>624.73</ele>
        <time>2024-02-16T08:51:51.926Z</time>
      </trkpt>
      <trkpt lat="42.95431" lon="0.80575">
        <ele>623.92</ele>
        <time>2024-02-16T08:51:54.921Z</time>
      </trkpt>
      <trkpt lat="42.95411" lon="0.80606">
        <ele>623.31</ele>
        <time>2024-02-16T08:51:57.927Z</time>
      </trkpt>
      <trkpt lat="42.95396" lon="0.80644">
        <ele>622.21</ele>
        <time>2024-02-16T08:52:00.943Z</time>
      </trkpt>
      <trkpt lat="42.95387" lon="0.8067">
        <ele>621.31</ele>
        <time>2024-02-16T08:52:03.966Z</time>
      </trkpt>
      <trkpt lat="42.95384" lon="0.80684">
        <ele>620.33</ele>
        <time>2024-02-16T08:52:06.993Z</time>
      </trkpt>
      <trkpt lat="42.95384" lon="0.80733">
        <ele>619.06</ele>
        <time>2024-02-16T08:52:10.032Z</time>
      </trkpt>
      <trkpt lat="42.95402" lon="0.80806">
        <ele>617.57</ele>
        <time>2024-02-16T08:52:13.090Z</time>
      </trkpt>
      <trkpt lat="42.95408" lon="0.80835">
        <ele>616.78</ele>
        <time>2024-02-16T08:52:16.155Z</time>
      </trkpt>
      <trkpt lat="42.95404" lon="0.80864">
        <ele>616.31</ele>
        <time>2024-02-16T08:52:19.227Z</time>
      </trkpt>
      <trkpt lat="42.95388" lon="0.80924">
        <ele>616.17</ele>
        <time>2024-02-16T08:52:22.315Z</time>
      </trkpt>
      <trkpt lat="42.95379" lon="0.80987">
        <ele>615.68</ele>
        <time>2024-02-16T08:52:25.418Z</time>
      </trkpt>
      <trkpt lat="42.95369" lon="0.8102">
        <ele>615.29</ele>
        <time>2024-02-16T08:52:28.530Z</time>
      </trkpt>
      <trkpt lat="42.95368" lon="0.81056">
        <ele>614.87</ele>
        <time>2024-02-16T08:52:31.651Z</time>
      </trkpt>
      <trkpt lat="42.95386" lon="0.81116">
        <ele>614.28</ele>
        <time>2024-02-16T08:52:34.788Z</time>
      </trkpt>
      <trkpt lat="42.95387" lon="0.8113">
        <ele>614.15</ele>
        <time>2024-02-16T08:52:37.929Z</time>
      </trkpt>
      <trkpt lat="42.95386" lon="0.81146">
        <ele>614.16</ele>
        <time>2024-02-16T08:52:41.073Z</time>
      </trkpt>
      <trkpt lat="42.95382" lon="0.81164">
        <ele>614.28</ele>
        <time>2024-02-16T08:52:44.222Z</time>
      </trkpt>
      <trkpt lat="42.95373" lon="0.81178">
        <ele>614.47</ele>
        <time>2024-02-16T08:52:47.375Z</time>
      </trkpt>
      <trkpt lat="42.95362" lon="0.81182">
        <ele>615.04</ele>
        <time>2024-02-16T08:52:50.532Z</time>
      </trkpt>
      <trkpt lat="42.95352" lon="0.81182">
        <ele>615.76</ele>
        <time>2024-02-16T08:52:53.693Z</time>
      </trkpt>
      <trkpt lat="42.95322" lon="0.81198">
        <ele>616.9</ele>
        <time>2024-02-16T08:52:56.864Z</time>
      </trkpt>
      <trkpt lat="42.95311" lon="0.81207">
        <ele>618.05</ele>
        <time>2024-02-16T08:53:00.040Z</time>
      </trkpt>
      <trkpt lat="42.95291" lon="0.81228">
        <ele>619.38</ele>
        <time>2024-02-16T08:53:03.224Z</time>
      </trkpt>
      <trkpt lat="42.95264" lon="0.81271">
        <ele>620.4</ele>
        <time>2024-02-16T08:53:06.422Z</time>
      </trkpt>
      <trkpt lat="42.95254" lon="0.81301">
        <ele>621.09</ele>
        <time>2024-02-16T08:53:09.628Z</time>
      </trkpt>
      <trkpt lat="42.95254" lon="0.81301">
        <ele>622.12</ele>
        <time>2024-02-16T08:53:12.834Z</time>
      </trkpt>
      <trkpt lat="42.9525" lon="0.81326">
        <ele>623.07</ele>
        <time>2024-02-16T08:53:16.046Z</time>
      </trkpt>
      <trkpt lat="42.9524" lon="0.81403">
        <ele>624.05</ele>
        <time>2024-02-16T08:53:19.277Z</time>
      </trkpt>
      <trkpt lat="42.95233" lon="0.81453">
        <ele>625.36</ele>
        <time>2024-02-16T08:53:22.521Z</time>
      </trkpt>
      <trkpt lat="42.95218" lon="0.81479">
        <ele>626.7</ele>
        <time>2024-02-16T08:53:25.773Z</time>
      </trkpt>
      <trkpt lat="42.952" lon="0.81497">
        <ele>628.31</ele>
        <time>2024-02-16T08:53:29.032Z</time>
      </trkpt>
      <trkpt lat="42.95189" lon="0.81503">
        <ele>630.11</ele>
        <time>2024-02-16T08:53:32.295Z</time>
      </trkpt>
      <trkpt lat="42.95171" lon="0.81508">
        <ele>631.98</ele>
        <time>2024-02-16T08:53:35.564Z</time>
      </trkpt>
      <trkpt lat="42.95143" lon="0.81513">
        <ele>634.08</ele>
        <time>2024-02-16T08:53:38.843Z</time>
      </trkpt>
      <trkpt lat="42.95128" lon="0.81513">
        <ele>636.13</ele>
        <time>2024-02-16T08:53:42.127Z</time>
      </trkpt>
      <trkpt lat="42.95115" lon="0.81507">
        <ele>638.22</ele>
        <time>2024-02-16T08:53:45.416Z</time>
      </trkpt>
      <trkpt lat="42.95095" lon="0.81495">
        <ele>640.54</ele>
        <time>2024-02-16T08:53:48.712Z</time>
      </trkpt>
      <trkpt lat="42.95077" lon="0.81478">
        <ele>643.02</ele>
        <time>2024-02-16T08:53:52.015Z</time>
      </trkpt>
      <trkpt lat="42.95067" lon="0.81473">
        <ele>644.89</ele>
        <time>2024-02-16T08:53:55.322Z</time>
      </trkpt>
      <trkpt lat="42.9506" lon="0.8147">
        <ele>646.48</ele>
        <time>2024-02-16T08:53:58.631Z</time>
      </trkpt>
      <trkpt lat="42.95035" lon="0.81475">
        <ele>647.97</ele>
        <time>2024-02-16T08:54:01.948Z</time>
      </trkpt>
      <trkpt lat="42.95025" lon="0.8148">
        <ele>649.3</ele>
        <time>2024-02-16T08:54:05.269Z</time>
      </trkpt>
      <trkpt lat="42.94989" lon="0.81512">
        <ele>650.95</ele>
        <time>2024-02-16T08:54:08.604Z</time>
      </trkpt>
      <trkpt lat="42.94925" lon="0.81547">
        <ele>651.06</ele>
        <time>2024-02-16T08:54:11.962Z</time>
      </trkpt>
      <trkpt lat="42.94903" lon="0.8156">
        <ele>651.75</ele>
        <time>2024-02-16T08:54:15.328Z</time>
      </trkpt>
      <trkpt lat="42.94886" lon="0.81573">
        <ele>652.7</ele>
        <time>2024-02-16T08:54:18.701Z</time>
      </trkpt>
      <trkpt lat="42.94879" lon="0.81584">
        <ele>654.11</ele>
        <time>2024-02-16T08:54:22.078Z</time>
      </trkpt>
      <trkpt lat="42.94873" lon="0.816">
        <ele>655.7</ele>
        <time>2024-02-16T08:54:25.459Z</time>
      </trkpt>
      <trkpt lat="42.94871" lon="0.81621">
        <ele>657.44</ele>
        <time>2024-02-16T08:54:28.845Z</time>
      </trkpt>
      <trkpt lat="42.94869" lon="0.8163">
        <ele>658.89</ele>
        <time>2024-02-16T08:54:32.233Z</time>
      </trkpt>
      <trkpt lat="42.94858" lon="0.81632">
        <ele>660.11</ele>
        <time>2024-02-16T08:54:35.625Z</time>
      </trkpt>
      <trkpt lat="42.94847" lon="0.81627">
        <ele>660.76</ele>
        <time>2024-02-16T08:54:39.021Z</time>
      </trkpt>
      <trkpt lat="42.94839" lon="0.81616">
        <ele>661.24</ele>
        <time>2024-02-16T08:54:42.421Z</time>
      </trkpt>
      <trkpt lat="42.94802" lon="0.81516">
        <ele>660.86</ele>
        <time>2024-02-16T08:54:45.848Z</time>
      </trkpt>
      <trkpt lat="42.9479" lon="0.81494">
        <ele>661.76</ele>
        <time>2024-02-16T08:54:49.282Z</time>
      </trkpt>
      <trkpt lat="42.94777" lon="0.81475">
        <ele>662.55</ele>
        <time>2024-02-16T08:54:52.722Z</time>
      </trkpt>
      <trkpt lat="42.94763" lon="0.81459">
        <ele>663.29</ele>
        <time>2024-02-16T08:54:56.168Z</time>
      </trkpt>
      <trkpt lat="42.94711" lon="0.81421">
        <ele>664.18</ele>
        <time>2024-02-16T08:54:59.634Z</time>
      </trkpt>
      <trkpt lat="42.94697" lon="0.81418">
        <ele>665.06</ele>
        <time>2024-02-16T08:55:03.105Z</time>
      </trkpt>
      <trkpt lat="42.94688" lon="0.81419">
        <ele>665.93</ele>
        <time>2024-02-16T08:55:06.579Z</time>
      </trkpt>
      <trkpt lat="42.94674" lon="0.81427">
        <ele>666.99</ele>
        <time>2024-02-16T08:55:10.058Z</time>
      </trkpt>
      <trkpt lat="42.94666" lon="0.81428">
        <ele>667.65</ele>
        <time>2024-02-16T08:55:13.539Z</time>
      </trkpt>
      <trkpt lat="42.94659" lon="0.81427">
        <ele>668.11</ele>
        <time>2024-02-16T08:55:17.023Z</time>
      </trkpt>
      <trkpt lat="42.94652" lon="0.8142">
        <ele>668.24</ele>
        <time>2024-02-16T08:55:20.510Z</time>
      </trkpt>
      <trkpt lat="42.94626" lon="0.81354">
        <ele>667.19</ele>
        <time>2024-02-16T08:55:24.015Z</time>
      </trkpt>
      <trkpt lat="42.94622" lon="0.81346">
        <ele>667.75</ele>
        <time>2024-02-16T08:55:27.522Z</time>
      </trkpt>
      <trkpt lat="42.94614" lon="0.81341">
        <ele>668.43</ele>
        <time>2024-02-16T08:55:31.032Z</time>
      </trkpt>
      <trkpt lat="42.94606" lon="0.81341">
        <ele>669.28</ele>
        <time>2024-02-16T08:55:34.545Z</time>
      </trkpt>
      <trkpt lat="42.94562" lon="0.81357">
        <ele>670.36</ele>
        <time>2024-02-16T08:55:38.073Z</time>
      </trkpt>
      <trkpt lat="42.94497" lon="0.81366">
        <ele>671.75</ele>
        <time>2024-02-16T08:55:41.623Z</time>
      </trkpt>
      <trkpt lat="42.94487" lon="0.81365">
        <ele>672.3</ele>
        <time>2024-02-16T08:55:45.176Z</time>
      </trkpt>
      <trkpt lat="42.9447" lon="0.81357">
        <ele>672.54</ele>
        <time>2024-02-16T08:55:48.735Z</time>
      </trkpt>
      <trkpt lat="42.94458" lon="0.81349">
        <ele>672.42</ele>
        <time>2024-02-16T08:55:52.299Z</time>
      </trkpt>
      <trkpt lat="42.94429" lon="0.81314">
        <ele>671.83</ele>
        <time>2024-02-16T08:55:55.876Z</time>
      </trkpt>
      <trkpt lat="42.94422" lon="0.81301">
        <ele>671.48</ele>
        <time>2024-02-16T08:55:59.457Z</time>
      </trkpt>
      <trkpt lat="42.94417" lon="0.81288">
        <ele>670.98</ele>
        <time>2024-02-16T08:56:03.041Z</time>
      </trkpt>
      <trkpt lat="42.94414" lon="0.81254">
        <ele>670.19</ele>
        <time>2024-02-16T08:56:06.634Z</time>
      </trkpt>
      <trkpt lat="42.94409" lon="0.81239">
        <ele>669.94</ele>
        <time>2024-02-16T08:56:10.231Z</time>
      </trkpt>
      <trkpt lat="42.94401" lon="0.81224">
        <ele>669.78</ele>
        <time>2024-02-16T08:56:13.832Z</time>
      </trkpt>
      <trkpt lat="42.9439" lon="0.81211">
        <ele>669.72</ele>
        <time>2024-02-16T08:56:17.438Z</time>
      </trkpt>
      <trkpt lat="42.94376" lon="0.81201">
        <ele>669.86</ele>
        <time>2024-02-16T08:56:21.049Z</time>
      </trkpt>
      <trkpt lat="42.94299" lon="0.81171">
        <ele>670.29</ele>
        <time>2024-02-16T08:56:24.687Z</time>
      </trkpt>
      <trkpt lat="42.94268" lon="0.81155">
        <ele>670.28</ele>
        <time>2024-02-16T08:56:28.336Z</time>
      </trkpt>
      <trkpt lat="42.94237" lon="0.81142">
        <ele>670.09</ele>
        <time>2024-02-16T08:56:31.996Z</time>
      </trkpt>
      <trkpt lat="42.94225" lon="0.81133">
        <ele>669.53</ele>
        <time>2024-02-16T08:56:35.660Z</time>
      </trkpt>
      <trkpt lat="42.94206" lon="0.8111">
        <ele>669.08</ele>
        <time>2024-02-16T08:56:39.333Z</time>
      </trkpt>
      <trkpt lat="42.94195" lon="0.81102">
        <ele>669.69</ele>
        <time>2024-02-16T08:56:43.010Z</time>
      </trkpt>
      <trkpt lat="42.94184" lon="0.81099">
        <ele>670.88</ele>
        <time>2024-02-16T08:56:46.691Z</time>
      </trkpt>
      <trkpt lat="42.94176" lon="0.81098">
        <ele>672.62</ele>
        <time>2024-02-16T08:56:50.375Z</time>
      </trkpt>
      <trkpt lat="42.9416" lon="0.81109">
        <ele>675.14</ele>
        <time>2024-02-16T08:56:54.064Z</time>
      </trkpt>
      <trkpt lat="42.94144" lon="0.81114">
        <ele>677.5</ele>
        <time>2024-02-16T08:56:57.759Z</time>
      </trkpt>
      <trkpt lat="42.94132" lon="0.81112">
        <ele>679.78</ele>
        <time>2024-02-16T08:57:01.458Z</time>
      </trkpt>
      <trkpt lat="42.94074" lon="0.81087">
        <ele>682.26</ele>
        <time>2024-02-16T08:57:05.177Z</time>
      </trkpt>
      <trkpt lat="42.94002" lon="0.81084">
        <ele>686.61</ele>
        <time>2024-02-16T08:57:08.920Z</time>
      </trkpt>
      <trkpt lat="42.93997" lon="0.81082">
        <ele>694.69</ele>
        <time>2024-02-16T08:57:12.665Z</time>
      </trkpt>
      <trkpt lat="42.93997" lon="0.81082">
        <ele>694.76</ele>
        <time>2024-02-16T08:57:16.410Z</time>
      </trkpt>
      <trkpt lat="42.93983" lon="0.81077">
        <ele>695.6</ele>
        <time>2024-02-16T08:57:20.160Z</time>
      </trkpt>
      <trkpt lat="42.93962" lon="0.81066">
        <ele>696.88</ele>
        <time>2024-02-16T08:57:23.917Z</time>
      </trkpt>
      <trkpt lat="42.93947" lon="0.81035">
        <ele>696.2</ele>
        <time>2024-02-16T08:57:27.683Z</time>
      </trkpt>
      <trkpt lat="42.93942" lon="0.80994">
        <ele>693.24</ele>
        <time>2024-02-16T08:57:31.459Z</time>
      </trkpt>
      <trkpt lat="42.93942" lon="0.80967">
        <ele>690.34</ele>
        <time>2024-02-16T08:57:35.242Z</time>
      </trkpt>
      <trkpt lat="42.93938" lon="0.80938">
        <ele>688.07</ele>
        <time>2024-02-16T08:57:39.032Z</time>
      </trkpt>
      <trkpt lat="42.93921" lon="0.80919">
        <ele>687.01</ele>
        <time>2024-02-16T08:57:42.830Z</time>
      </trkpt>
      <trkpt lat="42.93887" lon="0.80916">
        <ele>688.96</ele>
        <time>2024-02-16T08:57:46.639Z</time>
      </trkpt>
      <trkpt lat="42.93856" lon="0.80877">
        <ele>690.55</ele>
        <time>2024-02-16T08:57:50.462Z</time>
      </trkpt>
      <trkpt lat="42.93838" lon="0.80835">
        <ele>690.71</ele>
        <time>2024-02-16T08:57:54.297Z</time>
      </trkpt>
      <trkpt lat="42.9383" lon="0.80795">
        <ele>690.75</ele>
        <time>2024-02-16T08:57:58.142Z</time>
      </trkpt>
      <trkpt lat="42.93819" lon="0.80748">
        <ele>690.61</ele>
        <time>2024-02-16T08:58:01.999Z</time>
      </trkpt>
      <trkpt lat="42.93802" lon="0.80738">
        <ele>691.01</ele>
        <time>2024-02-16T08:58:05.862Z</time>
      </trkpt>
      <trkpt lat="42.93745" lon="0.80748">
        <ele>693.2</ele>
        <time>2024-02-16T08:58:09.744Z</time>
      </trkpt>
      <trkpt lat="42.93705" lon="0.80734">
        <ele>695.5</ele>
        <time>2024-02-16T08:58:13.640Z</time>
      </trkpt>
      <trkpt lat="42.93681" lon="0.80696">
        <ele>696.77</ele>
        <time>2024-02-16T08:58:17.548Z</time>
      </trkpt>
      <trkpt lat="42.93644" lon="0.80622">
        <ele>696.93</ele>
        <time>2024-02-16T08:58:21.478Z</time>
      </trkpt>
      <trkpt lat="42.93592" lon="0.8061">
        <ele>697.79</ele>
        <time>2024-02-16T08:58:25.426Z</time>
      </trkpt>
      <trkpt lat="42.93569" lon="0.80616">
        <ele>698.24</ele>
        <time>2024-02-16T08:58:29.382Z</time>
      </trkpt>
      <trkpt lat="42.93551" lon="0.8063">
        <ele>698.68</ele>
        <time>2024-02-16T08:58:33.345Z</time>
      </trkpt>
      <trkpt lat="42.93507" lon="0.80644">
        <ele>698.72</ele>
        <time>2024-02-16T08:58:37.323Z</time>
      </trkpt>
      <trkpt lat="42.93445" lon="0.80613">
        <ele>700.16</ele>
        <time>2024-02-16T08:58:41.323Z</time>
      </trkpt>
      <trkpt lat="42.93406" lon="0.80586">
        <ele>701.55</ele>
        <time>2024-02-16T08:58:45.337Z</time>
      </trkpt>
      <trkpt lat="42.93387" lon="0.80594">
        <ele>702.96</ele>
        <time>2024-02-16T08:58:49.358Z</time>
      </trkpt>
      <trkpt lat="42.93373" lon="0.80633">
        <ele>704.15</ele>
        <time>2024-02-16T08:58:53.389Z</time>
      </trkpt>
      <trkpt lat="42.93373" lon="0.80633">
        <ele>705.33</ele>
        <time>2024-02-16T08:58:57.420Z</time>
      </trkpt>
      <trkpt lat="42.93354" lon="0.80698">
        <ele>706.45</ele>
        <time>2024-02-16T08:59:01.469Z</time>
      </trkpt>
      <trkpt lat="42.93341" lon="0.80717">
        <ele>707.65</ele>
        <time>2024-02-16T08:59:05.524Z</time>
      </trkpt>
      <trkpt lat="42.93318" lon="0.80733">
        <ele>709.02</ele>
        <time>2024-02-16T08:59:09.588Z</time>
      </trkpt>
      <trkpt lat="42.93307" lon="0.80734">
        <ele>710.28</ele>
        <time>2024-02-16T08:59:13.655Z</time>
      </trkpt>
      <trkpt lat="42.93272" lon="0.80712">
        <ele>710.98</ele>
        <time>2024-02-16T08:59:17.735Z</time>
      </trkpt>
      <trkpt lat="42.93256" lon="0.80699">
        <ele>711.92</ele>
        <time>2024-02-16T08:59:21.821Z</time>
      </trkpt>
      <trkpt lat="42.93247" lon="0.80702">
        <ele>713.09</ele>
        <time>2024-02-16T08:59:25.911Z</time>
      </trkpt>
      <trkpt lat="42.93238" lon="0.80711">
        <ele>714.4</ele>
        <time>2024-02-16T08:59:30.004Z</time>
      </trkpt>
      <trkpt lat="42.93233" lon="0.80736">
        <ele>715.86</ele>
        <time>2024-02-16T08:59:34.103Z</time>
      </trkpt>
      <trkpt lat="42.93229" lon="0.80799">
        <ele>718.08</ele>
        <time>2024-02-16T08:59:38.218Z</time>
      </trkpt>
      <trkpt lat="42.93239" lon="0.80871">
        <ele>720.61</ele>
        <time>2024-02-16T08:59:42.351Z</time>
      </trkpt>
      <trkpt lat="42.93237" lon="0.80881">
        <ele>722.52</ele>
        <time>2024-02-16T08:59:46.487Z</time>
      </trkpt>
      <trkpt lat="42.9323" lon="0.80886">
        <ele>724.47</ele>
        <time>2024-02-16T08:59:50.625Z</time>
      </trkpt>
      <trkpt lat="42.93223" lon="0.8088">
        <ele>726.4</ele>
        <time>2024-02-16T08:59:54.766Z</time>
      </trkpt>
      <trkpt lat="42.93217" lon="0.80873">
        <ele>728.29</ele>
        <time>2024-02-16T08:59:58.910Z</time>
      </trkpt>
      <trkpt lat="42.93208" lon="0.80843">
        <ele>729.72</ele>
        <time>2024-02-16T09:00:03.062Z</time>
      </trkpt>
      <trkpt lat="42.93205" lon="0.80819">
        <ele>731.03</ele>
        <time>2024-02-16T09:00:07.220Z</time>
      </trkpt>
      <trkpt lat="42.93201" lon="0.80812">
        <ele>732.52</ele>
        <time>2024-02-16T09:00:11.380Z</time>
      </trkpt>
      <trkpt lat="42.93181" lon="0.80792">
        <ele>734.21</ele>
        <time>2024-02-16T09:00:15.548Z</time>
      </trkpt>
      <trkpt lat="42.93166" lon="0.80787">
        <ele>736.02</ele>
        <time>2024-02-16T09:00:19.721Z</time>
      </trkpt>
      <trkpt lat="42.93147" lon="0.80774">
        <ele>737.84</ele>
        <time>2024-02-16T09:00:23.901Z</time>
      </trkpt>
      <trkpt lat="42.93136" lon="0.80754">
        <ele>739.42</ele>
        <time>2024-02-16T09:00:28.087Z</time>
      </trkpt>
      <trkpt lat="42.93126" lon="0.80739">
        <ele>741.08</ele>
        <time>2024-02-16T09:00:32.278Z</time>
      </trkpt>
      <trkpt lat="42.93095" lon="0.80729">
        <ele>743.12</ele>
        <time>2024-02-16T09:00:36.480Z</time>
      </trkpt>
      <trkpt lat="42.93057" lon="0.80722">
        <ele>745.32</ele>
        <time>2024-02-16T09:00:40.695Z</time>
      </trkpt>
      <trkpt lat="42.93043" lon="0.80708">
        <ele>747.13</ele>
        <time>2024-02-16T09:00:44.916Z</time>
      </trkpt>
      <trkpt lat="42.93041" lon="0.80702">
        <ele>748.95</ele>
        <time>2024-02-16T09:00:49.138Z</time>
      </trkpt>
      <trkpt lat="42.93012" lon="0.80686">
        <ele>750.8</ele>
        <time>2024-02-16T09:00:53.370Z</time>
      </trkpt>
      <trkpt lat="42.92997" lon="0.80689">
        <ele>752.9</ele>
        <time>2024-02-16T09:00:57.608Z</time>
      </trkpt>
      <trkpt lat="42.92977" lon="0.807">
        <ele>755.37</ele>
        <time>2024-02-16T09:01:01.852Z</time>
      </trkpt>
      <trkpt lat="42.92959" lon="0.80701">
        <ele>757.76</ele>
        <time>2024-02-16T09:01:06.103Z</time>
      </trkpt>
      <trkpt lat="42.92924" lon="0.80687">
        <ele>760.12</ele>
        <time>2024-02-16T09:01:10.366Z</time>
      </trkpt>
      <trkpt lat="42.92898" lon="0.80665">
        <ele>762.01</ele>
        <time>2024-02-16T09:01:14.639Z</time>
      </trkpt>
      <trkpt lat="42.92889" lon="0.80655">
        <ele>763.89</ele>
        <time>2024-02-16T09:01:18.916Z</time>
      </trkpt>
      <trkpt lat="42.92879" lon="0.80649">
        <ele>765.82</ele>
        <time>2024-02-16T09:01:23.197Z</time>
      </trkpt>
      <trkpt lat="42.92873" lon="0.80649">
        <ele>767.92</ele>
        <time>2024-02-16T09:01:27.479Z</time>
      </trkpt>
      <trkpt lat="42.92855" lon="0.80666">
        <ele>770.43</ele>
        <time>2024-02-16T09:01:31.769Z</time>
      </trkpt>
      <trkpt lat="42.92847" lon="0.8068">
        <ele>772.9</ele>
        <time>2024-02-16T09:01:36.063Z</time>
      </trkpt>
      <trkpt lat="42.92823" lon="0.80723">
        <ele>775.84</ele>
        <time>2024-02-16T09:01:40.370Z</time>
      </trkpt>
      <trkpt lat="42.92807" lon="0.80742">
        <ele>778.51</ele>
        <time>2024-02-16T09:01:44.685Z</time>
      </trkpt>
      <trkpt lat="42.92792" lon="0.80766">
        <ele>781.13</ele>
        <time>2024-02-16T09:01:49.007Z</time>
      </trkpt>
      <trkpt lat="42.92789" lon="0.80776">
        <ele>783.62</ele>
        <time>2024-02-16T09:01:53.332Z</time>
      </trkpt>
      <trkpt lat="42.92777" lon="0.80797">
        <ele>786.17</ele>
        <time>2024-02-16T09:01:57.663Z</time>
      </trkpt>
      <trkpt lat="42.9277" lon="0.80803">
        <ele>788.49</ele>
        <time>2024-02-16T09:02:01.997Z</time>
      </trkpt>
      <trkpt lat="42.92754" lon="0.80796">
        <ele>790.68</ele>
        <time>2024-02-16T09:02:06.337Z</time>
      </trkpt>
      <trkpt lat="42.92742" lon="0.8078">
        <ele>792.77</ele>
        <time>2024-02-16T09:02:10.682Z</time>
      </trkpt>
      <trkpt lat="42.92731" lon="0.80759">
        <ele>794.67</ele>
        <time>2024-02-16T09:02:15.034Z</time>
      </trkpt>
      <trkpt lat="42.92724" lon="0.80754">
        <ele>796.41</ele>
        <time>2024-02-16T09:02:19.388Z</time>
      </trkpt>
      <trkpt lat="42.92694" lon="0.80752">
        <ele>798.26</ele>
        <time>2024-02-16T09:02:23.752Z</time>
      </trkpt>
      <trkpt lat="42.92685" lon="0.80746">
        <ele>799.81</ele>
        <time>2024-02-16T09:02:28.120Z</time>
      </trkpt>
      <trkpt lat="42.92676" lon="0.80741">
        <ele>801.24</ele>
        <time>2024-02-16T09:02:32.491Z</time>
      </trkpt>
      <trkpt lat="42.92666" lon="0.80723">
        <ele>802.51</ele>
        <time>2024-02-16T09:02:36.867Z</time>
      </trkpt>
      <trkpt lat="42.92646" lon="0.80674">
        <ele>803.73</ele>
        <time>2024-02-16T09:02:41.257Z</time>
      </trkpt>
      <trkpt lat="42.92632" lon="0.8065">
        <ele>804.76</ele>
        <time>2024-02-16T09:02:45.655Z</time>
      </trkpt>
      <trkpt lat="42.92627" lon="0.80647">
        <ele>805.5</ele>
        <time>2024-02-16T09:02:50.055Z</time>
      </trkpt>
      <trkpt lat="42.92584" lon="0.80585">
        <ele>806.41</ele>
        <time>2024-02-16T09:02:54.475Z</time>
      </trkpt>
      <trkpt lat="42.9253" lon="0.80523">
        <ele>806.19</ele>
        <time>2024-02-16T09:02:58.919Z</time>
      </trkpt>
      <trkpt lat="42.9252" lon="0.80507">
        <ele>805.87</ele>
        <time>2024-02-16T09:03:03.368Z</time>
      </trkpt>
      <trkpt lat="42.92504" lon="0.80503">
        <ele>805.5</ele>
        <time>2024-02-16T09:03:07.822Z</time>
      </trkpt>
      <trkpt lat="42.92487" lon="0.80506">
        <ele>805.07</ele>
        <time>2024-02-16T09:03:12.282Z</time>
      </trkpt>
      <trkpt lat="42.9246" lon="0.80506">
        <ele>804.45</ele>
        <time>2024-02-16T09:03:16.751Z</time>
      </trkpt>
      <trkpt lat="42.92451" lon="0.80503">
        <ele>803.79</ele>
        <time>2024-02-16T09:03:21.223Z</time>
      </trkpt>
      <trkpt lat="42.92441" lon="0.805">
        <ele>803.1</ele>
        <time>2024-02-16T09:03:25.699Z</time>
      </trkpt>
      <trkpt lat="42.92421" lon="0.80505">
        <ele>802.46</ele>
        <time>2024-02-16T09:03:30.182Z</time>
      </trkpt>
      <trkpt lat="42.92407" lon="0.80527">
        <ele>801.95</ele>
        <time>2024-02-16T09:03:34.672Z</time>
      </trkpt>
      <trkpt lat="42.92383" lon="0.80592">
        <ele>801.59</ele>
        <time>2024-02-16T09:03:39.179Z</time>
      </trkpt>
      <trkpt lat="42.92346" lon="0.80606">
        <ele>800.39</ele>
        <time>2024-02-16T09:03:43.699Z</time>
      </trkpt>
      <trkpt lat="42.92313" lon="0.80614">
        <ele>799.28</ele>
        <time>2024-02-16T09:03:48.230Z</time>
      </trkpt>
      <trkpt lat="42.92285" lon="0.80625">
        <ele>798.82</ele>
        <time>2024-02-16T09:03:52.771Z</time>
      </trkpt>
      <trkpt lat="42.92267" lon="0.80627">
        <ele>798.34</ele>
        <time>2024-02-16T09:03:57.318Z</time>
      </trkpt>
      <trkpt lat="42.92252" lon="0.80623">
        <ele>797.77</ele>
        <time>2024-02-16T09:04:01.870Z</time>
      </trkpt>
      <trkpt lat="42.92233" lon="0.80618">
        <ele>797.25</ele>
        <time>2024-02-16T09:04:06.429Z</time>
      </trkpt>
      <trkpt lat="42.92185" lon="0.80588">
        <ele>796.92</ele>
        <time>2024-02-16T09:04:11.005Z</time>
      </trkpt>
      <trkpt lat="42.92148" lon="0.80556">
        <ele>796.24</ele>
        <time>2024-02-16T09:04:15.596Z</time>
      </trkpt>
      <trkpt lat="42.92145" lon="0.80551">
        <ele>795.83</ele>
        <time>2024-02-16T09:04:20.188Z</time>
      </trkpt>
      <trkpt lat="42.92117" lon="0.80496">
        <ele>795.2</ele>
        <time>2024-02-16T09:04:24.797Z</time>
      </trkpt>
      <trkpt lat="42.92109" lon="0.80485">
        <ele>794.9</ele>
        <time>2024-02-16T09:04:29.410Z</time>
      </trkpt>
      <trkpt lat="42.92105" lon="0.80474">
        <ele>794.78</ele>
        <time>2024-02-16T09:04:34.026Z</time>
      </trkpt>
      <trkpt lat="42.92087" lon="0.80435">
        <ele>795.2</ele>
        <time>2024-02-16T09:04:38.653Z</time>
      </trkpt>
      <trkpt lat="42.92087" lon="0.80435">
        <ele>795.29</ele>
        <time>2024-02-16T09:04:43.280Z</time>
      </trkpt>
      <trkpt lat="42.92087" lon="0.80424">
        <ele>795.63</ele>
        <time>2024-02-16T09:04:47.909Z</time>
      </trkpt>
      <trkpt lat="42.92092" lon="0.80413">
        <ele>796.09</ele>
        <time>2024-02-16T09:04:52.542Z</time>
      </trkpt>
      <trkpt lat="42.92106" lon="0.80399">
        <ele>796.52</ele>
        <time>2024-02-16T09:04:57.181Z</time>
      </trkpt>
      <trkpt lat="42.92122" lon="0.80389">
        <ele>796.88</ele>
        <time>2024-02-16T09:05:01.826Z</time>
      </trkpt>
      <trkpt lat="42.92131" lon="0.80389">
        <ele>797.25</ele>
        <time>2024-02-16T09:05:06.473Z</time>
      </trkpt>
      <trkpt lat="42.92156" lon="0.80404">
        <ele>797.28</ele>
        <time>2024-02-16T09:05:11.129Z</time>
      </trkpt>
      <trkpt lat="42.92162" lon="0.80405">
        <ele>797.68</ele>
        <time>2024-02-16T09:05:15.788Z</time>
      </trkpt>
      <trkpt lat="42.9217" lon="0.80401">
        <ele>798.17</ele>
        <time>2024-02-16T09:05:20.449Z</time>
      </trkpt>
      <trkpt lat="42.92174" lon="0.80391">
        <ele>798.82</ele>
        <time>2024-02-16T09:05:25.113Z</time>
      </trkpt>
      <trkpt lat="42.92174" lon="0.80382">
        <ele>799.5</ele>
        <time>2024-02-16T09:05:29.779Z</time>
      </trkpt>
      <trkpt lat="42.92164" lon="0.80358">
        <ele>800.54</ele>
        <time>2024-02-16T09:05:34.452Z</time>
      </trkpt>
      <trkpt lat="42.92159" lon="0.8034">
        <ele>801.4</ele>
        <time>2024-02-16T09:05:39.130Z</time>
      </trkpt>
      <trkpt lat="42.92159" lon="0.80324">
        <ele>802.03</ele>
        <time>2024-02-16T09:05:43.812Z</time>
      </trkpt>
      <trkpt lat="42.92161" lon="0.80316">
        <ele>802.57</ele>
        <time>2024-02-16T09:05:48.496Z</time>
      </trkpt>
      <trkpt lat="42.92165" lon="0.80311">
        <ele>802.99</ele>
        <time>2024-02-16T09:05:53.182Z</time>
      </trkpt>
      <trkpt lat="42.92173" lon="0.80305">
        <ele>803.32</ele>
        <time>2024-02-16T09:05:57.870Z</time>
      </trkpt>
      <trkpt lat="42.9218" lon="0.80306">
        <ele>803.64</ele>
        <time>2024-02-16T09:06:02.561Z</time>
      </trkpt>
      <trkpt lat="42.92205" lon="0.8032">
        <ele>803.87</ele>
        <time>2024-02-16T09:06:07.261Z</time>
      </trkpt>
      <trkpt lat="42.92214" lon="0.80328">
        <ele>804.21</ele>
        <time>2024-02-16T09:06:11.964Z</time>
      </trkpt>
      <trkpt lat="42.92223" lon="0.80345">
        <ele>804.43</ele>
        <time>2024-02-16T09:06:16.673Z</time>
      </trkpt>
      <trkpt lat="42.92233" lon="0.80357">
        <ele>804.73</ele>
        <time>2024-02-16T09:06:21.386Z</time>
      </trkpt>
      <trkpt lat="42.92256" lon="0.80382">
        <ele>805.08</ele>
        <time>2024-02-16T09:06:26.109Z</time>
      </trkpt>
      <trkpt lat="42.92269" lon="0.80399">
        <ele>805.46</ele>
        <time>2024-02-16T09:06:30.838Z</time>
      </trkpt>
      <trkpt lat="42.92273" lon="0.80401">
        <ele>805.95</ele>
        <time>2024-02-16T09:06:35.568Z</time>
      </trkpt>
      <trkpt lat="42.92277" lon="0.804">
        <ele>806.6</ele>
        <time>2024-02-16T09:06:40.300Z</time>
      </trkpt>
      <trkpt lat="42.92278" lon="0.80397">
        <ele>807.29</ele>
        <time>2024-02-16T09:06:45.032Z</time>
      </trkpt>
      <trkpt lat="42.92278" lon="0.80393">
        <ele>807.98</ele>
        <time>2024-02-16T09:06:49.765Z</time>
      </trkpt>
      <trkpt lat="42.92276" lon="0.80389">
        <ele>808.71</ele>
        <time>2024-02-16T09:06:54.499Z</time>
      </trkpt>
      <trkpt lat="42.92249" lon="0.80355">
        <ele>809.51</ele>
        <time>2024-02-16T09:06:59.246Z</time>
      </trkpt>
      <trkpt lat="42.92239" lon="0.80339">
        <ele>810.46</ele>
        <time>2024-02-16T09:07:03.998Z</time>
      </trkpt>
      <trkpt lat="42.92229" lon="0.80311">
        <ele>811.6</ele>
        <time>2024-02-16T09:07:08.758Z</time>
      </trkpt>
      <trkpt lat="42.9222" lon="0.80302">
        <ele>812.62</ele>
        <time>2024-02-16T09:07:13.521Z</time>
      </trkpt>
      <trkpt lat="42.92214" lon="0.80291">
        <ele>813.76</ele>
        <time>2024-02-16T09:07:18.287Z</time>
      </trkpt>
      <trkpt lat="42.92207" lon="0.80274">
        <ele>814.96</ele>
        <time>2024-02-16T09:07:23.058Z</time>
      </trkpt>
      <trkpt lat="42.92204" lon="0.8026">
        <ele>816.21</ele>
        <time>2024-02-16T09:07:27.833Z</time>
      </trkpt>
      <trkpt lat="42.92199" lon="0.80245">
        <ele>817.6</ele>
        <time>2024-02-16T09:07:32.612Z</time>
      </trkpt>
      <trkpt lat="42.92182" lon="0.80228">
        <ele>818.97</ele>
        <time>2024-02-16T09:07:37.398Z</time>
      </trkpt>
      <trkpt lat="42.9218" lon="0.80222">
        <ele>820.53</ele>
        <time>2024-02-16T09:07:42.185Z</time>
      </trkpt>
      <trkpt lat="42.92184" lon="0.80216">
        <ele>822.25</ele>
        <time>2024-02-16T09:07:46.974Z</time>
      </trkpt>
      <trkpt lat="42.9219" lon="0.80216">
        <ele>824</ele>
        <time>2024-02-16T09:07:51.765Z</time>
      </trkpt>
      <trkpt lat="42.92226" lon="0.80242">
        <ele>825.94</ele>
        <time>2024-02-16T09:07:56.570Z</time>
      </trkpt>
      <trkpt lat="42.92238" lon="0.8026">
        <ele>827.72</ele>
        <time>2024-02-16T09:08:01.381Z</time>
      </trkpt>
      <trkpt lat="42.92255" lon="0.80299">
        <ele>829.51</ele>
        <time>2024-02-16T09:08:06.203Z</time>
      </trkpt>
      <trkpt lat="42.9226" lon="0.80305">
        <ele>831.44</ele>
        <time>2024-02-16T09:08:11.027Z</time>
      </trkpt>
      <trkpt lat="42.92265" lon="0.80307">
        <ele>833.48</ele>
        <time>2024-02-16T09:08:15.853Z</time>
      </trkpt>
      <trkpt lat="42.92269" lon="0.80307">
        <ele>835.59</ele>
        <time>2024-02-16T09:08:20.680Z</time>
      </trkpt>
      <trkpt lat="42.92294" lon="0.80295">
        <ele>838.18</ele>
        <time>2024-02-16T09:08:25.516Z</time>
      </trkpt>
      <trkpt lat="42.92356" lon="0.80283">
        <ele>840.84</ele>
        <time>2024-02-16T09:08:30.373Z</time>
      </trkpt>
      <trkpt lat="42.92379" lon="0.80281">
        <ele>843.12</ele>
        <time>2024-02-16T09:08:35.238Z</time>
      </trkpt>
      <trkpt lat="42.92408" lon="0.80283">
        <ele>845.29</ele>
        <time>2024-02-16T09:08:40.112Z</time>
      </trkpt>
      <trkpt lat="42.92412" lon="0.80281">
        <ele>847.53</ele>
        <time>2024-02-16T09:08:44.988Z</time>
      </trkpt>
      <trkpt lat="42.92414" lon="0.80276">
        <ele>849.83</ele>
        <time>2024-02-16T09:08:49.865Z</time>
      </trkpt>
      <trkpt lat="42.92414" lon="0.80267">
        <ele>852.28</ele>
        <time>2024-02-16T09:08:54.744Z</time>
      </trkpt>
      <trkpt lat="42.92411" lon="0.80265">
        <ele>854.55</ele>
        <time>2024-02-16T09:08:59.625Z</time>
      </trkpt>
      <trkpt lat="42.92388" lon="0.8026">
        <ele>856.87</ele>
        <time>2024-02-16T09:09:04.513Z</time>
      </trkpt>
      <trkpt lat="42.92333" lon="0.80243">
        <ele>859.03</ele>
        <time>2024-02-16T09:09:09.420Z</time>
      </trkpt>
      <trkpt lat="42.92322" lon="0.80236">
        <ele>861.28</ele>
        <time>2024-02-16T09:09:14.331Z</time>
      </trkpt>
      <trkpt lat="42.92317" lon="0.80227">
        <ele>863.58</ele>
        <time>2024-02-16T09:09:19.245Z</time>
      </trkpt>
      <trkpt lat="42.92313" lon="0.80214">
        <ele>865.94</ele>
        <time>2024-02-16T09:09:24.162Z</time>
      </trkpt>
      <trkpt lat="42.92308" lon="0.80165">
        <ele>868.5</ele>
        <time>2024-02-16T09:09:29.092Z</time>
      </trkpt>
      <trkpt lat="42.92303" lon="0.80148">
        <ele>870.83</ele>
        <time>2024-02-16T09:09:34.026Z</time>
      </trkpt>
      <trkpt lat="42.92252" lon="0.80011">
        <ele>873.61</ele>
        <time>2024-02-16T09:09:38.998Z</time>
      </trkpt>
      <trkpt lat="42.92226" lon="0.79949">
        <ele>875.86</ele>
        <time>2024-02-16T09:09:43.987Z</time>
      </trkpt>
      <trkpt lat="42.92225" lon="0.79934">
        <ele>878.22</ele>
        <time>2024-02-16T09:09:48.980Z</time>
      </trkpt>
      <trkpt lat="42.92226" lon="0.7993">
        <ele>880.52</ele>
        <time>2024-02-16T09:09:53.974Z</time>
      </trkpt>
      <trkpt lat="42.9223" lon="0.79927">
        <ele>882.85</ele>
        <time>2024-02-16T09:09:58.969Z</time>
      </trkpt>
      <trkpt lat="42.92238" lon="0.79929">
        <ele>885.25</ele>
        <time>2024-02-16T09:10:03.967Z</time>
      </trkpt>
      <trkpt lat="42.92248" lon="0.79953">
        <ele>887.44</ele>
        <time>2024-02-16T09:10:08.972Z</time>
      </trkpt>
      <trkpt lat="42.92258" lon="0.7997">
        <ele>889.69</ele>
        <time>2024-02-16T09:10:13.982Z</time>
      </trkpt>
      <trkpt lat="42.92269" lon="0.79982">
        <ele>891.99</ele>
        <time>2024-02-16T09:10:18.997Z</time>
      </trkpt>
      <trkpt lat="42.92289" lon="0.79996">
        <ele>894.39</ele>
        <time>2024-02-16T09:10:24.019Z</time>
      </trkpt>
      <trkpt lat="42.92309" lon="0.80015">
        <ele>896.89</ele>
        <time>2024-02-16T09:10:29.050Z</time>
      </trkpt>
      <trkpt lat="42.92337" lon="0.80052">
        <ele>899.59</ele>
        <time>2024-02-16T09:10:34.094Z</time>
      </trkpt>
      <trkpt lat="42.92351" lon="0.80068">
        <ele>902.15</ele>
        <time>2024-02-16T09:10:39.144Z</time>
      </trkpt>
      <trkpt lat="42.92401" lon="0.80112">
        <ele>904.87</ele>
        <time>2024-02-16T09:10:44.214Z</time>
      </trkpt>
      <trkpt lat="42.92424" lon="0.80141">
        <ele>907.49</ele>
        <time>2024-02-16T09:10:49.294Z</time>
      </trkpt>
      <trkpt lat="42.92427" lon="0.80142">
        <ele>910.11</ele>
        <time>2024-02-16T09:10:54.375Z</time>
      </trkpt>
      <trkpt lat="42.92429" lon="0.80141">
        <ele>912.77</ele>
        <time>2024-02-16T09:10:59.457Z</time>
      </trkpt>
      <trkpt lat="42.92429" lon="0.80141">
        <ele>915.43</ele>
        <time>2024-02-16T09:11:04.539Z</time>
      </trkpt>
      <trkpt lat="42.92432" lon="0.80137">
        <ele>918.24</ele>
        <time>2024-02-16T09:11:09.622Z</time>
      </trkpt>
      <trkpt lat="42.92434" lon="0.80132">
        <ele>921.1</ele>
        <time>2024-02-16T09:11:14.707Z</time>
      </trkpt>
      <trkpt lat="42.92432" lon="0.80127">
        <ele>923.99</ele>
        <time>2024-02-16T09:11:19.793Z</time>
      </trkpt>
      <trkpt lat="42.92412" lon="0.80103">
        <ele>926.84</ele>
        <time>2024-02-16T09:11:24.888Z</time>
      </trkpt>
      <trkpt lat="42.92396" lon="0.80076">
        <ele>929.83</ele>
        <time>2024-02-16T09:11:29.991Z</time>
      </trkpt>
      <trkpt lat="42.92355" lon="0.79978">
        <ele>933.63</ele>
        <time>2024-02-16T09:11:35.122Z</time>
      </trkpt>
      <trkpt lat="42.92313" lon="0.79903">
        <ele>936.79</ele>
        <time>2024-02-16T09:11:40.276Z</time>
      </trkpt>
      <trkpt lat="42.92245" lon="0.79746">
        <ele>940.4</ele>
        <time>2024-02-16T09:11:45.475Z</time>
      </trkpt>
      <trkpt lat="42.92237" lon="0.79721">
        <ele>943.66</ele>
        <time>2024-02-16T09:11:50.680Z</time>
      </trkpt>
      <trkpt lat="42.92229" lon="0.79683">
        <ele>947</ele>
        <time>2024-02-16T09:11:55.895Z</time>
      </trkpt>
      <trkpt lat="42.92224" lon="0.79649">
        <ele>950.26</ele>
        <time>2024-02-16T09:12:01.119Z</time>
      </trkpt>
      <trkpt lat="42.92223" lon="0.7961">
        <ele>953.56</ele>
        <time>2024-02-16T09:12:06.352Z</time>
      </trkpt>
      <trkpt lat="42.9222" lon="0.7958">
        <ele>956.71</ele>
        <time>2024-02-16T09:12:11.592Z</time>
      </trkpt>
      <trkpt lat="42.92207" lon="0.79504">
        <ele>959.84</ele>
        <time>2024-02-16T09:12:16.852Z</time>
      </trkpt>
      <trkpt lat="42.92202" lon="0.79482">
        <ele>962.89</ele>
        <time>2024-02-16T09:12:22.117Z</time>
      </trkpt>
      <trkpt lat="42.92194" lon="0.79465">
        <ele>965.89</ele>
        <time>2024-02-16T09:12:27.387Z</time>
      </trkpt>
      <trkpt lat="42.92173" lon="0.79432">
        <ele>968.7</ele>
        <time>2024-02-16T09:12:32.668Z</time>
      </trkpt>
      <trkpt lat="42.92164" lon="0.79407">
        <ele>971.53</ele>
        <time>2024-02-16T09:12:37.956Z</time>
      </trkpt>
      <trkpt lat="42.92149" lon="0.79334">
        <ele>974.52</ele>
        <time>2024-02-16T09:12:43.262Z</time>
      </trkpt>
      <trkpt lat="42.92141" lon="0.7931">
        <ele>977.28</ele>
        <time>2024-02-16T09:12:48.575Z</time>
      </trkpt>
      <trkpt lat="42.92121" lon="0.79272">
        <ele>980.02</ele>
        <time>2024-02-16T09:12:53.899Z</time>
      </trkpt>
      <trkpt lat="42.92113" lon="0.79205">
        <ele>983.48</ele>
        <time>2024-02-16T09:12:59.240Z</time>
      </trkpt>
      <trkpt lat="42.92109" lon="0.79143">
        <ele>986.87</ele>
        <time>2024-02-16T09:13:04.596Z</time>
      </trkpt>
      <trkpt lat="42.92105" lon="0.7911">
        <ele>989.6</ele>
        <time>2024-02-16T09:13:09.960Z</time>
      </trkpt>
      <trkpt lat="42.92043" lon="0.78934">
        <ele>992.41</ele>
        <time>2024-02-16T09:13:15.372Z</time>
      </trkpt>
      <trkpt lat="42.92038" lon="0.78914">
        <ele>994.86</ele>
        <time>2024-02-16T09:13:20.789Z</time>
      </trkpt>
      <trkpt lat="42.92035" lon="0.78896">
        <ele>997.24</ele>
        <time>2024-02-16T09:13:26.211Z</time>
      </trkpt>
      <trkpt lat="42.92037" lon="0.78885">
        <ele>999.57</ele>
        <time>2024-02-16T09:13:31.635Z</time>
      </trkpt>
      <trkpt lat="42.9205" lon="0.78842">
        <ele>1002.22</ele>
        <time>2024-02-16T09:13:37.071Z</time>
      </trkpt>
      <trkpt lat="42.92053" lon="0.7884">
        <ele>1004.35</ele>
        <time>2024-02-16T09:13:42.508Z</time>
      </trkpt>
      <trkpt lat="42.92056" lon="0.78838">
        <ele>1006.39</ele>
        <time>2024-02-16T09:13:47.946Z</time>
      </trkpt>
      <trkpt lat="42.92059" lon="0.78838">
        <ele>1008.32</ele>
        <time>2024-02-16T09:13:53.385Z</time>
      </trkpt>
      <trkpt lat="42.92061" lon="0.7884">
        <ele>1010.14</ele>
        <time>2024-02-16T09:13:58.825Z</time>
      </trkpt>
      <trkpt lat="42.92064" lon="0.78851">
        <ele>1011.75</ele>
        <time>2024-02-16T09:14:04.268Z</time>
      </trkpt>
      <trkpt lat="42.92062" lon="0.78868">
        <ele>1013.15</ele>
        <time>2024-02-16T09:14:09.715Z</time>
      </trkpt>
      <trkpt lat="42.92063" lon="0.78877">
        <ele>1014.77</ele>
        <time>2024-02-16T09:14:15.165Z</time>
      </trkpt>
      <trkpt lat="42.92067" lon="0.78886">
        <ele>1016.4</ele>
        <time>2024-02-16T09:14:20.617Z</time>
      </trkpt>
      <trkpt lat="42.92071" lon="0.78891">
        <ele>1018.09</ele>
        <time>2024-02-16T09:14:26.071Z</time>
      </trkpt>
      <trkpt lat="42.92091" lon="0.78907">
        <ele>1020.15</ele>
        <time>2024-02-16T09:14:31.533Z</time>
      </trkpt>
      <trkpt lat="42.92102" lon="0.78921">
        <ele>1021.99</ele>
        <time>2024-02-16T09:14:37.000Z</time>
      </trkpt>
      <trkpt lat="42.92107" lon="0.78938">
        <ele>1023.65</ele>
        <time>2024-02-16T09:14:42.471Z</time>
      </trkpt>
      <trkpt lat="42.92109" lon="0.78969">
        <ele>1025.2</ele>
        <time>2024-02-16T09:14:47.950Z</time>
      </trkpt>
      <trkpt lat="42.92114" lon="0.78989">
        <ele>1026.76</ele>
        <time>2024-02-16T09:14:53.434Z</time>
      </trkpt>
      <trkpt lat="42.9215" lon="0.79088">
        <ele>1028.82</ele>
        <time>2024-02-16T09:14:58.945Z</time>
      </trkpt>
      <trkpt lat="42.92153" lon="0.7909">
        <ele>1030.6</ele>
        <time>2024-02-16T09:15:04.457Z</time>
      </trkpt>
      <trkpt lat="42.92161" lon="0.79089">
        <ele>1032.58</ele>
        <time>2024-02-16T09:15:09.972Z</time>
      </trkpt>
      <trkpt lat="42.92164" lon="0.79081">
        <ele>1034.5</ele>
        <time>2024-02-16T09:15:15.489Z</time>
      </trkpt>
      <trkpt lat="42.92163" lon="0.79076">
        <ele>1036.29</ele>
        <time>2024-02-16T09:15:21.007Z</time>
      </trkpt>
      <trkpt lat="42.92151" lon="0.79055">
        <ele>1037.91</ele>
        <time>2024-02-16T09:15:26.531Z</time>
      </trkpt>
      <trkpt lat="42.92149" lon="0.79047">
        <ele>1039.78</ele>
        <time>2024-02-16T09:15:32.058Z</time>
      </trkpt>
      <trkpt lat="42.92147" lon="0.79019">
        <ele>1041.83</ele>
        <time>2024-02-16T09:15:37.591Z</time>
      </trkpt>
      <trkpt lat="42.92142" lon="0.78976">
        <ele>1043.78</ele>
        <time>2024-02-16T09:15:43.135Z</time>
      </trkpt>
      <trkpt lat="42.9214" lon="0.78927">
        <ele>1045.98</ele>
        <time>2024-02-16T09:15:48.691Z</time>
      </trkpt>
      <trkpt lat="42.92136" lon="0.78884">
        <ele>1048.18</ele>
        <time>2024-02-16T09:15:54.258Z</time>
      </trkpt>
      <trkpt lat="42.92126" lon="0.78817">
        <ele>1050.25</ele>
        <time>2024-02-16T09:15:59.841Z</time>
      </trkpt>
      <trkpt lat="42.92114" lon="0.78767">
        <ele>1052.46</ele>
        <time>2024-02-16T09:16:05.437Z</time>
      </trkpt>
      <trkpt lat="42.921" lon="0.78664">
        <ele>1054.94</ele>
        <time>2024-02-16T09:16:11.059Z</time>
      </trkpt>
      <trkpt lat="42.92096" lon="0.78636">
        <ele>1057.19</ele>
        <time>2024-02-16T09:16:16.688Z</time>
      </trkpt>
      <trkpt lat="42.92054" lon="0.78555">
        <ele>1059.02</ele>
        <time>2024-02-16T09:16:22.341Z</time>
      </trkpt>
      <trkpt lat="42.92046" lon="0.78539">
        <ele>1061.04</ele>
        <time>2024-02-16T09:16:27.999Z</time>
      </trkpt>
      <trkpt lat="42.92045" lon="0.78532">
        <ele>1063.11</ele>
        <time>2024-02-16T09:16:33.659Z</time>
      </trkpt>
      <trkpt lat="42.92045" lon="0.78529">
        <ele>1065.15</ele>
        <time>2024-02-16T09:16:39.320Z</time>
      </trkpt>
      <trkpt lat="42.92049" lon="0.78523">
        <ele>1067.31</ele>
        <time>2024-02-16T09:16:44.983Z</time>
      </trkpt>
      <trkpt lat="42.92053" lon="0.78523">
        <ele>1069.41</ele>
        <time>2024-02-16T09:16:50.647Z</time>
      </trkpt>
      <trkpt lat="42.92057" lon="0.78528">
        <ele>1071.52</ele>
        <time>2024-02-16T09:16:56.312Z</time>
      </trkpt>
      <trkpt lat="42.92061" lon="0.78544">
        <ele>1073.48</ele>
        <time>2024-02-16T09:17:01.982Z</time>
      </trkpt>
      <trkpt lat="42.92074" lon="0.78568">
        <ele>1075.54</ele>
        <time>2024-02-16T09:17:07.659Z</time>
      </trkpt>
      <trkpt lat="42.92105" lon="0.78594">
        <ele>1078.43</ele>
        <time>2024-02-16T09:17:13.348Z</time>
      </trkpt>
      <trkpt lat="42.92109" lon="0.78602">
        <ele>1080.54</ele>
        <time>2024-02-16T09:17:19.039Z</time>
      </trkpt>
      <trkpt lat="42.92117" lon="0.78616">
        <ele>1082.67</ele>
        <time>2024-02-16T09:17:24.735Z</time>
      </trkpt>
      <trkpt lat="42.92131" lon="0.78654">
        <ele>1084.49</ele>
        <time>2024-02-16T09:17:30.441Z</time>
      </trkpt>
      <trkpt lat="42.92137" lon="0.78678">
        <ele>1086.48</ele>
        <time>2024-02-16T09:17:36.153Z</time>
      </trkpt>
      <trkpt lat="42.92141" lon="0.78699">
        <ele>1088.44</ele>
        <time>2024-02-16T09:17:41.871Z</time>
      </trkpt>
      <trkpt lat="42.92143" lon="0.78705">
        <ele>1090.44</ele>
        <time>2024-02-16T09:17:47.590Z</time>
      </trkpt>
      <trkpt lat="42.92147" lon="0.78706">
        <ele>1092.52</ele>
        <time>2024-02-16T09:17:53.311Z</time>
      </trkpt>
      <trkpt lat="42.9215" lon="0.78705">
        <ele>1094.6</ele>
        <time>2024-02-16T09:17:59.033Z</time>
      </trkpt>
      <trkpt lat="42.92153" lon="0.78695">
        <ele>1096.76</ele>
        <time>2024-02-16T09:18:04.757Z</time>
      </trkpt>
      <trkpt lat="42.92142" lon="0.78656">
        <ele>1098.65</ele>
        <time>2024-02-16T09:18:10.492Z</time>
      </trkpt>
      <trkpt lat="42.92134" lon="0.78613">
        <ele>1100.94</ele>
        <time>2024-02-16T09:18:16.237Z</time>
      </trkpt>
      <trkpt lat="42.92107" lon="0.78523">
        <ele>1103.06</ele>
        <time>2024-02-16T09:18:22.006Z</time>
      </trkpt>
      <trkpt lat="42.92098" lon="0.78465">
        <ele>1105.6</ele>
        <time>2024-02-16T09:18:27.790Z</time>
      </trkpt>
      <trkpt lat="42.92089" lon="0.78445">
        <ele>1107.45</ele>
        <time>2024-02-16T09:18:33.580Z</time>
      </trkpt>
      <trkpt lat="42.92066" lon="0.78411">
        <ele>1108.97</ele>
        <time>2024-02-16T09:18:39.381Z</time>
      </trkpt>
      <trkpt lat="42.9206" lon="0.784">
        <ele>1111.03</ele>
        <time>2024-02-16T09:18:45.185Z</time>
      </trkpt>
      <trkpt lat="42.92057" lon="0.7839">
        <ele>1113.08</ele>
        <time>2024-02-16T09:18:50.992Z</time>
      </trkpt>
      <trkpt lat="42.9205" lon="0.78351">
        <ele>1115.43</ele>
        <time>2024-02-16T09:18:56.809Z</time>
      </trkpt>
      <trkpt lat="42.92046" lon="0.78338">
        <ele>1117.51</ele>
        <time>2024-02-16T09:19:02.629Z</time>
      </trkpt>
      <trkpt lat="42.92013" lon="0.78274">
        <ele>1119.93</ele>
        <time>2024-02-16T09:19:08.468Z</time>
      </trkpt>
      <trkpt lat="42.91991" lon="0.78238">
        <ele>1122.34</ele>
        <time>2024-02-16T09:19:14.319Z</time>
      </trkpt>
      <trkpt lat="42.91974" lon="0.78212">
        <ele>1124.3</ele>
        <time>2024-02-16T09:19:20.178Z</time>
      </trkpt>
      <trkpt lat="42.91959" lon="0.78182">
        <ele>1126.38</ele>
        <time>2024-02-16T09:19:26.046Z</time>
      </trkpt>
      <trkpt lat="42.91955" lon="0.78176">
        <ele>1128.37</ele>
        <time>2024-02-16T09:19:31.916Z</time>
      </trkpt>
      <trkpt lat="42.91945" lon="0.78167">
        <ele>1130.4</ele>
        <time>2024-02-16T09:19:37.790Z</time>
      </trkpt>
      <trkpt lat="42.91934" lon="0.7816">
        <ele>1132.41</ele>
        <time>2024-02-16T09:19:43.668Z</time>
      </trkpt>
      <trkpt lat="42.91929" lon="0.78156">
        <ele>1134.34</ele>
        <time>2024-02-16T09:19:49.548Z</time>
      </trkpt>
      <trkpt lat="42.91928" lon="0.78149">
        <ele>1136.29</ele>
        <time>2024-02-16T09:19:55.430Z</time>
      </trkpt>
      <trkpt lat="42.91931" lon="0.78142">
        <ele>1138.23</ele>
        <time>2024-02-16T09:20:01.314Z</time>
      </trkpt>
      <trkpt lat="42.91935" lon="0.78141">
        <ele>1140.11</ele>
        <time>2024-02-16T09:20:07.199Z</time>
      </trkpt>
      <trkpt lat="42.91939" lon="0.78142">
        <ele>1141.96</ele>
        <time>2024-02-16T09:20:13.085Z</time>
      </trkpt>
      <trkpt lat="42.91967" lon="0.78168">
        <ele>1143.7</ele>
        <time>2024-02-16T09:20:18.983Z</time>
      </trkpt>
      <trkpt lat="42.9199" lon="0.78199">
        <ele>1145.44</ele>
        <time>2024-02-16T09:20:24.892Z</time>
      </trkpt>
      <trkpt lat="42.92035" lon="0.7825">
        <ele>1147.66</ele>
        <time>2024-02-16T09:20:30.820Z</time>
      </trkpt>
      <trkpt lat="42.92039" lon="0.78252">
        <ele>1149.51</ele>
        <time>2024-02-16T09:20:36.749Z</time>
      </trkpt>
      <trkpt lat="42.92044" lon="0.78251">
        <ele>1151.45</ele>
        <time>2024-02-16T09:20:42.680Z</time>
      </trkpt>
      <trkpt lat="42.92048" lon="0.78245">
        <ele>1153.46</ele>
        <time>2024-02-16T09:20:48.613Z</time>
      </trkpt>
      <trkpt lat="42.92048" lon="0.78241">
        <ele>1155.32</ele>
        <time>2024-02-16T09:20:54.547Z</time>
      </trkpt>
      <trkpt lat="42.92043" lon="0.78234">
        <ele>1157.13</ele>
        <time>2024-02-16T09:21:00.484Z</time>
      </trkpt>
      <trkpt lat="42.9203" lon="0.78224">
        <ele>1158.68</ele>
        <time>2024-02-16T09:21:06.426Z</time>
      </trkpt>
      <trkpt lat="42.92017" lon="0.7821">
        <ele>1160.27</ele>
        <time>2024-02-16T09:21:12.373Z</time>
      </trkpt>
      <trkpt lat="42.91983" lon="0.7814">
        <ele>1162.19</ele>
        <time>2024-02-16T09:21:18.341Z</time>
      </trkpt>
      <trkpt lat="42.91932" lon="0.78057">
        <ele>1164.13</ele>
        <time>2024-02-16T09:21:24.335Z</time>
      </trkpt>
      <trkpt lat="42.91926" lon="0.78044">
        <ele>1165.78</ele>
        <time>2024-02-16T09:21:30.333Z</time>
      </trkpt>
      <trkpt lat="42.91912" lon="0.77996">
        <ele>1167.43</ele>
        <time>2024-02-16T09:21:36.343Z</time>
      </trkpt>
      <trkpt lat="42.91901" lon="0.77971">
        <ele>1168.96</ele>
        <time>2024-02-16T09:21:42.361Z</time>
      </trkpt>
      <trkpt lat="42.91892" lon="0.7794">
        <ele>1170.62</ele>
        <time>2024-02-16T09:21:48.387Z</time>
      </trkpt>
      <trkpt lat="42.91882" lon="0.77921">
        <ele>1172.21</ele>
        <time>2024-02-16T09:21:54.418Z</time>
      </trkpt>
      <trkpt lat="42.91866" lon="0.77907">
        <ele>1173.86</ele>
        <time>2024-02-16T09:22:00.456Z</time>
      </trkpt>
      <trkpt lat="42.91856" lon="0.77902">
        <ele>1175.32</ele>
        <time>2024-02-16T09:22:06.497Z</time>
      </trkpt>
      <trkpt lat="42.91828" lon="0.77891">
        <ele>1176.88</ele>
        <time>2024-02-16T09:22:12.548Z</time>
      </trkpt>
      <trkpt lat="42.91825" lon="0.77888">
        <ele>1178.11</ele>
        <time>2024-02-16T09:22:18.600Z</time>
      </trkpt>
      <trkpt lat="42.91824" lon="0.77883">
        <ele>1179.27</ele>
        <time>2024-02-16T09:22:24.654Z</time>
      </trkpt>
      <trkpt lat="42.91824" lon="0.77878">
        <ele>1180.35</ele>
        <time>2024-02-16T09:22:30.709Z</time>
      </trkpt>
      <trkpt lat="42.91827" lon="0.77873">
        <ele>1181.38</ele>
        <time>2024-02-16T09:22:36.765Z</time>
      </trkpt>
      <trkpt lat="42.91831" lon="0.77872">
        <ele>1182.33</ele>
        <time>2024-02-16T09:22:42.822Z</time>
      </trkpt>
      <trkpt lat="42.91852" lon="0.77878">
        <ele>1183.09</ele>
        <time>2024-02-16T09:22:48.887Z</time>
      </trkpt>
      <trkpt lat="42.91873" lon="0.77877">
        <ele>1184</ele>
        <time>2024-02-16T09:22:54.959Z</time>
      </trkpt>
      <trkpt lat="42.9188" lon="0.7788">
        <ele>1184.85</ele>
        <time>2024-02-16T09:23:01.033Z</time>
      </trkpt>
      <trkpt lat="42.91892" lon="0.77891">
        <ele>1185.55</ele>
        <time>2024-02-16T09:23:07.112Z</time>
      </trkpt>
      <trkpt lat="42.91898" lon="0.77895">
        <ele>1186.4</ele>
        <time>2024-02-16T09:23:13.193Z</time>
      </trkpt>
      <trkpt lat="42.91903" lon="0.77892">
        <ele>1187.42</ele>
        <time>2024-02-16T09:23:19.276Z</time>
      </trkpt>
      <trkpt lat="42.91905" lon="0.77884">
        <ele>1188.58</ele>
        <time>2024-02-16T09:23:25.361Z</time>
      </trkpt>
      <trkpt lat="42.91902" lon="0.7788">
        <ele>1189.67</ele>
        <time>2024-02-16T09:23:31.448Z</time>
      </trkpt>
      <trkpt lat="42.91843" lon="0.77816">
        <ele>1190.95</ele>
        <time>2024-02-16T09:23:37.560Z</time>
      </trkpt>
      <trkpt lat="42.91814" lon="0.77792">
        <ele>1192.45</ele>
        <time>2024-02-16T09:23:43.683Z</time>
      </trkpt>
      <trkpt lat="42.91812" lon="0.77782">
        <ele>1193.77</ele>
        <time>2024-02-16T09:23:49.808Z</time>
      </trkpt>
      <trkpt lat="42.91814" lon="0.77778">
        <ele>1195.01</ele>
        <time>2024-02-16T09:23:55.935Z</time>
      </trkpt>
      <trkpt lat="42.91818" lon="0.77775">
        <ele>1196.26</ele>
        <time>2024-02-16T09:24:02.063Z</time>
      </trkpt>
      <trkpt lat="42.9185" lon="0.77787">
        <ele>1197.33</ele>
        <time>2024-02-16T09:24:08.202Z</time>
      </trkpt>
      <trkpt lat="42.91879" lon="0.77789">
        <ele>1199.12</ele>
        <time>2024-02-16T09:24:14.351Z</time>
      </trkpt>
      <trkpt lat="42.91886" lon="0.77793">
        <ele>1200.74</ele>
        <time>2024-02-16T09:24:20.502Z</time>
      </trkpt>
      <trkpt lat="42.91895" lon="0.778">
        <ele>1202.41</ele>
        <time>2024-02-16T09:24:26.657Z</time>
      </trkpt>
      <trkpt lat="42.91908" lon="0.77817">
        <ele>1204.18</ele>
        <time>2024-02-16T09:24:32.818Z</time>
      </trkpt>
      <trkpt lat="42.91942" lon="0.77872">
        <ele>1205.89</ele>
        <time>2024-02-16T09:24:38.996Z</time>
      </trkpt>
      <trkpt lat="42.91955" lon="0.77898">
        <ele>1207.51</ele>
        <time>2024-02-16T09:24:45.182Z</time>
      </trkpt>
      <trkpt lat="42.91974" lon="0.77946">
        <ele>1209.2</ele>
        <time>2024-02-16T09:24:51.381Z</time>
      </trkpt>
      <trkpt lat="42.91981" lon="0.77948">
        <ele>1211.26</ele>
        <time>2024-02-16T09:24:57.583Z</time>
      </trkpt>
      <trkpt lat="42.91985" lon="0.77945">
        <ele>1213.47</ele>
        <time>2024-02-16T09:25:03.786Z</time>
      </trkpt>
      <trkpt lat="42.91987" lon="0.77936">
        <ele>1215.78</ele>
        <time>2024-02-16T09:25:09.992Z</time>
      </trkpt>
      <trkpt lat="42.91985" lon="0.77931">
        <ele>1217.84</ele>
        <time>2024-02-16T09:25:16.199Z</time>
      </trkpt>
      <trkpt lat="42.9196" lon="0.77882">
        <ele>1219.76</ele>
        <time>2024-02-16T09:25:22.421Z</time>
      </trkpt>
      <trkpt lat="42.91954" lon="0.77866">
        <ele>1221.87</ele>
        <time>2024-02-16T09:25:28.647Z</time>
      </trkpt>
      <trkpt lat="42.91943" lon="0.77818">
        <ele>1224.34</ele>
        <time>2024-02-16T09:25:34.885Z</time>
      </trkpt>
      <trkpt lat="42.91916" lon="0.77723">
        <ele>1226.84</ele>
        <time>2024-02-16T09:25:41.148Z</time>
      </trkpt>
      <trkpt lat="42.91908" lon="0.77701">
        <ele>1229.12</ele>
        <time>2024-02-16T09:25:47.417Z</time>
      </trkpt>
      <trkpt lat="42.91892" lon="0.77677">
        <ele>1231.26</ele>
        <time>2024-02-16T09:25:53.694Z</time>
      </trkpt>
      <trkpt lat="42.91868" lon="0.77624">
        <ele>1233.73</ele>
        <time>2024-02-16T09:25:59.986Z</time>
      </trkpt>
      <trkpt lat="42.91862" lon="0.77618">
        <ele>1235.8</ele>
        <time>2024-02-16T09:26:06.281Z</time>
      </trkpt>
      <trkpt lat="42.91857" lon="0.77615">
        <ele>1237.82</ele>
        <time>2024-02-16T09:26:12.578Z</time>
      </trkpt>
      <trkpt lat="42.91824" lon="0.77609">
        <ele>1239.86</ele>
        <time>2024-02-16T09:26:18.886Z</time>
      </trkpt>
      <trkpt lat="42.91821" lon="0.77606">
        <ele>1241.83</ele>
        <time>2024-02-16T09:26:25.195Z</time>
      </trkpt>
      <trkpt lat="42.91819" lon="0.77602">
        <ele>1243.79</ele>
        <time>2024-02-16T09:26:31.505Z</time>
      </trkpt>
      <trkpt lat="42.9182" lon="0.77591">
        <ele>1245.81</ele>
        <time>2024-02-16T09:26:37.818Z</time>
      </trkpt>
      <trkpt lat="42.91827" lon="0.77586">
        <ele>1247.76</ele>
        <time>2024-02-16T09:26:44.134Z</time>
      </trkpt>
      <trkpt lat="42.91834" lon="0.77583">
        <ele>1249.67</ele>
        <time>2024-02-16T09:26:50.452Z</time>
      </trkpt>
      <trkpt lat="42.91864" lon="0.77589">
        <ele>1251.45</ele>
        <time>2024-02-16T09:26:56.780Z</time>
      </trkpt>
      <trkpt lat="42.91901" lon="0.77602">
        <ele>1253.19</ele>
        <time>2024-02-16T09:27:03.121Z</time>
      </trkpt>
      <trkpt lat="42.9191" lon="0.776">
        <ele>1255.2</ele>
        <time>2024-02-16T09:27:09.465Z</time>
      </trkpt>
      <trkpt lat="42.91913" lon="0.77595">
        <ele>1257.19</ele>
        <time>2024-02-16T09:27:15.811Z</time>
      </trkpt>
      <trkpt lat="42.91915" lon="0.77589">
        <ele>1259.25</ele>
        <time>2024-02-16T09:27:22.158Z</time>
      </trkpt>
      <trkpt lat="42.91915" lon="0.77589">
        <ele>1261.33</ele>
        <time>2024-02-16T09:27:28.505Z</time>
      </trkpt>
      <trkpt lat="42.91887" lon="0.77482">
        <ele>1264.19</ele>
        <time>2024-02-16T09:27:34.880Z</time>
      </trkpt>
      <trkpt lat="42.91887" lon="0.77482">
        <ele>1266.39</ele>
        <time>2024-02-16T09:27:41.255Z</time>
      </trkpt>
      <trkpt lat="42.91886" lon="0.77462">
        <ele>1268.82</ele>
        <time>2024-02-16T09:27:47.635Z</time>
      </trkpt>
      <trkpt lat="42.91887" lon="0.77451">
        <ele>1271.2</ele>
        <time>2024-02-16T09:27:54.018Z</time>
      </trkpt>
      <trkpt lat="42.919" lon="0.77395">
        <ele>1273.9</ele>
        <time>2024-02-16T09:28:00.415Z</time>
      </trkpt>
      <trkpt lat="42.91907" lon="0.7736">
        <ele>1276.45</ele>
        <time>2024-02-16T09:28:06.821Z</time>
      </trkpt>
      <trkpt lat="42.91907" lon="0.77343">
        <ele>1279.04</ele>
        <time>2024-02-16T09:28:13.231Z</time>
      </trkpt>
      <trkpt lat="42.91906" lon="0.77328">
        <ele>1281.55</ele>
        <time>2024-02-16T09:28:19.645Z</time>
      </trkpt>
      <trkpt lat="42.91897" lon="0.77294">
        <ele>1284.17</ele>
        <time>2024-02-16T09:28:26.068Z</time>
      </trkpt>
      <trkpt lat="42.91892" lon="0.7728">
        <ele>1286.81</ele>
        <time>2024-02-16T09:28:32.495Z</time>
      </trkpt>
      <trkpt lat="42.91872" lon="0.77247">
        <ele>1289.59</ele>
        <time>2024-02-16T09:28:38.932Z</time>
      </trkpt>
      <trkpt lat="42.91843" lon="0.7721">
        <ele>1292.58</ele>
        <time>2024-02-16T09:28:45.382Z</time>
      </trkpt>
      <trkpt lat="42.91835" lon="0.77196">
        <ele>1295.51</ele>
        <time>2024-02-16T09:28:51.836Z</time>
      </trkpt>
      <trkpt lat="42.91827" lon="0.77174">
        <ele>1298.49</ele>
        <time>2024-02-16T09:28:58.297Z</time>
      </trkpt>
      <trkpt lat="42.91824" lon="0.7716">
        <ele>1301.36</ele>
        <time>2024-02-16T09:29:04.761Z</time>
      </trkpt>
      <trkpt lat="42.91824" lon="0.77147">
        <ele>1304.18</ele>
        <time>2024-02-16T09:29:11.228Z</time>
      </trkpt>
      <trkpt lat="42.91827" lon="0.77098">
        <ele>1306.94</ele>
        <time>2024-02-16T09:29:17.707Z</time>
      </trkpt>
      <trkpt lat="42.91826" lon="0.77045">
        <ele>1309.9</ele>
        <time>2024-02-16T09:29:24.199Z</time>
      </trkpt>
      <trkpt lat="42.91821" lon="0.77008">
        <ele>1312.96</ele>
        <time>2024-02-16T09:29:30.700Z</time>
      </trkpt>
      <trkpt lat="42.91816" lon="0.76986">
        <ele>1316.03</ele>
        <time>2024-02-16T09:29:37.207Z</time>
      </trkpt>
      <trkpt lat="42.91813" lon="0.76974">
        <ele>1318.88</ele>
        <time>2024-02-16T09:29:43.717Z</time>
      </trkpt>
      <trkpt lat="42.91814" lon="0.76964">
        <ele>1321.63</ele>
        <time>2024-02-16T09:29:50.230Z</time>
      </trkpt>
      <trkpt lat="42.91824" lon="0.76943">
        <ele>1324.33</ele>
        <time>2024-02-16T09:29:56.749Z</time>
      </trkpt>
      <trkpt lat="42.91838" lon="0.76928">
        <ele>1326.93</ele>
        <time>2024-02-16T09:30:03.274Z</time>
      </trkpt>
      <trkpt lat="42.91853" lon="0.76915">
        <ele>1329.46</ele>
        <time>2024-02-16T09:30:09.805Z</time>
      </trkpt>
      <trkpt lat="42.91876" lon="0.76901">
        <ele>1331.81</ele>
        <time>2024-02-16T09:30:16.344Z</time>
      </trkpt>
      <trkpt lat="42.91885" lon="0.76892">
        <ele>1334.12</ele>
        <time>2024-02-16T09:30:22.887Z</time>
      </trkpt>
      <trkpt lat="42.91891" lon="0.76885">
        <ele>1336.31</ele>
        <time>2024-02-16T09:30:29.432Z</time>
      </trkpt>
      <trkpt lat="42.91901" lon="0.76865">
        <ele>1338.34</ele>
        <time>2024-02-16T09:30:35.983Z</time>
      </trkpt>
      <trkpt lat="42.9191" lon="0.76831">
        <ele>1340.17</ele>
        <time>2024-02-16T09:30:42.543Z</time>
      </trkpt>
      <trkpt lat="42.91912" lon="0.76797">
        <ele>1342.07</ele>
        <time>2024-02-16T09:30:49.111Z</time>
      </trkpt>
      <trkpt lat="42.91902" lon="0.7665">
        <ele>1344.59</ele>
        <time>2024-02-16T09:30:55.716Z</time>
      </trkpt>
      <trkpt lat="42.91902" lon="0.76632">
        <ele>1345.9</ele>
        <time>2024-02-16T09:31:02.325Z</time>
      </trkpt>
      <trkpt lat="42.91911" lon="0.76472">
        <ele>1347.48</ele>
        <time>2024-02-16T09:31:08.973Z</time>
      </trkpt>
      <trkpt lat="42.9192" lon="0.76406">
        <ele>1348.5</ele>
        <time>2024-02-16T09:31:15.638Z</time>
      </trkpt>
      <trkpt lat="42.91922" lon="0.76367">
        <ele>1349.41</ele>
        <time>2024-02-16T09:31:22.312Z</time>
      </trkpt>
      <trkpt lat="42.91922" lon="0.76367">
        <ele>1349.85</ele>
        <time>2024-02-16T09:31:28.986Z</time>
      </trkpt>
      <trkpt lat="42.9194" lon="0.76227">
        <ele>1350.22</ele>
        <time>2024-02-16T09:31:35.695Z</time>
      </trkpt>
      <trkpt lat="42.9194" lon="0.76198">
        <ele>1350.09</ele>
        <time>2024-02-16T09:31:42.411Z</time>
      </trkpt>
      <trkpt lat="42.91935" lon="0.76179">
        <ele>1349.69</ele>
        <time>2024-02-16T09:31:49.132Z</time>
      </trkpt>
      <trkpt lat="42.91927" lon="0.76153">
        <ele>1349.01</ele>
        <time>2024-02-16T09:31:55.860Z</time>
      </trkpt>
      <trkpt lat="42.91927" lon="0.76153">
        <ele>1348.1</ele>
        <time>2024-02-16T09:32:02.588Z</time>
      </trkpt>
      <trkpt lat="42.9192" lon="0.76128">
        <ele>1346.88</ele>
        <time>2024-02-16T09:32:09.323Z</time>
      </trkpt>
      <trkpt lat="42.91901" lon="0.76048">
        <ele>1344.94</ele>
        <time>2024-02-16T09:32:16.078Z</time>
      </trkpt>
      <trkpt lat="42.91899" lon="0.76012">
        <ele>1342.91</ele>
        <time>2024-02-16T09:32:22.842Z</time>
      </trkpt>
      <trkpt lat="42.91902" lon="0.75966">
        <ele>1340.87</ele>
        <time>2024-02-16T09:32:29.617Z</time>
      </trkpt>
      <trkpt lat="42.91908" lon="0.75928">
        <ele>1338.96</ele>
        <time>2024-02-16T09:32:36.402Z</time>
      </trkpt>
      <trkpt lat="42.91908" lon="0.75905">
        <ele>1337.05</ele>
        <time>2024-02-16T09:32:43.192Z</time>
      </trkpt>
      <trkpt lat="42.91905" lon="0.75897">
        <ele>1334.79</ele>
        <time>2024-02-16T09:32:49.985Z</time>
      </trkpt>
      <trkpt lat="42.91873" lon="0.75851">
        <ele>1331.83</ele>
        <time>2024-02-16T09:32:56.793Z</time>
      </trkpt>
      <trkpt lat="42.91868" lon="0.75839">
        <ele>1329.29</ele>
        <time>2024-02-16T09:33:03.604Z</time>
      </trkpt>
      <trkpt lat="42.91856" lon="0.75797">
        <ele>1326.81</ele>
        <time>2024-02-16T09:33:10.426Z</time>
      </trkpt>
      <trkpt lat="42.9185" lon="0.75785">
        <ele>1324.25</ele>
        <time>2024-02-16T09:33:17.252Z</time>
      </trkpt>
      <trkpt lat="42.91834" lon="0.75762">
        <ele>1321.91</ele>
        <time>2024-02-16T09:33:24.086Z</time>
      </trkpt>
      <trkpt lat="42.91803" lon="0.75723">
        <ele>1318.69</ele>
        <time>2024-02-16T09:33:30.934Z</time>
      </trkpt>
      <trkpt lat="42.91793" lon="0.75707">
        <ele>1315.84</ele>
        <time>2024-02-16T09:33:37.787Z</time>
      </trkpt>
      <trkpt lat="42.91788" lon="0.75695">
        <ele>1313.21</ele>
        <time>2024-02-16T09:33:44.643Z</time>
      </trkpt>
      <trkpt lat="42.91781" lon="0.75672">
        <ele>1310.66</ele>
        <time>2024-02-16T09:33:51.506Z</time>
      </trkpt>
      <trkpt lat="42.91774" lon="0.75667">
        <ele>1308.11</ele>
        <time>2024-02-16T09:33:58.371Z</time>
      </trkpt>
      <trkpt lat="42.91767" lon="0.75673">
        <ele>1305.7</ele>
        <time>2024-02-16T09:34:05.239Z</time>
      </trkpt>
      <trkpt lat="42.91766" lon="0.75679">
        <ele>1303.61</ele>
        <time>2024-02-16T09:34:12.108Z</time>
      </trkpt>
      <trkpt lat="42.91767" lon="0.75687">
        <ele>1301.73</ele>
        <time>2024-02-16T09:34:18.979Z</time>
      </trkpt>
      <trkpt lat="42.91772" lon="0.75698">
        <ele>1300.08</ele>
        <time>2024-02-16T09:34:25.854Z</time>
      </trkpt>
      <trkpt lat="42.91798" lon="0.75751">
        <ele>1299.31</ele>
        <time>2024-02-16T09:34:32.744Z</time>
      </trkpt>
      <trkpt lat="42.91812" lon="0.75788">
        <ele>1297.64</ele>
        <time>2024-02-16T09:34:39.645Z</time>
      </trkpt>
      <trkpt lat="42.91816" lon="0.75812">
        <ele>1295.77</ele>
        <time>2024-02-16T09:34:46.551Z</time>
      </trkpt>
      <trkpt lat="42.91814" lon="0.75831">
        <ele>1294.01</ele>
        <time>2024-02-16T09:34:53.462Z</time>
      </trkpt>
      <trkpt lat="42.91816" lon="0.75854">
        <ele>1292.46</ele>
        <time>2024-02-16T09:35:00.379Z</time>
      </trkpt>
      <trkpt lat="42.91826" lon="0.75909">
        <ele>1291.44</ele>
        <time>2024-02-16T09:35:07.310Z</time>
      </trkpt>
      <trkpt lat="42.91823" lon="0.75919">
        <ele>1290.33</ele>
        <time>2024-02-16T09:35:14.243Z</time>
      </trkpt>
      <trkpt lat="42.91817" lon="0.75923">
        <ele>1289.15</ele>
        <time>2024-02-16T09:35:21.179Z</time>
      </trkpt>
      <trkpt lat="42.91813" lon="0.75922">
        <ele>1287.99</ele>
        <time>2024-02-16T09:35:28.116Z</time>
      </trkpt>
      <trkpt lat="42.91806" lon="0.75912">
        <ele>1286.69</ele>
        <time>2024-02-16T09:35:35.056Z</time>
      </trkpt>
      <trkpt lat="42.91805" lon="0.75905">
        <ele>1285.52</ele>
        <time>2024-02-16T09:35:41.998Z</time>
      </trkpt>
      <trkpt lat="42.91804" lon="0.7587">
        <ele>1284.16</ele>
        <time>2024-02-16T09:35:48.949Z</time>
      </trkpt>
      <trkpt lat="42.9179" lon="0.75813">
        <ele>1283.13</ele>
        <time>2024-02-16T09:35:55.914Z</time>
      </trkpt>
      <trkpt lat="42.91774" lon="0.75752">
        <ele>1282.31</ele>
        <time>2024-02-16T09:36:02.895Z</time>
      </trkpt>
      <trkpt lat="42.91767" lon="0.75747">
        <ele>1281.06</ele>
        <time>2024-02-16T09:36:09.879Z</time>
      </trkpt>
      <trkpt lat="42.91764" lon="0.75746">
        <ele>1279.92</ele>
        <time>2024-02-16T09:36:16.864Z</time>
      </trkpt>
      <trkpt lat="42.91759" lon="0.75749">
        <ele>1278.7</ele>
        <time>2024-02-16T09:36:23.851Z</time>
      </trkpt>
      <trkpt lat="42.91758" lon="0.75752">
        <ele>1277.62</ele>
        <time>2024-02-16T09:36:30.839Z</time>
      </trkpt>
      <trkpt lat="42.91757" lon="0.7576">
        <ele>1276.49</ele>
        <time>2024-02-16T09:36:37.828Z</time>
      </trkpt>
      <trkpt lat="42.91767" lon="0.7579">
        <ele>1275.35</ele>
        <time>2024-02-16T09:36:44.826Z</time>
      </trkpt>
      <trkpt lat="42.91776" lon="0.7584">
        <ele>1274.32</ele>
        <time>2024-02-16T09:36:51.836Z</time>
      </trkpt>
      <trkpt lat="42.91775" lon="0.75845">
        <ele>1273.22</ele>
        <time>2024-02-16T09:36:58.848Z</time>
      </trkpt>
      <trkpt lat="42.91773" lon="0.75852">
        <ele>1272.09</ele>
        <time>2024-02-16T09:37:05.861Z</time>
      </trkpt>
      <trkpt lat="42.9177" lon="0.75855">
        <ele>1270.99</ele>
        <time>2024-02-16T09:37:12.875Z</time>
      </trkpt>
      <trkpt lat="42.91762" lon="0.75854">
        <ele>1269.76</ele>
        <time>2024-02-16T09:37:19.892Z</time>
      </trkpt>
      <trkpt lat="42.91755" lon="0.75846">
        <ele>1268.41</ele>
        <time>2024-02-16T09:37:26.912Z</time>
      </trkpt>
      <trkpt lat="42.91753" lon="0.7584">
        <ele>1267.1</ele>
        <time>2024-02-16T09:37:33.934Z</time>
      </trkpt>
      <trkpt lat="42.91753" lon="0.75811">
        <ele>1265.83</ele>
        <time>2024-02-16T09:37:40.963Z</time>
      </trkpt>
      <trkpt lat="42.91751" lon="0.75798">
        <ele>1264.55</ele>
        <time>2024-02-16T09:37:47.995Z</time>
      </trkpt>
      <trkpt lat="42.91747" lon="0.75786">
        <ele>1263.23</ele>
        <time>2024-02-16T09:37:55.030Z</time>
      </trkpt>
      <trkpt lat="42.91719" lon="0.75738">
        <ele>1261.57</ele>
        <time>2024-02-16T09:38:02.081Z</time>
      </trkpt>
      <trkpt lat="42.91706" lon="0.75712">
        <ele>1260.01</ele>
        <time>2024-02-16T09:38:09.139Z</time>
      </trkpt>
      <trkpt lat="42.917" lon="0.75695">
        <ele>1258.58</ele>
        <time>2024-02-16T09:38:16.202Z</time>
      </trkpt>
      <trkpt lat="42.91694" lon="0.75674">
        <ele>1257.21</ele>
        <time>2024-02-16T09:38:23.270Z</time>
      </trkpt>
      <trkpt lat="42.91694" lon="0.75661">
        <ele>1255.96</ele>
        <time>2024-02-16T09:38:30.342Z</time>
      </trkpt>
      <trkpt lat="42.91699" lon="0.75626">
        <ele>1254.96</ele>
        <time>2024-02-16T09:38:37.422Z</time>
      </trkpt>
      <trkpt lat="42.91699" lon="0.7562">
        <ele>1253.68</ele>
        <time>2024-02-16T09:38:44.504Z</time>
      </trkpt>
      <trkpt lat="42.91693" lon="0.75611">
        <ele>1252.25</ele>
        <time>2024-02-16T09:38:51.588Z</time>
      </trkpt>
      <trkpt lat="42.91687" lon="0.75609">
        <ele>1250.79</ele>
        <time>2024-02-16T09:38:58.675Z</time>
      </trkpt>
      <trkpt lat="42.91684" lon="0.7561">
        <ele>1249.44</ele>
        <time>2024-02-16T09:39:05.763Z</time>
      </trkpt>
      <trkpt lat="42.91681" lon="0.75614">
        <ele>1248.12</ele>
        <time>2024-02-16T09:39:12.852Z</time>
      </trkpt>
      <trkpt lat="42.9168" lon="0.75622">
        <ele>1246.84</ele>
        <time>2024-02-16T09:39:19.943Z</time>
      </trkpt>
      <trkpt lat="42.9168" lon="0.75698">
        <ele>1245.51</ele>
        <time>2024-02-16T09:39:27.053Z</time>
      </trkpt>
      <trkpt lat="42.91686" lon="0.75731">
        <ele>1244.45</ele>
        <time>2024-02-16T09:39:34.171Z</time>
      </trkpt>
      <trkpt lat="42.91687" lon="0.75743">
        <ele>1243.23</ele>
        <time>2024-02-16T09:39:41.292Z</time>
      </trkpt>
      <trkpt lat="42.91682" lon="0.75755">
        <ele>1241.88</ele>
        <time>2024-02-16T09:39:48.416Z</time>
      </trkpt>
      <trkpt lat="42.91671" lon="0.75763">
        <ele>1240.44</ele>
        <time>2024-02-16T09:39:55.544Z</time>
      </trkpt>
      <trkpt lat="42.91656" lon="0.75765">
        <ele>1238.96</ele>
        <time>2024-02-16T09:40:02.677Z</time>
      </trkpt>
      <trkpt lat="42.91646" lon="0.75765">
        <ele>1237.53</ele>
        <time>2024-02-16T09:40:09.814Z</time>
      </trkpt>
      <trkpt lat="42.91627" lon="0.75757">
        <ele>1236.1</ele>
        <time>2024-02-16T09:40:16.957Z</time>
      </trkpt>
      <trkpt lat="42.91616" lon="0.75752">
        <ele>1234.58</ele>
        <time>2024-02-16T09:40:24.104Z</time>
      </trkpt>
      <trkpt lat="42.91596" lon="0.75734">
        <ele>1232.91</ele>
        <time>2024-02-16T09:40:31.259Z</time>
      </trkpt>
      <trkpt lat="42.91585" lon="0.7572">
        <ele>1231.13</ele>
        <time>2024-02-16T09:40:38.419Z</time>
      </trkpt>
      <trkpt lat="42.91563" lon="0.75686">
        <ele>1228.98</ele>
        <time>2024-02-16T09:40:45.590Z</time>
      </trkpt>
      <trkpt lat="42.91548" lon="0.75666">
        <ele>1226.93</ele>
        <time>2024-02-16T09:40:52.768Z</time>
      </trkpt>
      <trkpt lat="42.91542" lon="0.75661">
        <ele>1225.21</ele>
        <time>2024-02-16T09:40:59.949Z</time>
      </trkpt>
      <trkpt lat="42.91534" lon="0.75659">
        <ele>1223.55</ele>
        <time>2024-02-16T09:41:07.132Z</time>
      </trkpt>
      <trkpt lat="42.91528" lon="0.75659">
        <ele>1221.97</ele>
        <time>2024-02-16T09:41:14.317Z</time>
      </trkpt>
      <trkpt lat="42.91516" lon="0.75665">
        <ele>1220.38</ele>
        <time>2024-02-16T09:41:21.507Z</time>
      </trkpt>
      <trkpt lat="42.9151" lon="0.75674">
        <ele>1218.86</ele>
        <time>2024-02-16T09:41:28.700Z</time>
      </trkpt>
      <trkpt lat="42.91485" lon="0.75725">
        <ele>1217.58</ele>
        <time>2024-02-16T09:41:35.908Z</time>
      </trkpt>
      <trkpt lat="42.91481" lon="0.75728">
        <ele>1216.06</ele>
        <time>2024-02-16T09:41:43.117Z</time>
      </trkpt>
      <trkpt lat="42.91475" lon="0.75731">
        <ele>1214.53</ele>
        <time>2024-02-16T09:41:50.328Z</time>
      </trkpt>
      <trkpt lat="42.9147" lon="0.75725">
        <ele>1212.96</ele>
        <time>2024-02-16T09:41:57.541Z</time>
      </trkpt>
      <trkpt lat="42.91469" lon="0.75714">
        <ele>1211.45</ele>
        <time>2024-02-16T09:42:04.757Z</time>
      </trkpt>
      <trkpt lat="42.91473" lon="0.75704">
        <ele>1210.01</ele>
        <time>2024-02-16T09:42:11.976Z</time>
      </trkpt>
      <trkpt lat="42.91479" lon="0.75689">
        <ele>1208.53</ele>
        <time>2024-02-16T09:42:19.199Z</time>
      </trkpt>
      <trkpt lat="42.91482" lon="0.75678">
        <ele>1207.12</ele>
        <time>2024-02-16T09:42:26.425Z</time>
      </trkpt>
      <trkpt lat="42.91486" lon="0.75632">
        <ele>1205.52</ele>
        <time>2024-02-16T09:42:33.662Z</time>
      </trkpt>
      <trkpt lat="42.91493" lon="0.75602">
        <ele>1204.2</ele>
        <time>2024-02-16T09:42:40.907Z</time>
      </trkpt>
      <trkpt lat="42.91493" lon="0.75596">
        <ele>1202.93</ele>
        <time>2024-02-16T09:42:48.153Z</time>
      </trkpt>
      <trkpt lat="42.91488" lon="0.75589">
        <ele>1201.64</ele>
        <time>2024-02-16T09:42:55.402Z</time>
      </trkpt>
      <trkpt lat="42.91481" lon="0.75588">
        <ele>1200.32</ele>
        <time>2024-02-16T09:43:02.653Z</time>
      </trkpt>
      <trkpt lat="42.91478" lon="0.75591">
        <ele>1199.08</ele>
        <time>2024-02-16T09:43:09.906Z</time>
      </trkpt>
      <trkpt lat="42.91471" lon="0.75604">
        <ele>1197.82</ele>
        <time>2024-02-16T09:43:17.162Z</time>
      </trkpt>
      <trkpt lat="42.91471" lon="0.75604">
        <ele>1196.68</ele>
        <time>2024-02-16T09:43:24.418Z</time>
      </trkpt>
      <trkpt lat="42.9146" lon="0.75624">
        <ele>1195.49</ele>
        <time>2024-02-16T09:43:31.681Z</time>
      </trkpt>
      <trkpt lat="42.91448" lon="0.75645">
        <ele>1194.38</ele>
        <time>2024-02-16T09:43:38.950Z</time>
      </trkpt>
      <trkpt lat="42.91422" lon="0.75676">
        <ele>1193.34</ele>
        <time>2024-02-16T09:43:46.231Z</time>
      </trkpt>
      <trkpt lat="42.91416" lon="0.7568">
        <ele>1192.26</ele>
        <time>2024-02-16T09:43:53.514Z</time>
      </trkpt>
      <trkpt lat="42.91408" lon="0.75682">
        <ele>1191.16</ele>
        <time>2024-02-16T09:44:00.800Z</time>
      </trkpt>
      <trkpt lat="42.91401" lon="0.75676">
        <ele>1189.97</ele>
        <time>2024-02-16T09:44:08.088Z</time>
      </trkpt>
      <trkpt lat="42.914" lon="0.7567">
        <ele>1188.78</ele>
        <time>2024-02-16T09:44:15.378Z</time>
      </trkpt>
      <trkpt lat="42.91402" lon="0.7566">
        <ele>1187.55</ele>
        <time>2024-02-16T09:44:22.670Z</time>
      </trkpt>
      <trkpt lat="42.91413" lon="0.75638">
        <ele>1186.21</ele>
        <time>2024-02-16T09:44:29.969Z</time>
      </trkpt>
      <trkpt lat="42.91422" lon="0.75614">
        <ele>1184.85</ele>
        <time>2024-02-16T09:44:37.274Z</time>
      </trkpt>
      <trkpt lat="42.91429" lon="0.75585">
        <ele>1183.57</ele>
        <time>2024-02-16T09:44:44.587Z</time>
      </trkpt>
      <trkpt lat="42.9144" lon="0.75517">
        <ele>1182.31</ele>
        <time>2024-02-16T09:44:51.917Z</time>
      </trkpt>
      <trkpt lat="42.91446" lon="0.75487">
        <ele>1181.03</ele>
        <time>2024-02-16T09:44:59.254Z</time>
      </trkpt>
      <trkpt lat="42.91451" lon="0.7548">
        <ele>1179.85</ele>
        <time>2024-02-16T09:45:06.594Z</time>
      </trkpt>
      <trkpt lat="42.91465" lon="0.75461">
        <ele>1178.72</ele>
        <time>2024-02-16T09:45:13.940Z</time>
      </trkpt>
      <trkpt lat="42.91466" lon="0.75452">
        <ele>1177.45</ele>
        <time>2024-02-16T09:45:21.289Z</time>
      </trkpt>
      <trkpt lat="42.9146" lon="0.75446">
        <ele>1176.17</ele>
        <time>2024-02-16T09:45:28.640Z</time>
      </trkpt>
      <trkpt lat="42.91457" lon="0.75445">
        <ele>1174.92</ele>
        <time>2024-02-16T09:45:35.992Z</time>
      </trkpt>
      <trkpt lat="42.91453" lon="0.75447">
        <ele>1173.66</ele>
        <time>2024-02-16T09:45:43.345Z</time>
      </trkpt>
      <trkpt lat="42.91442" lon="0.7546">
        <ele>1172.36</ele>
        <time>2024-02-16T09:45:50.703Z</time>
      </trkpt>
      <trkpt lat="42.91404" lon="0.75495">
        <ele>1170.82</ele>
        <time>2024-02-16T09:45:58.077Z</time>
      </trkpt>
      <trkpt lat="42.91384" lon="0.75519">
        <ele>1169.52</ele>
        <time>2024-02-16T09:46:05.459Z</time>
      </trkpt>
      <trkpt lat="42.91377" lon="0.75521">
        <ele>1168.19</ele>
        <time>2024-02-16T09:46:12.844Z</time>
      </trkpt>
      <trkpt lat="42.9137" lon="0.75516">
        <ele>1166.79</ele>
        <time>2024-02-16T09:46:20.232Z</time>
      </trkpt>
      <trkpt lat="42.91369" lon="0.75512">
        <ele>1165.46</ele>
        <time>2024-02-16T09:46:27.621Z</time>
      </trkpt>
      <trkpt lat="42.91371" lon="0.75501">
        <ele>1164.09</ele>
        <time>2024-02-16T09:46:35.012Z</time>
      </trkpt>
      <trkpt lat="42.91393" lon="0.75467">
        <ele>1162.84</ele>
        <time>2024-02-16T09:46:42.414Z</time>
      </trkpt>
      <trkpt lat="42.91402" lon="0.75439">
        <ele>1161.5</ele>
        <time>2024-02-16T09:46:49.824Z</time>
      </trkpt>
      <trkpt lat="42.91405" lon="0.75407">
        <ele>1160.03</ele>
        <time>2024-02-16T09:46:57.242Z</time>
      </trkpt>
      <trkpt lat="42.91405" lon="0.75357">
        <ele>1158.35</ele>
        <time>2024-02-16T09:47:04.672Z</time>
      </trkpt>
      <trkpt lat="42.91409" lon="0.75338">
        <ele>1156.98</ele>
        <time>2024-02-16T09:47:12.107Z</time>
      </trkpt>
      <trkpt lat="42.91421" lon="0.75315">
        <ele>1155.7</ele>
        <time>2024-02-16T09:47:19.549Z</time>
      </trkpt>
      <trkpt lat="42.91421" lon="0.7531">
        <ele>1154.24</ele>
        <time>2024-02-16T09:47:26.992Z</time>
      </trkpt>
      <trkpt lat="42.91419" lon="0.75307">
        <ele>1152.72</ele>
        <time>2024-02-16T09:47:34.436Z</time>
      </trkpt>
      <trkpt lat="42.91413" lon="0.75304">
        <ele>1151.12</ele>
        <time>2024-02-16T09:47:41.882Z</time>
      </trkpt>
      <trkpt lat="42.91408" lon="0.75306">
        <ele>1149.58</ele>
        <time>2024-02-16T09:47:49.330Z</time>
      </trkpt>
      <trkpt lat="42.914" lon="0.75313">
        <ele>1148.05</ele>
        <time>2024-02-16T09:47:56.781Z</time>
      </trkpt>
      <trkpt lat="42.91361" lon="0.75369">
        <ele>1146.26</ele>
        <time>2024-02-16T09:48:04.251Z</time>
      </trkpt>
      <trkpt lat="42.91334" lon="0.75412">
        <ele>1144.73</ele>
        <time>2024-02-16T09:48:11.735Z</time>
      </trkpt>
      <trkpt lat="42.91327" lon="0.75413">
        <ele>1143.11</ele>
        <time>2024-02-16T09:48:19.221Z</time>
      </trkpt>
      <trkpt lat="42.91323" lon="0.75408">
        <ele>1141.44</ele>
        <time>2024-02-16T09:48:26.709Z</time>
      </trkpt>
      <trkpt lat="42.91323" lon="0.75403">
        <ele>1139.8</ele>
        <time>2024-02-16T09:48:34.198Z</time>
      </trkpt>
      <trkpt lat="42.91337" lon="0.75368">
        <ele>1138.05</ele>
        <time>2024-02-16T09:48:41.697Z</time>
      </trkpt>
      <trkpt lat="42.91341" lon="0.75355">
        <ele>1136.29</ele>
        <time>2024-02-16T09:48:49.199Z</time>
      </trkpt>
      <trkpt lat="42.91361" lon="0.75275">
        <ele>1134.03</ele>
        <time>2024-02-16T09:48:56.722Z</time>
      </trkpt>
      <trkpt lat="42.91366" lon="0.75258">
        <ele>1132.24</ele>
        <time>2024-02-16T09:49:04.249Z</time>
      </trkpt>
      <trkpt lat="42.91373" lon="0.75246">
        <ele>1130.49</ele>
        <time>2024-02-16T09:49:11.780Z</time>
      </trkpt>
      <trkpt lat="42.91383" lon="0.75234">
        <ele>1128.71</ele>
        <time>2024-02-16T09:49:19.316Z</time>
      </trkpt>
      <trkpt lat="42.91395" lon="0.75223">
        <ele>1126.83</ele>
        <time>2024-02-16T09:49:26.856Z</time>
      </trkpt>
      <trkpt lat="42.91407" lon="0.75216">
        <ele>1124.96</ele>
        <time>2024-02-16T09:49:34.401Z</time>
      </trkpt>
      <trkpt lat="42.91448" lon="0.75199">
        <ele>1122.95</ele>
        <time>2024-02-16T09:49:41.960Z</time>
      </trkpt>
      <trkpt lat="42.91487" lon="0.75181">
        <ele>1120.58</ele>
        <time>2024-02-16T09:49:49.533Z</time>
      </trkpt>
      <trkpt lat="42.91525" lon="0.75178">
        <ele>1118.24</ele>
        <time>2024-02-16T09:49:57.118Z</time>
      </trkpt>
      <trkpt lat="42.91531" lon="0.75175">
        <ele>1115.84</ele>
        <time>2024-02-16T09:50:04.706Z</time>
      </trkpt>
      <trkpt lat="42.91538" lon="0.75167">
        <ele>1113.31</ele>
        <time>2024-02-16T09:50:12.297Z</time>
      </trkpt>
      <trkpt lat="42.91541" lon="0.75158">
        <ele>1110.72</ele>
        <time>2024-02-16T09:50:19.890Z</time>
      </trkpt>
      <trkpt lat="42.91543" lon="0.75102">
        <ele>1107.62</ele>
        <time>2024-02-16T09:50:27.497Z</time>
      </trkpt>
      <trkpt lat="42.91541" lon="0.7508">
        <ele>1104.74</ele>
        <time>2024-02-16T09:50:35.109Z</time>
      </trkpt>
      <trkpt lat="42.9153" lon="0.7503">
        <ele>1101.73</ele>
        <time>2024-02-16T09:50:42.734Z</time>
      </trkpt>
      <trkpt lat="42.91528" lon="0.75014">
        <ele>1098.84</ele>
        <time>2024-02-16T09:50:50.363Z</time>
      </trkpt>
      <trkpt lat="42.91531" lon="0.74968">
        <ele>1095.92</ele>
        <time>2024-02-16T09:50:58.003Z</time>
      </trkpt>
      <trkpt lat="42.91526" lon="0.74938">
        <ele>1092.63</ele>
        <time>2024-02-16T09:51:05.651Z</time>
      </trkpt>
      <trkpt lat="42.91525" lon="0.74917">
        <ele>1089.53</ele>
        <time>2024-02-16T09:51:13.304Z</time>
      </trkpt>
      <trkpt lat="42.91537" lon="0.74811">
        <ele>1086.14</ele>
        <time>2024-02-16T09:51:20.983Z</time>
      </trkpt>
      <trkpt lat="42.91538" lon="0.74766">
        <ele>1083</ele>
        <time>2024-02-16T09:51:28.673Z</time>
      </trkpt>
      <trkpt lat="42.91544" lon="0.74718">
        <ele>1080.02</ele>
        <time>2024-02-16T09:51:36.375Z</time>
      </trkpt>
      <trkpt lat="42.91545" lon="0.74668">
        <ele>1076.91</ele>
        <time>2024-02-16T09:51:44.089Z</time>
      </trkpt>
      <trkpt lat="42.91559" lon="0.74629">
        <ele>1074.17</ele>
        <time>2024-02-16T09:51:51.814Z</time>
      </trkpt>
      <trkpt lat="42.91561" lon="0.74612">
        <ele>1071.32</ele>
        <time>2024-02-16T09:51:59.543Z</time>
      </trkpt>
      <trkpt lat="42.91555" lon="0.74558">
        <ele>1068.1</ele>
        <time>2024-02-16T09:52:07.286Z</time>
      </trkpt>
      <trkpt lat="42.91555" lon="0.7453">
        <ele>1065.33</ele>
        <time>2024-02-16T09:52:15.036Z</time>
      </trkpt>
      <trkpt lat="42.91557" lon="0.74498">
        <ele>1062.69</ele>
        <time>2024-02-16T09:52:22.793Z</time>
      </trkpt>
      <trkpt lat="42.91558" lon="0.74421">
        <ele>1059.65</ele>
        <time>2024-02-16T09:52:30.569Z</time>
      </trkpt>
      <trkpt lat="42.91562" lon="0.74389">
        <ele>1057.07</ele>
        <time>2024-02-16T09:52:38.353Z</time>
      </trkpt>
      <trkpt lat="42.91561" lon="0.74383">
        <ele>1054.53</ele>
        <time>2024-02-16T09:52:46.139Z</time>
      </trkpt>
      <trkpt lat="42.91559" lon="0.7438">
        <ele>1052.05</ele>
        <time>2024-02-16T09:52:53.926Z</time>
      </trkpt>
      <trkpt lat="42.91555" lon="0.74379">
        <ele>1049.59</ele>
        <time>2024-02-16T09:53:01.714Z</time>
      </trkpt>
      <trkpt lat="42.91549" lon="0.74386">
        <ele>1047.21</ele>
        <time>2024-02-16T09:53:09.505Z</time>
      </trkpt>
      <trkpt lat="42.91543" lon="0.74418">
        <ele>1045.01</ele>
        <time>2024-02-16T09:53:17.304Z</time>
      </trkpt>
      <trkpt lat="42.9153" lon="0.74465">
        <ele>1042.67</ele>
        <time>2024-02-16T09:53:25.115Z</time>
      </trkpt>
      <trkpt lat="42.91511" lon="0.7451">
        <ele>1040.09</ele>
        <time>2024-02-16T09:53:32.939Z</time>
      </trkpt>
      <trkpt lat="42.91507" lon="0.74535">
        <ele>1037.89</ele>
        <time>2024-02-16T09:53:40.769Z</time>
      </trkpt>
      <trkpt lat="42.91505" lon="0.7456">
        <ele>1035.85</ele>
        <time>2024-02-16T09:53:48.605Z</time>
      </trkpt>
      <trkpt lat="42.91504" lon="0.74564">
        <ele>1033.64</ele>
        <time>2024-02-16T09:53:56.443Z</time>
      </trkpt>
      <trkpt lat="42.91502" lon="0.74566">
        <ele>1031.36</ele>
        <time>2024-02-16T09:54:04.281Z</time>
      </trkpt>
      <trkpt lat="42.91495" lon="0.74566">
        <ele>1028.91</ele>
        <time>2024-02-16T09:54:12.122Z</time>
      </trkpt>
      <trkpt lat="42.91492" lon="0.7456">
        <ele>1026.5</ele>
        <time>2024-02-16T09:54:19.965Z</time>
      </trkpt>
      <trkpt lat="42.91489" lon="0.74492">
        <ele>1023.7</ele>
        <time>2024-02-16T09:54:27.824Z</time>
      </trkpt>
      <trkpt lat="42.91489" lon="0.74475">
        <ele>1021.35</ele>
        <time>2024-02-16T09:54:35.688Z</time>
      </trkpt>
      <trkpt lat="42.91501" lon="0.74424">
        <ele>1019.18</ele>
        <time>2024-02-16T09:54:43.565Z</time>
      </trkpt>
      <trkpt lat="42.91507" lon="0.74341">
        <ele>1016.3</ele>
        <time>2024-02-16T09:54:51.462Z</time>
      </trkpt>
      <trkpt lat="42.91516" lon="0.74297">
        <ele>1014</ele>
        <time>2024-02-16T09:54:59.370Z</time>
      </trkpt>
      <trkpt lat="42.91518" lon="0.74276">
        <ele>1011.61</ele>
        <time>2024-02-16T09:55:07.284Z</time>
      </trkpt>
      <trkpt lat="42.91528" lon="0.74229">
        <ele>1009.18</ele>
        <time>2024-02-16T09:55:15.210Z</time>
      </trkpt>
      <trkpt lat="42.91549" lon="0.74175">
        <ele>1007.01</ele>
        <time>2024-02-16T09:55:23.151Z</time>
      </trkpt>
      <trkpt lat="42.91564" lon="0.7416">
        <ele>1004.78</ele>
        <time>2024-02-16T09:55:31.098Z</time>
      </trkpt>
      <trkpt lat="42.91577" lon="0.74154">
        <ele>1002.7</ele>
        <time>2024-02-16T09:55:39.049Z</time>
      </trkpt>
      <trkpt lat="42.91584" lon="0.74149">
        <ele>1000.37</ele>
        <time>2024-02-16T09:55:47.003Z</time>
      </trkpt>
      <trkpt lat="42.91587" lon="0.74142">
        <ele>997.83</ele>
        <time>2024-02-16T09:55:54.959Z</time>
      </trkpt>
      <trkpt lat="42.9159" lon="0.74108">
        <ele>994.97</ele>
        <time>2024-02-16T09:56:02.923Z</time>
      </trkpt>
      <trkpt lat="42.91578" lon="0.74034">
        <ele>992.06</ele>
        <time>2024-02-16T09:56:10.906Z</time>
      </trkpt>
      <trkpt lat="42.91571" lon="0.74004">
        <ele>989.23</ele>
        <time>2024-02-16T09:56:18.897Z</time>
      </trkpt>
      <trkpt lat="42.91571" lon="0.73986">
        <ele>986.77</ele>
        <time>2024-02-16T09:56:26.892Z</time>
      </trkpt>
      <trkpt lat="42.91575" lon="0.73966">
        <ele>984.49</ele>
        <time>2024-02-16T09:56:34.892Z</time>
      </trkpt>
      <trkpt lat="42.91606" lon="0.73889">
        <ele>981.76</ele>
        <time>2024-02-16T09:56:42.914Z</time>
      </trkpt>
      <trkpt lat="42.91621" lon="0.73872">
        <ele>979.96</ele>
        <time>2024-02-16T09:56:50.942Z</time>
      </trkpt>
      <trkpt lat="42.91628" lon="0.73871">
        <ele>978.18</ele>
        <time>2024-02-16T09:56:58.972Z</time>
      </trkpt>
      <trkpt lat="42.91654" lon="0.73874">
        <ele>976.67</ele>
        <time>2024-02-16T09:57:07.011Z</time>
      </trkpt>
      <trkpt lat="42.91693" lon="0.73886">
        <ele>974.54</ele>
        <time>2024-02-16T09:57:15.063Z</time>
      </trkpt>
      <trkpt lat="42.91706" lon="0.73881">
        <ele>972.08</ele>
        <time>2024-02-16T09:57:23.120Z</time>
      </trkpt>
      <trkpt lat="42.91716" lon="0.73871">
        <ele>969.55</ele>
        <time>2024-02-16T09:57:31.181Z</time>
      </trkpt>
      <trkpt lat="42.9172" lon="0.73859">
        <ele>966.82</ele>
        <time>2024-02-16T09:57:39.245Z</time>
      </trkpt>
      <trkpt lat="42.9172" lon="0.73848">
        <ele>963.86</ele>
        <time>2024-02-16T09:57:47.312Z</time>
      </trkpt>
      <trkpt lat="42.91711" lon="0.73818">
        <ele>960.68</ele>
        <time>2024-02-16T09:57:55.387Z</time>
      </trkpt>
      <trkpt lat="42.91679" lon="0.73758">
        <ele>956.6</ele>
        <time>2024-02-16T09:58:03.480Z</time>
      </trkpt>
      <trkpt lat="42.91665" lon="0.73726">
        <ele>952.99</ele>
        <time>2024-02-16T09:58:11.582Z</time>
      </trkpt>
      <trkpt lat="42.91662" lon="0.73712">
        <ele>950.37</ele>
        <time>2024-02-16T09:58:19.688Z</time>
      </trkpt>
      <trkpt lat="42.91663" lon="0.73701">
        <ele>947.79</ele>
        <time>2024-02-16T09:58:27.797Z</time>
      </trkpt>
      <trkpt lat="42.91666" lon="0.7369">
        <ele>945.29</ele>
        <time>2024-02-16T09:58:35.908Z</time>
      </trkpt>
      <trkpt lat="42.91689" lon="0.73662">
        <ele>942.75</ele>
        <time>2024-02-16T09:58:44.030Z</time>
      </trkpt>
      <trkpt lat="42.91695" lon="0.73652">
        <ele>939.73</ele>
        <time>2024-02-16T09:58:52.155Z</time>
      </trkpt>
      <trkpt lat="42.917" lon="0.73638">
        <ele>936.35</ele>
        <time>2024-02-16T09:59:00.283Z</time>
      </trkpt>
      <trkpt lat="42.9171" lon="0.7359">
        <ele>932.58</ele>
        <time>2024-02-16T09:59:08.424Z</time>
      </trkpt>
      <trkpt lat="42.91721" lon="0.73526">
        <ele>928.65</ele>
        <time>2024-02-16T09:59:16.581Z</time>
      </trkpt>
      <trkpt lat="42.91733" lon="0.7347">
        <ele>924.87</ele>
        <time>2024-02-16T09:59:24.752Z</time>
      </trkpt>
      <trkpt lat="42.91752" lon="0.73402">
        <ele>920.96</ele>
        <time>2024-02-16T09:59:32.941Z</time>
      </trkpt>
      <trkpt lat="42.91763" lon="0.73311">
        <ele>916.36</ele>
        <time>2024-02-16T09:59:41.153Z</time>
      </trkpt>
      <trkpt lat="42.91773" lon="0.73285">
        <ele>912.22</ele>
        <time>2024-02-16T09:59:49.372Z</time>
      </trkpt>
      <trkpt lat="42.91782" lon="0.73272">
        <ele>908.21</ele>
        <time>2024-02-16T09:59:57.595Z</time>
      </trkpt>
      <trkpt lat="42.91788" lon="0.73259">
        <ele>903.72</ele>
        <time>2024-02-16T10:00:05.822Z</time>
      </trkpt>
      <trkpt lat="42.91817" lon="0.73088">
        <ele>897.87</ele>
        <time>2024-02-16T10:00:14.092Z</time>
      </trkpt>
      <trkpt lat="42.91835" lon="0.73012">
        <ele>893.61</ele>
        <time>2024-02-16T10:00:22.381Z</time>
      </trkpt>
      <trkpt lat="42.91839" lon="0.72976">
        <ele>888.98</ele>
        <time>2024-02-16T10:00:30.679Z</time>
      </trkpt>
      <trkpt lat="42.91843" lon="0.72955">
        <ele>884.51</ele>
        <time>2024-02-16T10:00:38.983Z</time>
      </trkpt>
      <trkpt lat="42.91881" lon="0.72839">
        <ele>879.19</ele>
        <time>2024-02-16T10:00:47.318Z</time>
      </trkpt>
      <trkpt lat="42.91908" lon="0.72766">
        <ele>875.9</ele>
        <time>2024-02-16T10:00:55.673Z</time>
      </trkpt>
      <trkpt lat="42.91909" lon="0.72757">
        <ele>871.53</ele>
        <time>2024-02-16T10:01:04.030Z</time>
      </trkpt>
      <trkpt lat="42.91907" lon="0.72685">
        <ele>866.33</ele>
        <time>2024-02-16T10:01:12.405Z</time>
      </trkpt>
      <trkpt lat="42.9191" lon="0.72637">
        <ele>862.28</ele>
        <time>2024-02-16T10:01:20.791Z</time>
      </trkpt>
      <trkpt lat="42.91921" lon="0.726">
        <ele>858.1</ele>
        <time>2024-02-16T10:01:29.187Z</time>
      </trkpt>
      <trkpt lat="42.91931" lon="0.72576">
        <ele>854.23</ele>
        <time>2024-02-16T10:01:37.590Z</time>
      </trkpt>
      <trkpt lat="42.91955" lon="0.7253">
        <ele>850.45</ele>
        <time>2024-02-16T10:01:46.007Z</time>
      </trkpt>
      <trkpt lat="42.91987" lon="0.72493">
        <ele>846.59</ele>
        <time>2024-02-16T10:01:54.438Z</time>
      </trkpt>
      <trkpt lat="42.92011" lon="0.72468">
        <ele>842.96</ele>
        <time>2024-02-16T10:02:02.879Z</time>
      </trkpt>
      <trkpt lat="42.92069" lon="0.72416">
        <ele>835.93</ele>
        <time>2024-02-16T10:02:11.343Z</time>
      </trkpt>
      <trkpt lat="42.92069" lon="0.72416">
        <ele>835.93</ele>
        <time>2024-02-16T10:02:19.807Z</time>
      </trkpt>
      <trkpt lat="42.92076" lon="0.7241">
        <ele>834.71</ele>
        <time>2024-02-16T10:02:28.274Z</time>
      </trkpt>
      <trkpt lat="42.92107" lon="0.7239">
        <ele>833.08</ele>
        <time>2024-02-16T10:02:36.752Z</time>
      </trkpt>
      <trkpt lat="42.92115" lon="0.72376">
        <ele>830.88</ele>
        <time>2024-02-16T10:02:45.235Z</time>
      </trkpt>
      <trkpt lat="42.92119" lon="0.72361">
        <ele>828.18</ele>
        <time>2024-02-16T10:02:53.722Z</time>
      </trkpt>
      <trkpt lat="42.9213" lon="0.72337">
        <ele>825.24</ele>
        <time>2024-02-16T10:03:02.215Z</time>
      </trkpt>
      <trkpt lat="42.92158" lon="0.72303">
        <ele>823.24</ele>
        <time>2024-02-16T10:03:10.721Z</time>
      </trkpt>
      <trkpt lat="42.92164" lon="0.72287">
        <ele>821.11</ele>
        <time>2024-02-16T10:03:19.231Z</time>
      </trkpt>
      <trkpt lat="42.92168" lon="0.72266">
        <ele>818.63</ele>
        <time>2024-02-16T10:03:27.747Z</time>
      </trkpt>
      <trkpt lat="42.92176" lon="0.72248">
        <ele>816.11</ele>
        <time>2024-02-16T10:03:36.268Z</time>
      </trkpt>
      <trkpt lat="42.92195" lon="0.72225">
        <ele>813.72</ele>
        <time>2024-02-16T10:03:44.797Z</time>
      </trkpt>
      <trkpt lat="42.92211" lon="0.72213">
        <ele>811.64</ele>
        <time>2024-02-16T10:03:53.332Z</time>
      </trkpt>
      <trkpt lat="42.92233" lon="0.72185">
        <ele>809.77</ele>
        <time>2024-02-16T10:04:01.877Z</time>
      </trkpt>
      <trkpt lat="42.92254" lon="0.72154">
        <ele>807.65</ele>
        <time>2024-02-16T10:04:10.433Z</time>
      </trkpt>
      <trkpt lat="42.92273" lon="0.72132">
        <ele>805.97</ele>
        <time>2024-02-16T10:04:18.997Z</time>
      </trkpt>
      <trkpt lat="42.92278" lon="0.72115">
        <ele>804.06</ele>
        <time>2024-02-16T10:04:27.565Z</time>
      </trkpt>
      <trkpt lat="42.92278" lon="0.7208">
        <ele>802.04</ele>
        <time>2024-02-16T10:04:36.142Z</time>
      </trkpt>
      <trkpt lat="42.92273" lon="0.72044">
        <ele>800.09</ele>
        <time>2024-02-16T10:04:44.728Z</time>
      </trkpt>
      <trkpt lat="42.9227" lon="0.72013">
        <ele>798.44</ele>
        <time>2024-02-16T10:04:53.321Z</time>
      </trkpt>
      <trkpt lat="42.92265" lon="0.72001">
        <ele>796.91</ele>
        <time>2024-02-16T10:05:01.918Z</time>
      </trkpt>
      <trkpt lat="42.92259" lon="0.71996">
        <ele>795.49</ele>
        <time>2024-02-16T10:05:10.517Z</time>
      </trkpt>
      <trkpt lat="42.9225" lon="0.71995">
        <ele>794.15</ele>
        <time>2024-02-16T10:05:19.119Z</time>
      </trkpt>
      <trkpt lat="42.9224" lon="0.71999">
        <ele>792.81</ele>
        <time>2024-02-16T10:05:27.725Z</time>
      </trkpt>
      <trkpt lat="42.92233" lon="0.72007">
        <ele>791.49</ele>
        <time>2024-02-16T10:05:36.334Z</time>
      </trkpt>
      <trkpt lat="42.92225" lon="0.72018">
        <ele>790.08</ele>
        <time>2024-02-16T10:05:44.947Z</time>
      </trkpt>
      <trkpt lat="42.92222" lon="0.72031">
        <ele>788.63</ele>
        <time>2024-02-16T10:05:53.563Z</time>
      </trkpt>
      <trkpt lat="42.9222" lon="0.72087">
        <ele>787.1</ele>
        <time>2024-02-16T10:06:02.193Z</time>
      </trkpt>
      <trkpt lat="42.92217" lon="0.72098">
        <ele>785.59</ele>
        <time>2024-02-16T10:06:10.825Z</time>
      </trkpt>
      <trkpt lat="42.92202" lon="0.72117">
        <ele>783.63</ele>
        <time>2024-02-16T10:06:19.464Z</time>
      </trkpt>
      <trkpt lat="42.92175" lon="0.7214">
        <ele>781.51</ele>
        <time>2024-02-16T10:06:28.114Z</time>
      </trkpt>
      <trkpt lat="42.92146" lon="0.72161">
        <ele>779.68</ele>
        <time>2024-02-16T10:06:36.775Z</time>
      </trkpt>
      <trkpt lat="42.92126" lon="0.72171">
        <ele>777.67</ele>
        <time>2024-02-16T10:06:45.443Z</time>
      </trkpt>
      <trkpt lat="42.92103" lon="0.72178">
        <ele>775.7</ele>
        <time>2024-02-16T10:06:54.119Z</time>
      </trkpt>
      <trkpt lat="42.9207" lon="0.72185">
        <ele>773.77</ele>
        <time>2024-02-16T10:07:02.806Z</time>
      </trkpt>
      <trkpt lat="42.92038" lon="0.72186">
        <ele>771.53</ele>
        <time>2024-02-16T10:07:11.504Z</time>
      </trkpt>
      <trkpt lat="42.92031" lon="0.72183">
        <ele>769.5</ele>
        <time>2024-02-16T10:07:20.204Z</time>
      </trkpt>
      <trkpt lat="42.92028" lon="0.72177">
        <ele>767.41</ele>
        <time>2024-02-16T10:07:28.906Z</time>
      </trkpt>
      <trkpt lat="42.92027" lon="0.7217">
        <ele>765.25</ele>
        <time>2024-02-16T10:07:37.610Z</time>
      </trkpt>
      <trkpt lat="42.92029" lon="0.7216">
        <ele>762.97</ele>
        <time>2024-02-16T10:07:46.316Z</time>
      </trkpt>
      <trkpt lat="42.92071" lon="0.72105">
        <ele>760.31</ele>
        <time>2024-02-16T10:07:55.041Z</time>
      </trkpt>
      <trkpt lat="42.92077" lon="0.72088">
        <ele>757.93</ele>
        <time>2024-02-16T10:08:03.771Z</time>
      </trkpt>
      <trkpt lat="42.92083" lon="0.7207">
        <ele>755.67</ele>
        <time>2024-02-16T10:08:12.506Z</time>
      </trkpt>
      <trkpt lat="42.92085" lon="0.72042">
        <ele>753.39</ele>
        <time>2024-02-16T10:08:21.248Z</time>
      </trkpt>
      <trkpt lat="42.92083" lon="0.72019">
        <ele>751.08</ele>
        <time>2024-02-16T10:08:29.995Z</time>
      </trkpt>
      <trkpt lat="42.92076" lon="0.71997">
        <ele>748.74</ele>
        <time>2024-02-16T10:08:38.748Z</time>
      </trkpt>
      <trkpt lat="42.92053" lon="0.71944">
        <ele>745.85</ele>
        <time>2024-02-16T10:08:47.516Z</time>
      </trkpt>
      <trkpt lat="42.9202" lon="0.71881">
        <ele>742.96</ele>
        <time>2024-02-16T10:08:56.303Z</time>
      </trkpt>
      <trkpt lat="42.92012" lon="0.71867">
        <ele>740.46</ele>
        <time>2024-02-16T10:09:05.095Z</time>
      </trkpt>
      <trkpt lat="42.91997" lon="0.71849">
        <ele>737.89</ele>
        <time>2024-02-16T10:09:13.893Z</time>
      </trkpt>
      <trkpt lat="42.91997" lon="0.71849">
        <ele>735.47</ele>
        <time>2024-02-16T10:09:22.691Z</time>
      </trkpt>
      <trkpt lat="42.91978" lon="0.7183">
        <ele>732.86</ele>
        <time>2024-02-16T10:09:31.497Z</time>
      </trkpt>
      <trkpt lat="42.91951" lon="0.71812">
        <ele>730.1</ele>
        <time>2024-02-16T10:09:40.313Z</time>
      </trkpt>
      <trkpt lat="42.91943" lon="0.71808">
        <ele>727.56</ele>
        <time>2024-02-16T10:09:49.132Z</time>
      </trkpt>
      <trkpt lat="42.9192" lon="0.71798">
        <ele>724.88</ele>
        <time>2024-02-16T10:09:57.959Z</time>
      </trkpt>
      <trkpt lat="42.91866" lon="0.71788">
        <ele>722.23</ele>
        <time>2024-02-16T10:10:06.804Z</time>
      </trkpt>
      <trkpt lat="42.91839" lon="0.71802">
        <ele>719.74</ele>
        <time>2024-02-16T10:10:15.659Z</time>
      </trkpt>
      <trkpt lat="42.91823" lon="0.71807">
        <ele>717.34</ele>
        <time>2024-02-16T10:10:24.519Z</time>
      </trkpt>
      <trkpt lat="42.91752" lon="0.71794">
        <ele>714.62</ele>
        <time>2024-02-16T10:10:33.403Z</time>
      </trkpt>
      <trkpt lat="42.91735" lon="0.71781">
        <ele>711.71</ele>
        <time>2024-02-16T10:10:42.294Z</time>
      </trkpt>
      <trkpt lat="42.91723" lon="0.71766">
        <ele>708.84</ele>
        <time>2024-02-16T10:10:51.190Z</time>
      </trkpt>
      <trkpt lat="42.91711" lon="0.71747">
        <ele>705.91</ele>
        <time>2024-02-16T10:11:00.092Z</time>
      </trkpt>
      <trkpt lat="42.91659" lon="0.71618">
        <ele>702.05</ele>
        <time>2024-02-16T10:11:09.030Z</time>
      </trkpt>
      <trkpt lat="42.91632" lon="0.71553">
        <ele>698.93</ele>
        <time>2024-02-16T10:11:17.987Z</time>
      </trkpt>
      <trkpt lat="42.91629" lon="0.71537">
        <ele>696</ele>
        <time>2024-02-16T10:11:26.948Z</time>
      </trkpt>
      <trkpt lat="42.9162" lon="0.71482">
        <ele>693.19</ele>
        <time>2024-02-16T10:11:35.922Z</time>
      </trkpt>
      <trkpt lat="42.91613" lon="0.7146">
        <ele>690.12</ele>
        <time>2024-02-16T10:11:44.902Z</time>
      </trkpt>
      <trkpt lat="42.91606" lon="0.7145">
        <ele>686.97</ele>
        <time>2024-02-16T10:11:53.886Z</time>
      </trkpt>
      <trkpt lat="42.91541" lon="0.71393">
        <ele>683.51</ele>
        <time>2024-02-16T10:12:02.895Z</time>
      </trkpt>
      <trkpt lat="42.91528" lon="0.71384">
        <ele>680.25</ele>
        <time>2024-02-16T10:12:11.909Z</time>
      </trkpt>
      <trkpt lat="42.91475" lon="0.71361">
        <ele>676.58</ele>
        <time>2024-02-16T10:12:20.942Z</time>
      </trkpt>
      <trkpt lat="42.91422" lon="0.7133">
        <ele>672.91</ele>
        <time>2024-02-16T10:12:29.994Z</time>
      </trkpt>
      <trkpt lat="42.91413" lon="0.71323">
        <ele>669.54</ele>
        <time>2024-02-16T10:12:39.049Z</time>
      </trkpt>
      <trkpt lat="42.91405" lon="0.71312">
        <ele>666.21</ele>
        <time>2024-02-16T10:12:48.108Z</time>
      </trkpt>
      <trkpt lat="42.91396" lon="0.71298">
        <ele>662.82</ele>
        <time>2024-02-16T10:12:57.172Z</time>
      </trkpt>
      <trkpt lat="42.91375" lon="0.71254">
        <ele>659.12</ele>
        <time>2024-02-16T10:13:06.249Z</time>
      </trkpt>
      <trkpt lat="42.91354" lon="0.71224">
        <ele>655.09</ele>
        <time>2024-02-16T10:13:15.336Z</time>
      </trkpt>
      <trkpt lat="42.91289" lon="0.71149">
        <ele>650.77</ele>
        <time>2024-02-16T10:13:24.451Z</time>
      </trkpt>
      <trkpt lat="42.91267" lon="0.71118">
        <ele>646.95</ele>
        <time>2024-02-16T10:13:33.577Z</time>
      </trkpt>
      <trkpt lat="42.91262" lon="0.71095">
        <ele>643.48</ele>
        <time>2024-02-16T10:13:42.709Z</time>
      </trkpt>
      <trkpt lat="42.91246" lon="0.70983">
        <ele>639.06</ele>
        <time>2024-02-16T10:13:51.869Z</time>
      </trkpt>
      <trkpt lat="42.91246" lon="0.7097">
        <ele>635.46</ele>
        <time>2024-02-16T10:14:01.032Z</time>
      </trkpt>
      <trkpt lat="42.91248" lon="0.70939">
        <ele>631.87</ele>
        <time>2024-02-16T10:14:10.202Z</time>
      </trkpt>
      <trkpt lat="42.91265" lon="0.70878">
        <ele>628.76</ele>
        <time>2024-02-16T10:14:19.388Z</time>
      </trkpt>
      <trkpt lat="42.91265" lon="0.70861">
        <ele>625.45</ele>
        <time>2024-02-16T10:14:28.579Z</time>
      </trkpt>
      <trkpt lat="42.9126" lon="0.70848">
        <ele>622.07</ele>
        <time>2024-02-16T10:14:37.773Z</time>
      </trkpt>
      <trkpt lat="42.91254" lon="0.70843">
        <ele>618.65</ele>
        <time>2024-02-16T10:14:46.969Z</time>
      </trkpt>
      <trkpt lat="42.91243" lon="0.70835">
        <ele>615.07</ele>
        <time>2024-02-16T10:14:56.170Z</time>
      </trkpt>
      <trkpt lat="42.91215" lon="0.70823">
        <ele>611.28</ele>
        <time>2024-02-16T10:15:05.381Z</time>
      </trkpt>
      <trkpt lat="42.91208" lon="0.70819">
        <ele>607.89</ele>
        <time>2024-02-16T10:15:14.594Z</time>
      </trkpt>
      <trkpt lat="42.91204" lon="0.70814">
        <ele>604.51</ele>
        <time>2024-02-16T10:15:23.809Z</time>
      </trkpt>
      <trkpt lat="42.91194" lon="0.70794">
        <ele>601.07</ele>
        <time>2024-02-16T10:15:33.030Z</time>
      </trkpt>
      <trkpt lat="42.91176" lon="0.70711">
        <ele>597.14</ele>
        <time>2024-02-16T10:15:42.272Z</time>
      </trkpt>
      <trkpt lat="42.9117" lon="0.70693">
        <ele>593.63</ele>
        <time>2024-02-16T10:15:51.519Z</time>
      </trkpt>
      <trkpt lat="42.91141" lon="0.70638">
        <ele>589.98</ele>
        <time>2024-02-16T10:16:00.782Z</time>
      </trkpt>
      <trkpt lat="42.9113" lon="0.70615">
        <ele>586.25</ele>
        <time>2024-02-16T10:16:10.052Z</time>
      </trkpt>
      <trkpt lat="42.91124" lon="0.70598">
        <ele>582.58</ele>
        <time>2024-02-16T10:16:19.327Z</time>
      </trkpt>
      <trkpt lat="42.91117" lon="0.70568">
        <ele>578.85</ele>
        <time>2024-02-16T10:16:28.609Z</time>
      </trkpt>
      <trkpt lat="42.91098" lon="0.7039">
        <ele>574.75</ele>
        <time>2024-02-16T10:16:37.936Z</time>
      </trkpt>
      <trkpt lat="42.91095" lon="0.70373">
        <ele>571.35</ele>
        <time>2024-02-16T10:16:47.267Z</time>
      </trkpt>
      <trkpt lat="42.9109" lon="0.70358">
        <ele>567.95</ele>
        <time>2024-02-16T10:16:56.602Z</time>
      </trkpt>
      <trkpt lat="42.91075" lon="0.7033">
        <ele>564.27</ele>
        <time>2024-02-16T10:17:05.945Z</time>
      </trkpt>
      <trkpt lat="42.91067" lon="0.7031">
        <ele>561.07</ele>
        <time>2024-02-16T10:17:15.294Z</time>
      </trkpt>
      <trkpt lat="42.91061" lon="0.70287">
        <ele>558.31</ele>
        <time>2024-02-16T10:17:24.649Z</time>
      </trkpt>
      <trkpt lat="42.91054" lon="0.70236">
        <ele>555.48</ele>
        <time>2024-02-16T10:17:34.016Z</time>
      </trkpt>
      <trkpt lat="42.91043" lon="0.70199">
        <ele>552.49</ele>
        <time>2024-02-16T10:17:43.393Z</time>
      </trkpt>
      <trkpt lat="42.91042" lon="0.70155">
        <ele>549.6</ele>
        <time>2024-02-16T10:17:52.781Z</time>
      </trkpt>
      <trkpt lat="42.91045" lon="0.70135">
        <ele>547.03</ele>
        <time>2024-02-16T10:18:02.174Z</time>
      </trkpt>
      <trkpt lat="42.91047" lon="0.7013">
        <ele>544.69</ele>
        <time>2024-02-16T10:18:11.568Z</time>
      </trkpt>
      <trkpt lat="42.91065" lon="0.70097">
        <ele>542.42</ele>
        <time>2024-02-16T10:18:20.972Z</time>
      </trkpt>
      <trkpt lat="42.91074" lon="0.7007">
        <ele>540.31</ele>
        <time>2024-02-16T10:18:30.384Z</time>
      </trkpt>
      <trkpt lat="42.9109" lon="0.70014">
        <ele>538.22</ele>
        <time>2024-02-16T10:18:39.810Z</time>
      </trkpt>
      <trkpt lat="42.91091" lon="0.69987">
        <ele>535.96</ele>
        <time>2024-02-16T10:18:49.243Z</time>
      </trkpt>
      <trkpt lat="42.91089" lon="0.6996">
        <ele>533.7</ele>
        <time>2024-02-16T10:18:58.683Z</time>
      </trkpt>
      <trkpt lat="42.9109" lon="0.69946">
        <ele>531.6</ele>
        <time>2024-02-16T10:19:08.126Z</time>
      </trkpt>
      <trkpt lat="42.91093" lon="0.69932">
        <ele>529.4</ele>
        <time>2024-02-16T10:19:17.573Z</time>
      </trkpt>
      <trkpt lat="42.91107" lon="0.69881">
        <ele>527.15</ele>
        <time>2024-02-16T10:19:27.033Z</time>
      </trkpt>
      <trkpt lat="42.91111" lon="0.69838">
        <ele>524.68</ele>
        <time>2024-02-16T10:19:36.504Z</time>
      </trkpt>
      <trkpt lat="42.91113" lon="0.69821">
        <ele>522.62</ele>
        <time>2024-02-16T10:19:45.979Z</time>
      </trkpt>
      <trkpt lat="42.91115" lon="0.69809">
        <ele>520.59</ele>
        <time>2024-02-16T10:19:55.457Z</time>
      </trkpt>
      <trkpt lat="42.91142" lon="0.69736">
        <ele>519.2</ele>
        <time>2024-02-16T10:20:04.955Z</time>
      </trkpt>
      <trkpt lat="42.91147" lon="0.69702">
        <ele>516.93</ele>
        <time>2024-02-16T10:20:14.461Z</time>
      </trkpt>
      <trkpt lat="42.91146" lon="0.69661">
        <ele>514.19</ele>
        <time>2024-02-16T10:20:23.977Z</time>
      </trkpt>
      <trkpt lat="42.91129" lon="0.69601">
        <ele>511.5</ele>
        <time>2024-02-16T10:20:33.509Z</time>
      </trkpt>
      <trkpt lat="42.91129" lon="0.69578">
        <ele>509.56</ele>
        <time>2024-02-16T10:20:43.047Z</time>
      </trkpt>
      <trkpt lat="42.91135" lon="0.69551">
        <ele>507.79</ele>
        <time>2024-02-16T10:20:52.592Z</time>
      </trkpt>
      <trkpt lat="42.91141" lon="0.69533">
        <ele>506.19</ele>
        <time>2024-02-16T10:21:02.142Z</time>
      </trkpt>
      <trkpt lat="42.91143" lon="0.69526">
        <ele>504.86</ele>
        <time>2024-02-16T10:21:11.694Z</time>
      </trkpt>
      <trkpt lat="42.91165" lon="0.69453">
        <ele>503.86</ele>
        <time>2024-02-16T10:21:21.265Z</time>
      </trkpt>
      <trkpt lat="42.91221" lon="0.69277">
        <ele>502.59</ele>
        <time>2024-02-16T10:21:30.883Z</time>
      </trkpt>
      <trkpt lat="42.9123" lon="0.69249">
        <ele>501.72</ele>
        <time>2024-02-16T10:21:40.508Z</time>
      </trkpt>
      <trkpt lat="42.91232" lon="0.69243">
        <ele>501.14</ele>
        <time>2024-02-16T10:21:50.135Z</time>
      </trkpt>
      <trkpt lat="42.91248" lon="0.69187">
        <ele>501.1</ele>
        <time>2024-02-16T10:21:59.777Z</time>
      </trkpt>
      <trkpt lat="42.91264" lon="0.69199">
        <ele>500.76</ele>
        <time>2024-02-16T10:22:09.425Z</time>
      </trkpt>
      <trkpt lat="42.91305" lon="0.6924">
        <ele>500.4</ele>
        <time>2024-02-16T10:22:19.090Z</time>
      </trkpt>
      <trkpt lat="42.91305" lon="0.6924">
        <ele>500.38</ele>
        <time>2024-02-16T10:22:28.755Z</time>
      </trkpt>
      <trkpt lat="42.91337" lon="0.69273">
        <ele>500.42</ele>
        <time>2024-02-16T10:22:38.433Z</time>
      </trkpt>
      <trkpt lat="42.9135" lon="0.69281">
        <ele>500.66</ele>
        <time>2024-02-16T10:22:48.116Z</time>
      </trkpt>
      <trkpt lat="42.91375" lon="0.69294">
        <ele>501.04</ele>
        <time>2024-02-16T10:22:57.808Z</time>
      </trkpt>
      <trkpt lat="42.91393" lon="0.69302">
        <ele>501.5</ele>
        <time>2024-02-16T10:23:07.506Z</time>
      </trkpt>
      <trkpt lat="42.91406" lon="0.69304">
        <ele>502.07</ele>
        <time>2024-02-16T10:23:17.208Z</time>
      </trkpt>
      <trkpt lat="42.91428" lon="0.69302">
        <ele>502.77</ele>
        <time>2024-02-16T10:23:26.918Z</time>
      </trkpt>
      <trkpt lat="42.91438" lon="0.693">
        <ele>503.5</ele>
        <time>2024-02-16T10:23:36.631Z</time>
      </trkpt>
      <trkpt lat="42.91453" lon="0.69292">
        <ele>504.31</ele>
        <time>2024-02-16T10:23:46.349Z</time>
      </trkpt>
      <trkpt lat="42.9147" lon="0.69279">
        <ele>505.08</ele>
        <time>2024-02-16T10:23:56.074Z</time>
      </trkpt>
      <trkpt lat="42.91484" lon="0.69264">
        <ele>505.81</ele>
        <time>2024-02-16T10:24:05.805Z</time>
      </trkpt>
      <trkpt lat="42.91496" lon="0.69249">
        <ele>506.47</ele>
        <time>2024-02-16T10:24:15.541Z</time>
      </trkpt>
      <trkpt lat="42.91534" lon="0.69191">
        <ele>507.3</ele>
        <time>2024-02-16T10:24:25.296Z</time>
      </trkpt>
      <trkpt lat="42.91551" lon="0.69143">
        <ele>507.96</ele>
        <time>2024-02-16T10:24:35.064Z</time>
      </trkpt>
      <trkpt lat="42.91556" lon="0.69128">
        <ele>508.98</ele>
        <time>2024-02-16T10:24:44.837Z</time>
      </trkpt>
      <trkpt lat="42.91621" lon="0.69003">
        <ele>508.87</ele>
        <time>2024-02-16T10:24:54.647Z</time>
      </trkpt>
      <trkpt lat="42.91669" lon="0.68897">
        <ele>508.25</ele>
        <time>2024-02-16T10:25:04.487Z</time>
      </trkpt>
      <trkpt lat="42.91673" lon="0.68853">
        <ele>508.39</ele>
        <time>2024-02-16T10:25:14.338Z</time>
      </trkpt>
      <trkpt lat="42.91669" lon="0.68747">
        <ele>508.72</ele>
        <time>2024-02-16T10:25:24.215Z</time>
      </trkpt>
      <trkpt lat="42.91676" lon="0.68687">
        <ele>508.77</ele>
        <time>2024-02-16T10:25:34.107Z</time>
      </trkpt>
      <trkpt lat="42.91689" lon="0.6864">
        <ele>508.46</ele>
        <time>2024-02-16T10:25:44.012Z</time>
      </trkpt>
      <trkpt lat="42.91715" lon="0.68577">
        <ele>508.08</ele>
        <time>2024-02-16T10:25:53.934Z</time>
      </trkpt>
      <trkpt lat="42.91725" lon="0.68544">
        <ele>507.63</ele>
        <time>2024-02-16T10:26:03.865Z</time>
      </trkpt>
      <trkpt lat="42.91736" lon="0.68462">
        <ele>506.81</ele>
        <time>2024-02-16T10:26:13.817Z</time>
      </trkpt>
      <trkpt lat="42.91753" lon="0.68265">
        <ele>505.77</ele>
        <time>2024-02-16T10:26:23.817Z</time>
      </trkpt>
      <trkpt lat="42.91754" lon="0.68218">
        <ele>505.39</ele>
        <time>2024-02-16T10:26:33.829Z</time>
      </trkpt>
      <trkpt lat="42.9172" lon="0.67872">
        <ele>505.27</ele>
        <time>2024-02-16T10:26:43.926Z</time>
      </trkpt>
      <trkpt lat="42.91719" lon="0.67858">
        <ele>504.95</ele>
        <time>2024-02-16T10:26:54.027Z</time>
      </trkpt>
      <trkpt lat="42.91719" lon="0.67858">
        <ele>504.67</ele>
        <time>2024-02-16T10:27:04.128Z</time>
      </trkpt>
      <trkpt lat="42.917" lon="0.67696">
        <ele>504.58</ele>
        <time>2024-02-16T10:27:14.269Z</time>
      </trkpt>
      <trkpt lat="42.91694" lon="0.67623">
        <ele>504.45</ele>
        <time>2024-02-16T10:27:24.428Z</time>
      </trkpt>
      <trkpt lat="42.917" lon="0.67559">
        <ele>504.3</ele>
        <time>2024-02-16T10:27:34.602Z</time>
      </trkpt>
      <trkpt lat="42.917" lon="0.67526">
        <ele>503.95</ele>
        <time>2024-02-16T10:27:44.785Z</time>
      </trkpt>
      <trkpt lat="42.91693" lon="0.67493">
        <ele>503.69</ele>
        <time>2024-02-16T10:27:54.976Z</time>
      </trkpt>
      <trkpt lat="42.91673" lon="0.67429">
        <ele>503.46</ele>
        <time>2024-02-16T10:28:05.184Z</time>
      </trkpt>
      <trkpt lat="42.91669" lon="0.67405">
        <ele>503.39</ele>
        <time>2024-02-16T10:28:15.398Z</time>
      </trkpt>
      <trkpt lat="42.9167" lon="0.67381">
        <ele>503.57</ele>
        <time>2024-02-16T10:28:25.618Z</time>
      </trkpt>
      <trkpt lat="42.91674" lon="0.67349">
        <ele>504.08</ele>
        <time>2024-02-16T10:28:35.846Z</time>
      </trkpt>
      <trkpt lat="42.91677" lon="0.67318">
        <ele>504.55</ele>
        <time>2024-02-16T10:28:46.082Z</time>
      </trkpt>
      <trkpt lat="42.91678" lon="0.67283">
        <ele>504.77</ele>
        <time>2024-02-16T10:28:56.326Z</time>
      </trkpt>
      <trkpt lat="42.91671" lon="0.67233">
        <ele>505.16</ele>
        <time>2024-02-16T10:29:06.583Z</time>
      </trkpt>
      <trkpt lat="42.91634" lon="0.6711">
        <ele>505.76</ele>
        <time>2024-02-16T10:29:16.872Z</time>
      </trkpt>
      <trkpt lat="42.9161" lon="0.67009">
        <ele>506.62</ele>
        <time>2024-02-16T10:29:27.187Z</time>
      </trkpt>
      <trkpt lat="42.91591" lon="0.66946">
        <ele>507.76</ele>
        <time>2024-02-16T10:29:37.519Z</time>
      </trkpt>
      <trkpt lat="42.91564" lon="0.66901">
        <ele>508.97</ele>
        <time>2024-02-16T10:29:47.865Z</time>
      </trkpt>
      <trkpt lat="42.91529" lon="0.66854">
        <ele>509.84</ele>
        <time>2024-02-16T10:29:58.228Z</time>
      </trkpt>
      <trkpt lat="42.91514" lon="0.66827">
        <ele>510.09</ele>
        <time>2024-02-16T10:30:08.599Z</time>
      </trkpt>
      <trkpt lat="42.91509" lon="0.66811">
        <ele>510.37</ele>
        <time>2024-02-16T10:30:18.974Z</time>
      </trkpt>
      <trkpt lat="42.91507" lon="0.6679">
        <ele>510.29</ele>
        <time>2024-02-16T10:30:29.354Z</time>
      </trkpt>
      <trkpt lat="42.91509" lon="0.66771">
        <ele>509.48</ele>
        <time>2024-02-16T10:30:39.739Z</time>
      </trkpt>
      <trkpt lat="42.91519" lon="0.6672">
        <ele>508.04</ele>
        <time>2024-02-16T10:30:50.137Z</time>
      </trkpt>
      <trkpt lat="42.91515" lon="0.66672">
        <ele>506.64</ele>
        <time>2024-02-16T10:31:00.547Z</time>
      </trkpt>
      <trkpt lat="42.91483" lon="0.6654">
        <ele>506.25</ele>
        <time>2024-02-16T10:31:10.991Z</time>
      </trkpt>
      <trkpt lat="42.91478" lon="0.66493">
        <ele>505.79</ele>
        <time>2024-02-16T10:31:21.447Z</time>
      </trkpt>
      <trkpt lat="42.91479" lon="0.66455">
        <ele>504.94</ele>
        <time>2024-02-16T10:31:31.912Z</time>
      </trkpt>
      <trkpt lat="42.91481" lon="0.66418">
        <ele>503.99</ele>
        <time>2024-02-16T10:31:42.386Z</time>
      </trkpt>
      <trkpt lat="42.91481" lon="0.66418">
        <ele>503.65</ele>
        <time>2024-02-16T10:31:52.860Z</time>
      </trkpt>
      <trkpt lat="42.91463" lon="0.66316">
        <ele>503.24</ele>
        <time>2024-02-16T10:32:03.360Z</time>
      </trkpt>
      <trkpt lat="42.91448" lon="0.66249">
        <ele>503.78</ele>
        <time>2024-02-16T10:32:13.877Z</time>
      </trkpt>
      <trkpt lat="42.91423" lon="0.6614">
        <ele>507.74</ele>
        <time>2024-02-16T10:32:24.422Z</time>
      </trkpt>
      <trkpt lat="42.91423" lon="0.6614">
        <ele>507.75</ele>
        <time>2024-02-16T10:32:34.967Z</time>
      </trkpt>
      <trkpt lat="42.91384" lon="0.65969">
        <ele>511.04</ele>
        <time>2024-02-16T10:32:45.556Z</time>
      </trkpt>
      <trkpt lat="42.91367" lon="0.65912">
        <ele>512.94</ele>
        <time>2024-02-16T10:32:56.160Z</time>
      </trkpt>
      <trkpt lat="42.91362" lon="0.65899">
        <ele>514.12</ele>
        <time>2024-02-16T10:33:06.768Z</time>
      </trkpt>
      <trkpt lat="42.91346" lon="0.65857">
        <ele>514.72</ele>
        <time>2024-02-16T10:33:17.387Z</time>
      </trkpt>
      <trkpt lat="42.91336" lon="0.65827">
        <ele>515.13</ele>
        <time>2024-02-16T10:33:28.014Z</time>
      </trkpt>
      <trkpt lat="42.91335" lon="0.65806">
        <ele>515.17</ele>
        <time>2024-02-16T10:33:38.646Z</time>
      </trkpt>
      <trkpt lat="42.91335" lon="0.65806">
        <ele>514.96</ele>
        <time>2024-02-16T10:33:49.278Z</time>
      </trkpt>
      <trkpt lat="42.91334" lon="0.65797">
        <ele>514.54</ele>
        <time>2024-02-16T10:33:59.913Z</time>
      </trkpt>
      <trkpt lat="42.91334" lon="0.65797">
        <ele>513.9</ele>
        <time>2024-02-16T10:34:10.548Z</time>
      </trkpt>
      <trkpt lat="42.91334" lon="0.65769">
        <ele>513.02</ele>
        <time>2024-02-16T10:34:21.189Z</time>
      </trkpt>
      <trkpt lat="42.91338" lon="0.65713">
        <ele>511.8</ele>
        <time>2024-02-16T10:34:31.844Z</time>
      </trkpt>
      <trkpt lat="42.91338" lon="0.65683">
        <ele>510.44</ele>
        <time>2024-02-16T10:34:42.506Z</time>
      </trkpt>
      <trkpt lat="42.9133" lon="0.65541">
        <ele>508.92</ele>
        <time>2024-02-16T10:34:53.203Z</time>
      </trkpt>
      <trkpt lat="42.9133" lon="0.65507">
        <ele>507.47</ele>
        <time>2024-02-16T10:35:03.909Z</time>
      </trkpt>
      <trkpt lat="42.91334" lon="0.65466">
        <ele>505.62</ele>
        <time>2024-02-16T10:35:14.625Z</time>
      </trkpt>
      <trkpt lat="42.91334" lon="0.65466">
        <ele>504.27</ele>
        <time>2024-02-16T10:35:25.341Z</time>
      </trkpt>
      <trkpt lat="42.91341" lon="0.65412">
        <ele>502.61</ele>
        <time>2024-02-16T10:35:36.070Z</time>
      </trkpt>
      <trkpt lat="42.91346" lon="0.6538">
        <ele>501.4</ele>
        <time>2024-02-16T10:35:46.807Z</time>
      </trkpt>
      <trkpt lat="42.91348" lon="0.6537">
        <ele>500.32</ele>
        <time>2024-02-16T10:35:57.547Z</time>
      </trkpt>
      <trkpt lat="42.91362" lon="0.65371">
        <ele>499.48</ele>
        <time>2024-02-16T10:36:08.292Z</time>
      </trkpt>
      <trkpt lat="42.91375" lon="0.65368">
        <ele>498.68</ele>
        <time>2024-02-16T10:36:19.041Z</time>
      </trkpt>
      <trkpt lat="42.91387" lon="0.65355">
        <ele>497.99</ele>
        <time>2024-02-16T10:36:29.795Z</time>
      </trkpt>
      <trkpt lat="42.91401" lon="0.65323">
        <ele>497.38</ele>
        <time>2024-02-16T10:36:40.558Z</time>
      </trkpt>
      <trkpt lat="42.91412" lon="0.65294">
        <ele>496.93</ele>
        <time>2024-02-16T10:36:51.329Z</time>
      </trkpt>
      <trkpt lat="42.91416" lon="0.65281">
        <ele>496.63</ele>
        <time>2024-02-16T10:37:02.104Z</time>
      </trkpt>
      <trkpt lat="42.91416" lon="0.65281">
        <ele>496.63</ele>
        <time>2024-02-16T10:37:12.879Z</time>
      </trkpt>
      <trkpt lat="42.91416" lon="0.65281">
        <ele>496.23</ele>
        <time>2024-02-16T10:37:23.654Z</time>
      </trkpt>
      <trkpt lat="42.91429" lon="0.65237">
        <ele>495.34</ele>
        <time>2024-02-16T10:37:34.440Z</time>
      </trkpt>
      <trkpt lat="42.91441" lon="0.65221">
        <ele>494.22</ele>
        <time>2024-02-16T10:37:45.232Z</time>
      </trkpt>
      <trkpt lat="42.91391" lon="0.65122">
        <ele>492.61</ele>
        <time>2024-02-16T10:37:56.053Z</time>
      </trkpt>
      <trkpt lat="42.91385" lon="0.65121">
        <ele>491.44</ele>
        <time>2024-02-16T10:38:06.876Z</time>
      </trkpt>
      <trkpt lat="42.91387" lon="0.65098">
        <ele>490.31</ele>
        <time>2024-02-16T10:38:17.705Z</time>
      </trkpt>
      <trkpt lat="42.91393" lon="0.65068">
        <ele>489.19</ele>
        <time>2024-02-16T10:38:28.541Z</time>
      </trkpt>
      <trkpt lat="42.91401" lon="0.64994">
        <ele>487.42</ele>
        <time>2024-02-16T10:38:39.396Z</time>
      </trkpt>
      <trkpt lat="42.91404" lon="0.64974">
        <ele>486.25</ele>
        <time>2024-02-16T10:38:50.256Z</time>
      </trkpt>
      <trkpt lat="42.91405" lon="0.6497">
        <ele>485.36</ele>
        <time>2024-02-16T10:39:01.117Z</time>
      </trkpt>
      <trkpt lat="42.91406" lon="0.64959">
        <ele>484.63</ele>
        <time>2024-02-16T10:39:11.981Z</time>
      </trkpt>
      <trkpt lat="42.91408" lon="0.64946">
        <ele>484.06</ele>
        <time>2024-02-16T10:39:22.848Z</time>
      </trkpt>
      <trkpt lat="42.91412" lon="0.64914">
        <ele>483.64</ele>
        <time>2024-02-16T10:39:33.723Z</time>
      </trkpt>
      <trkpt lat="42.9142" lon="0.64865">
        <ele>483.17</ele>
        <time>2024-02-16T10:39:44.610Z</time>
      </trkpt>
      <trkpt lat="42.91426" lon="0.64819">
        <ele>482.91</ele>
        <time>2024-02-16T10:39:55.508Z</time>
      </trkpt>
      <trkpt lat="42.9143" lon="0.64811">
        <ele>482.91</ele>
        <time>2024-02-16T10:40:06.409Z</time>
      </trkpt>
      <trkpt lat="42.91437" lon="0.64774">
        <ele>483.2</ele>
        <time>2024-02-16T10:40:17.319Z</time>
      </trkpt>
      <trkpt lat="42.91441" lon="0.64762">
        <ele>483.5</ele>
        <time>2024-02-16T10:40:28.232Z</time>
      </trkpt>
      <trkpt lat="42.91449" lon="0.64754">
        <ele>483.81</ele>
        <time>2024-02-16T10:40:39.149Z</time>
      </trkpt>
      <trkpt lat="42.91458" lon="0.64749">
        <ele>484.2</ele>
        <time>2024-02-16T10:40:50.069Z</time>
      </trkpt>
      <trkpt lat="42.91479" lon="0.64743">
        <ele>484.64</ele>
        <time>2024-02-16T10:41:00.996Z</time>
      </trkpt>
      <trkpt lat="42.91602" lon="0.64735">
        <ele>485.08</ele>
        <time>2024-02-16T10:41:11.964Z</time>
      </trkpt>
      <trkpt lat="42.91716" lon="0.64728">
        <ele>486.08</ele>
        <time>2024-02-16T10:41:22.970Z</time>
      </trkpt>
      <trkpt lat="42.91716" lon="0.64728">
        <ele>486.3</ele>
        <time>2024-02-16T10:41:33.976Z</time>
      </trkpt>
      <trkpt lat="42.91767" lon="0.64724">
        <ele>486.05</ele>
        <time>2024-02-16T10:41:44.999Z</time>
      </trkpt>
      <trkpt lat="42.91767" lon="0.64724">
        <ele>486</ele>
        <time>2024-02-16T10:41:56.022Z</time>
      </trkpt>
      <trkpt lat="42.91963" lon="0.6471">
        <ele>485.81</ele>
        <time>2024-02-16T10:42:07.110Z</time>
      </trkpt>
      <trkpt lat="42.92031" lon="0.64711">
        <ele>485.23</ele>
        <time>2024-02-16T10:42:18.221Z</time>
      </trkpt>
      <trkpt lat="42.92074" lon="0.64718">
        <ele>484.58</ele>
        <time>2024-02-16T10:42:29.347Z</time>
      </trkpt>
      <trkpt lat="42.92119" lon="0.64734">
        <ele>484.25</ele>
        <time>2024-02-16T10:42:40.488Z</time>
      </trkpt>
      <trkpt lat="42.92159" lon="0.64751">
        <ele>483.71</ele>
        <time>2024-02-16T10:42:51.643Z</time>
      </trkpt>
      <trkpt lat="42.92159" lon="0.64751">
        <ele>483.09</ele>
        <time>2024-02-16T10:43:02.798Z</time>
      </trkpt>
      <trkpt lat="42.92196" lon="0.64772">
        <ele>482.28</ele>
        <time>2024-02-16T10:43:13.967Z</time>
      </trkpt>
      <trkpt lat="42.92438" lon="0.64926">
        <ele>481.29</ele>
        <time>2024-02-16T10:43:25.225Z</time>
      </trkpt>
      <trkpt lat="42.92491" lon="0.64956">
        <ele>480.42</ele>
        <time>2024-02-16T10:43:36.502Z</time>
      </trkpt>
      <trkpt lat="42.92491" lon="0.64956">
        <ele>479.69</ele>
        <time>2024-02-16T10:43:47.779Z</time>
      </trkpt>
      <trkpt lat="42.92661" lon="0.65036">
        <ele>478.91</ele>
        <time>2024-02-16T10:43:59.116Z</time>
      </trkpt>
      <trkpt lat="42.92661" lon="0.65036">
        <ele>477.93</ele>
        <time>2024-02-16T10:44:10.453Z</time>
      </trkpt>
      <trkpt lat="42.92746" lon="0.65076">
        <ele>476.45</ele>
        <time>2024-02-16T10:44:21.820Z</time>
      </trkpt>
      <trkpt lat="42.92785" lon="0.65091">
        <ele>475.53</ele>
        <time>2024-02-16T10:44:33.200Z</time>
      </trkpt>
      <trkpt lat="42.92813" lon="0.65097">
        <ele>475.25</ele>
        <time>2024-02-16T10:44:44.590Z</time>
      </trkpt>
      <trkpt lat="42.9284" lon="0.651">
        <ele>477.32</ele>
        <time>2024-02-16T10:44:55.989Z</time>
      </trkpt>
      <trkpt lat="42.9284" lon="0.651">
        <ele>477.33</ele>
        <time>2024-02-16T10:45:07.388Z</time>
      </trkpt>
      <trkpt lat="42.9284" lon="0.651">
        <ele>477.85</ele>
        <time>2024-02-16T10:45:18.787Z</time>
      </trkpt>
      <trkpt lat="42.92867" lon="0.65102">
        <ele>478.72</ele>
        <time>2024-02-16T10:45:30.195Z</time>
      </trkpt>
      <trkpt lat="42.92914" lon="0.65097">
        <ele>479.38</ele>
        <time>2024-02-16T10:45:41.618Z</time>
      </trkpt>
      <trkpt lat="42.92956" lon="0.65083">
        <ele>479.84</ele>
        <time>2024-02-16T10:45:53.056Z</time>
      </trkpt>
      <trkpt lat="42.93029" lon="0.65053">
        <ele>480.43</ele>
        <time>2024-02-16T10:46:04.519Z</time>
      </trkpt>
      <trkpt lat="42.93044" lon="0.65047">
        <ele>481</ele>
        <time>2024-02-16T10:46:15.987Z</time>
      </trkpt>
      <trkpt lat="42.93122" lon="0.65017">
        <ele>481.56</ele>
        <time>2024-02-16T10:46:27.483Z</time>
      </trkpt>
      <trkpt lat="42.93286" lon="0.64949">
        <ele>482.96</ele>
        <time>2024-02-16T10:46:39.036Z</time>
      </trkpt>
      <trkpt lat="42.93341" lon="0.64924">
        <ele>484.26</ele>
        <time>2024-02-16T10:46:50.608Z</time>
      </trkpt>
      <trkpt lat="42.93382" lon="0.649">
        <ele>484.64</ele>
        <time>2024-02-16T10:47:02.195Z</time>
      </trkpt>
      <trkpt lat="42.93432" lon="0.64867">
        <ele>486.57</ele>
        <time>2024-02-16T10:47:13.800Z</time>
      </trkpt>
      <trkpt lat="42.93469" lon="0.64839">
        <ele>485.71</ele>
        <time>2024-02-16T10:47:25.419Z</time>
      </trkpt>
      <trkpt lat="42.93511" lon="0.64804">
        <ele>483.67</ele>
        <time>2024-02-16T10:47:37.055Z</time>
      </trkpt>
      <trkpt lat="42.93545" lon="0.64772">
        <ele>482.72</ele>
        <time>2024-02-16T10:47:48.705Z</time>
      </trkpt>
      <trkpt lat="42.93715" lon="0.64599">
        <ele>481.03</ele>
        <time>2024-02-16T10:48:00.425Z</time>
      </trkpt>
      <trkpt lat="42.93745" lon="0.6457">
        <ele>479.64</ele>
        <time>2024-02-16T10:48:12.157Z</time>
      </trkpt>
      <trkpt lat="42.93769" lon="0.64552">
        <ele>478.17</ele>
        <time>2024-02-16T10:48:23.899Z</time>
      </trkpt>
      <trkpt lat="42.93792" lon="0.6454">
        <ele>476.89</ele>
        <time>2024-02-16T10:48:35.649Z</time>
      </trkpt>
      <trkpt lat="42.93822" lon="0.64528">
        <ele>476.01</ele>
        <time>2024-02-16T10:48:47.409Z</time>
      </trkpt>
      <trkpt lat="42.93824" lon="0.64538">
        <ele>474.91</ele>
        <time>2024-02-16T10:48:59.172Z</time>
      </trkpt>
      <trkpt lat="42.93835" lon="0.64552">
        <ele>473.88</ele>
        <time>2024-02-16T10:49:10.940Z</time>
      </trkpt>
      <trkpt lat="42.93844" lon="0.64613">
        <ele>472.85</ele>
        <time>2024-02-16T10:49:22.723Z</time>
      </trkpt>
      <trkpt lat="42.93849" lon="0.64612">
        <ele>472.28</ele>
        <time>2024-02-16T10:49:34.508Z</time>
      </trkpt>
      <trkpt lat="42.93863" lon="0.64703">
        <ele>471.82</ele>
        <time>2024-02-16T10:49:46.316Z</time>
      </trkpt>
      <trkpt lat="42.93874" lon="0.64776">
        <ele>471.68</ele>
        <time>2024-02-16T10:49:58.142Z</time>
      </trkpt>
      <trkpt lat="42.93879" lon="0.64801">
        <ele>471.44</ele>
        <time>2024-02-16T10:50:09.974Z</time>
      </trkpt>
      <trkpt lat="42.93874" lon="0.64805">
        <ele>471.33</ele>
        <time>2024-02-16T10:50:21.808Z</time>
      </trkpt>
      <trkpt lat="42.93874" lon="0.64817">
        <ele>471.22</ele>
        <time>2024-02-16T10:50:33.645Z</time>
      </trkpt>
      <trkpt lat="42.93872" lon="0.64833">
        <ele>471.16</ele>
        <time>2024-02-16T10:50:45.486Z</time>
      </trkpt>
      <trkpt lat="42.93865" lon="0.64844">
        <ele>471.2</ele>
        <time>2024-02-16T10:50:57.330Z</time>
      </trkpt>
      <trkpt lat="42.93863" lon="0.64854">
        <ele>471.3</ele>
        <time>2024-02-16T10:51:09.177Z</time>
      </trkpt>
      <trkpt lat="42.93863" lon="0.64863">
        <ele>471.46</ele>
        <time>2024-02-16T10:51:21.026Z</time>
      </trkpt>
      <trkpt lat="42.93865" lon="0.64873">
        <ele>471.6</ele>
        <time>2024-02-16T10:51:32.878Z</time>
      </trkpt>
      <trkpt lat="42.93869" lon="0.6488">
        <ele>471.68</ele>
        <time>2024-02-16T10:51:44.732Z</time>
      </trkpt>
      <trkpt lat="42.93877" lon="0.64886">
        <ele>471.71</ele>
        <time>2024-02-16T10:51:56.589Z</time>
      </trkpt>
      <trkpt lat="42.93886" lon="0.64898">
        <ele>471.7</ele>
        <time>2024-02-16T10:52:08.450Z</time>
      </trkpt>
      <trkpt lat="42.93892" lon="0.64912">
        <ele>471.56</ele>
        <time>2024-02-16T10:52:20.315Z</time>
      </trkpt>
      <trkpt lat="42.93917" lon="0.65059">
        <ele>470.92</ele>
        <time>2024-02-16T10:52:32.217Z</time>
      </trkpt>
      <trkpt lat="42.93923" lon="0.65103">
        <ele>470.98</ele>
        <time>2024-02-16T10:52:44.130Z</time>
      </trkpt>
      <trkpt lat="42.93922" lon="0.65107">
        <ele>471.46</ele>
        <time>2024-02-16T10:52:56.044Z</time>
      </trkpt>
      <trkpt lat="42.93922" lon="0.65107">
        <ele>471.47</ele>
        <time>2024-02-16T10:53:07.958Z</time>
      </trkpt>
      <trkpt lat="42.93921" lon="0.65129">
        <ele>472.25</ele>
        <time>2024-02-16T10:53:19.878Z</time>
      </trkpt>
      <trkpt lat="42.93934" lon="0.65136">
        <ele>472.47</ele>
        <time>2024-02-16T10:53:31.802Z</time>
      </trkpt>
      <trkpt lat="42.93955" lon="0.65137">
        <ele>472.54</ele>
        <time>2024-02-16T10:53:43.733Z</time>
      </trkpt>
      <trkpt lat="42.94373" lon="0.64961">
        <ele>471.55</ele>
        <time>2024-02-16T10:53:55.810Z</time>
      </trkpt>
      <trkpt lat="42.94459" lon="0.64932">
        <ele>471.7</ele>
        <time>2024-02-16T10:54:07.917Z</time>
      </trkpt>
      <trkpt lat="42.94614" lon="0.64894">
        <ele>470.67</ele>
        <time>2024-02-16T10:54:20.076Z</time>
      </trkpt>
      <trkpt lat="42.94614" lon="0.64894">
        <ele>470.15</ele>
        <time>2024-02-16T10:54:32.235Z</time>
      </trkpt>
      <trkpt lat="42.94812" lon="0.64843">
        <ele>469.37</ele>
        <time>2024-02-16T10:54:44.461Z</time>
      </trkpt>
      <trkpt lat="42.94853" lon="0.64832">
        <ele>468.77</ele>
        <time>2024-02-16T10:54:56.701Z</time>
      </trkpt>
      <trkpt lat="42.94882" lon="0.6483">
        <ele>469.15</ele>
        <time>2024-02-16T10:55:08.951Z</time>
      </trkpt>
      <trkpt lat="42.94922" lon="0.6483">
        <ele>470.26</ele>
        <time>2024-02-16T10:55:21.214Z</time>
      </trkpt>
      <trkpt lat="42.94943" lon="0.6483">
        <ele>470.65</ele>
        <time>2024-02-16T10:55:33.484Z</time>
      </trkpt>
      <trkpt lat="42.95077" lon="0.64834">
        <ele>470.31</ele>
        <time>2024-02-16T10:55:45.799Z</time>
      </trkpt>
      <trkpt lat="42.95077" lon="0.64834">
        <ele>470.27</ele>
        <time>2024-02-16T10:55:58.114Z</time>
      </trkpt>
      <trkpt lat="42.9514" lon="0.64838">
        <ele>470.11</ele>
        <time>2024-02-16T10:56:10.450Z</time>
      </trkpt>
      <trkpt lat="42.95167" lon="0.64848">
        <ele>469.7</ele>
        <time>2024-02-16T10:56:22.795Z</time>
      </trkpt>
      <trkpt lat="42.95178" lon="0.64853">
        <ele>469.16</ele>
        <time>2024-02-16T10:56:35.144Z</time>
      </trkpt>
      <trkpt lat="42.95317" lon="0.64912">
        <ele>468.45</ele>
        <time>2024-02-16T10:56:47.542Z</time>
      </trkpt>
      <trkpt lat="42.9535" lon="0.64926">
        <ele>467.53</ele>
        <time>2024-02-16T10:56:59.951Z</time>
      </trkpt>
      <trkpt lat="42.9537" lon="0.64934">
        <ele>466.39</ele>
        <time>2024-02-16T10:57:12.367Z</time>
      </trkpt>
      <trkpt lat="42.95382" lon="0.64949">
        <ele>465.53</ele>
        <time>2024-02-16T10:57:24.788Z</time>
      </trkpt>
      <trkpt lat="42.95388" lon="0.64965">
        <ele>464.95</ele>
        <time>2024-02-16T10:57:37.214Z</time>
      </trkpt>
      <trkpt lat="42.95715" lon="0.65307">
        <ele>464.24</ele>
        <time>2024-02-16T10:57:49.777Z</time>
      </trkpt>
      <trkpt lat="42.95984" lon="0.65589">
        <ele>464.76</ele>
        <time>2024-02-16T10:58:02.453Z</time>
      </trkpt>
      <trkpt lat="42.95984" lon="0.65589">
        <ele>466.14</ele>
        <time>2024-02-16T10:58:15.129Z</time>
      </trkpt>
      <trkpt lat="42.96212" lon="0.65828">
        <ele>469.14</ele>
        <time>2024-02-16T10:58:27.901Z</time>
      </trkpt>
      <trkpt lat="42.96212" lon="0.65828">
        <ele>472.26</ele>
        <time>2024-02-16T10:58:40.673Z</time>
      </trkpt>
      <trkpt lat="42.96347" lon="0.65968">
        <ele>478.24</ele>
        <time>2024-02-16T10:58:53.502Z</time>
      </trkpt>
      <trkpt lat="42.96428" lon="0.66008">
        <ele>482.98</ele>
        <time>2024-02-16T10:59:06.360Z</time>
      </trkpt>
      <trkpt lat="42.96502" lon="0.6604">
        <ele>486.29</ele>
        <time>2024-02-16T10:59:19.243Z</time>
      </trkpt>
      <trkpt lat="42.96517" lon="0.66047">
        <ele>488.99</ele>
        <time>2024-02-16T10:59:32.132Z</time>
      </trkpt>
      <trkpt lat="42.96549" lon="0.66068">
        <ele>491.6</ele>
        <time>2024-02-16T10:59:45.033Z</time>
      </trkpt>
      <trkpt lat="42.96575" lon="0.66083">
        <ele>493.72</ele>
        <time>2024-02-16T10:59:57.943Z</time>
      </trkpt>
      <trkpt lat="42.96597" lon="0.6609">
        <ele>495.42</ele>
        <time>2024-02-16T11:00:10.861Z</time>
      </trkpt>
      <trkpt lat="42.96608" lon="0.66092">
        <ele>497.01</ele>
        <time>2024-02-16T11:00:23.782Z</time>
      </trkpt>
      <trkpt lat="42.96694" lon="0.66072">
        <ele>498.54</ele>
        <time>2024-02-16T11:00:36.732Z</time>
      </trkpt>
      <trkpt lat="42.96719" lon="0.66082">
        <ele>500.61</ele>
        <time>2024-02-16T11:00:49.691Z</time>
      </trkpt>
      <trkpt lat="42.96735" lon="0.66089">
        <ele>501.81</ele>
        <time>2024-02-16T11:01:02.655Z</time>
      </trkpt>
      <trkpt lat="42.96783" lon="0.66079">
        <ele>500.26</ele>
        <time>2024-02-16T11:01:15.636Z</time>
      </trkpt>
      <trkpt lat="42.96825" lon="0.66074">
        <ele>500.46</ele>
        <time>2024-02-16T11:01:28.631Z</time>
      </trkpt>
      <trkpt lat="42.96844" lon="0.66074">
        <ele>501.16</ele>
        <time>2024-02-16T11:01:41.632Z</time>
      </trkpt>
      <trkpt lat="42.96874" lon="0.66093">
        <ele>503.12</ele>
        <time>2024-02-16T11:01:54.644Z</time>
      </trkpt>
      <trkpt lat="42.96892" lon="0.661">
        <ele>504.94</ele>
        <time>2024-02-16T11:02:07.663Z</time>
      </trkpt>
      <trkpt lat="42.96916" lon="0.66103">
        <ele>506.52</ele>
        <time>2024-02-16T11:02:20.689Z</time>
      </trkpt>
      <trkpt lat="42.96934" lon="0.66097">
        <ele>507.63</ele>
        <time>2024-02-16T11:02:33.722Z</time>
      </trkpt>
      <trkpt lat="42.96958" lon="0.66092">
        <ele>509</ele>
        <time>2024-02-16T11:02:46.763Z</time>
      </trkpt>
      <trkpt lat="42.96968" lon="0.6609">
        <ele>510.43</ele>
        <time>2024-02-16T11:02:59.807Z</time>
      </trkpt>
      <trkpt lat="42.97008" lon="0.66091">
        <ele>512.62</ele>
        <time>2024-02-16T11:03:12.864Z</time>
      </trkpt>
      <trkpt lat="42.97087" lon="0.66113">
        <ele>516.48</ele>
        <time>2024-02-16T11:03:25.948Z</time>
      </trkpt>
      <trkpt lat="42.97107" lon="0.66115">
        <ele>519.5</ele>
        <time>2024-02-16T11:03:39.039Z</time>
      </trkpt>
      <trkpt lat="42.97121" lon="0.66113">
        <ele>523.55</ele>
        <time>2024-02-16T11:03:52.135Z</time>
      </trkpt>
      <trkpt lat="42.97122" lon="0.66113">
        <ele>523.57</ele>
        <time>2024-02-16T11:04:05.231Z</time>
      </trkpt>
      <trkpt lat="42.9714" lon="0.6611">
        <ele>524</ele>
        <time>2024-02-16T11:04:18.333Z</time>
      </trkpt>
      <trkpt lat="42.97158" lon="0.66104">
        <ele>524.34</ele>
        <time>2024-02-16T11:04:31.441Z</time>
      </trkpt>
      <trkpt lat="42.97187" lon="0.66096">
        <ele>525.25</ele>
        <time>2024-02-16T11:04:44.559Z</time>
      </trkpt>
      <trkpt lat="42.97235" lon="0.66093">
        <ele>527.12</ele>
        <time>2024-02-16T11:04:57.693Z</time>
      </trkpt>
      <trkpt lat="42.97254" lon="0.66089">
        <ele>528.48</ele>
        <time>2024-02-16T11:05:10.834Z</time>
      </trkpt>
      <trkpt lat="42.97265" lon="0.66081">
        <ele>529.43</ele>
        <time>2024-02-16T11:05:23.979Z</time>
      </trkpt>
      <trkpt lat="42.97273" lon="0.66067">
        <ele>529.89</ele>
        <time>2024-02-16T11:05:37.128Z</time>
      </trkpt>
      <trkpt lat="42.9728" lon="0.66049">
        <ele>530.22</ele>
        <time>2024-02-16T11:05:50.282Z</time>
      </trkpt>
      <trkpt lat="42.9728" lon="0.65991">
        <ele>530.26</ele>
        <time>2024-02-16T11:06:03.450Z</time>
      </trkpt>
      <trkpt lat="42.97286" lon="0.65973">
        <ele>530.44</ele>
        <time>2024-02-16T11:06:16.623Z</time>
      </trkpt>
      <trkpt lat="42.97295" lon="0.65967">
        <ele>530.89</ele>
        <time>2024-02-16T11:06:29.799Z</time>
      </trkpt>
      <trkpt lat="42.97299" lon="0.65964">
        <ele>531.51</ele>
        <time>2024-02-16T11:06:42.977Z</time>
      </trkpt>
      <trkpt lat="42.97332" lon="0.65958">
        <ele>532.74</ele>
        <time>2024-02-16T11:06:56.166Z</time>
      </trkpt>
      <trkpt lat="42.97423" lon="0.65952">
        <ele>534.95</ele>
        <time>2024-02-16T11:07:09.385Z</time>
      </trkpt>
      <trkpt lat="42.97463" lon="0.65939">
        <ele>536.88</ele>
        <time>2024-02-16T11:07:22.618Z</time>
      </trkpt>
      <trkpt lat="42.97481" lon="0.65929">
        <ele>538.64</ele>
        <time>2024-02-16T11:07:35.858Z</time>
      </trkpt>
      <trkpt lat="42.97532" lon="0.65886">
        <ele>540.06</ele>
        <time>2024-02-16T11:07:49.118Z</time>
      </trkpt>
      <trkpt lat="42.97563" lon="0.65858">
        <ele>541.59</ele>
        <time>2024-02-16T11:08:02.390Z</time>
      </trkpt>
      <trkpt lat="42.9758" lon="0.65848">
        <ele>543.1</ele>
        <time>2024-02-16T11:08:15.668Z</time>
      </trkpt>
      <trkpt lat="42.97593" lon="0.65849">
        <ele>544.5</ele>
        <time>2024-02-16T11:08:28.950Z</time>
      </trkpt>
      <trkpt lat="42.97606" lon="0.6586">
        <ele>545.99</ele>
        <time>2024-02-16T11:08:42.237Z</time>
      </trkpt>
      <trkpt lat="42.97612" lon="0.65875">
        <ele>547.54</ele>
        <time>2024-02-16T11:08:55.529Z</time>
      </trkpt>
      <trkpt lat="42.9761" lon="0.65893">
        <ele>548.98</ele>
        <time>2024-02-16T11:09:08.825Z</time>
      </trkpt>
      <trkpt lat="42.97591" lon="0.65929">
        <ele>550.39</ele>
        <time>2024-02-16T11:09:22.132Z</time>
      </trkpt>
      <trkpt lat="42.97588" lon="0.65935">
        <ele>551.55</ele>
        <time>2024-02-16T11:09:35.441Z</time>
      </trkpt>
      <trkpt lat="42.97588" lon="0.65949">
        <ele>552.76</ele>
        <time>2024-02-16T11:09:48.753Z</time>
      </trkpt>
      <trkpt lat="42.97591" lon="0.65996">
        <ele>553.92</ele>
        <time>2024-02-16T11:10:02.077Z</time>
      </trkpt>
      <trkpt lat="42.97587" lon="0.66009">
        <ele>554.91</ele>
        <time>2024-02-16T11:10:15.404Z</time>
      </trkpt>
      <trkpt lat="42.97567" lon="0.66026">
        <ele>555.88</ele>
        <time>2024-02-16T11:10:28.739Z</time>
      </trkpt>
      <trkpt lat="42.97548" lon="0.66036">
        <ele>556.77</ele>
        <time>2024-02-16T11:10:42.081Z</time>
      </trkpt>
      <trkpt lat="42.97502" lon="0.66049">
        <ele>557.35</ele>
        <time>2024-02-16T11:10:55.439Z</time>
      </trkpt>
      <trkpt lat="42.97462" lon="0.66067">
        <ele>558.09</ele>
        <time>2024-02-16T11:11:08.811Z</time>
      </trkpt>
      <trkpt lat="42.97447" lon="0.66077">
        <ele>558.84</ele>
        <time>2024-02-16T11:11:22.188Z</time>
      </trkpt>
      <trkpt lat="42.97441" lon="0.66092">
        <ele>559.71</ele>
        <time>2024-02-16T11:11:35.569Z</time>
      </trkpt>
      <trkpt lat="42.97441" lon="0.66108">
        <ele>560.71</ele>
        <time>2024-02-16T11:11:48.954Z</time>
      </trkpt>
      <trkpt lat="42.97447" lon="0.66123">
        <ele>561.84</ele>
        <time>2024-02-16T11:12:02.344Z</time>
      </trkpt>
      <trkpt lat="42.97463" lon="0.66136">
        <ele>563.06</ele>
        <time>2024-02-16T11:12:15.740Z</time>
      </trkpt>
      <trkpt lat="42.97486" lon="0.66133">
        <ele>564.06</ele>
        <time>2024-02-16T11:12:29.143Z</time>
      </trkpt>
      <trkpt lat="42.97513" lon="0.66122">
        <ele>565.17</ele>
        <time>2024-02-16T11:12:42.556Z</time>
      </trkpt>
      <trkpt lat="42.9754" lon="0.66122">
        <ele>566.35</ele>
        <time>2024-02-16T11:12:55.978Z</time>
      </trkpt>
      <trkpt lat="42.9757" lon="0.66126">
        <ele>567.49</ele>
        <time>2024-02-16T11:13:09.410Z</time>
      </trkpt>
      <trkpt lat="42.97599" lon="0.66136">
        <ele>568.71</ele>
        <time>2024-02-16T11:13:22.852Z</time>
      </trkpt>
      <trkpt lat="42.97628" lon="0.66122">
        <ele>569.86</ele>
        <time>2024-02-16T11:13:36.304Z</time>
      </trkpt>
      <trkpt lat="42.97643" lon="0.66093">
        <ele>570.97</ele>
        <time>2024-02-16T11:13:49.765Z</time>
      </trkpt>
      <trkpt lat="42.97669" lon="0.66075">
        <ele>572.36</ele>
        <time>2024-02-16T11:14:03.236Z</time>
      </trkpt>
      <trkpt lat="42.97684" lon="0.6607">
        <ele>573.76</ele>
        <time>2024-02-16T11:14:16.712Z</time>
      </trkpt>
      <trkpt lat="42.97684" lon="0.6607">
        <ele>575.02</ele>
        <time>2024-02-16T11:14:30.188Z</time>
      </trkpt>
      <trkpt lat="42.97701" lon="0.66066">
        <ele>576.44</ele>
        <time>2024-02-16T11:14:43.670Z</time>
      </trkpt>
      <trkpt lat="42.97722" lon="0.66069">
        <ele>577.83</ele>
        <time>2024-02-16T11:14:57.158Z</time>
      </trkpt>
      <trkpt lat="42.97749" lon="0.66087">
        <ele>579.12</ele>
        <time>2024-02-16T11:15:10.656Z</time>
      </trkpt>
      <trkpt lat="42.9776" lon="0.66114">
        <ele>580.49</ele>
        <time>2024-02-16T11:15:24.162Z</time>
      </trkpt>
      <trkpt lat="42.97761" lon="0.66121">
        <ele>581.91</ele>
        <time>2024-02-16T11:15:37.670Z</time>
      </trkpt>
      <trkpt lat="42.97761" lon="0.6614">
        <ele>583.4</ele>
        <time>2024-02-16T11:15:51.182Z</time>
      </trkpt>
      <trkpt lat="42.97756" lon="0.66172">
        <ele>584.92</ele>
        <time>2024-02-16T11:16:04.702Z</time>
      </trkpt>
      <trkpt lat="42.97704" lon="0.66326">
        <ele>587.09</ele>
        <time>2024-02-16T11:16:18.264Z</time>
      </trkpt>
      <trkpt lat="42.97704" lon="0.66326">
        <ele>588.69</ele>
        <time>2024-02-16T11:16:31.826Z</time>
      </trkpt>
      <trkpt lat="42.97648" lon="0.66462">
        <ele>590.91</ele>
        <time>2024-02-16T11:16:45.426Z</time>
      </trkpt>
      <trkpt lat="42.97623" lon="0.66516">
        <ele>592.59</ele>
        <time>2024-02-16T11:16:59.042Z</time>
      </trkpt>
      <trkpt lat="42.97607" lon="0.66538">
        <ele>594.15</ele>
        <time>2024-02-16T11:17:12.665Z</time>
      </trkpt>
      <trkpt lat="42.97567" lon="0.6657">
        <ele>595.55</ele>
        <time>2024-02-16T11:17:26.304Z</time>
      </trkpt>
      <trkpt lat="42.97421" lon="0.66688">
        <ele>597.15</ele>
        <time>2024-02-16T11:17:39.999Z</time>
      </trkpt>
      <trkpt lat="42.97367" lon="0.66739">
        <ele>598.89</ele>
        <time>2024-02-16T11:17:53.716Z</time>
      </trkpt>
      <trkpt lat="42.97307" lon="0.6679">
        <ele>600.52</ele>
        <time>2024-02-16T11:18:07.457Z</time>
      </trkpt>
      <trkpt lat="42.97307" lon="0.6679">
        <ele>601.98</ele>
        <time>2024-02-16T11:18:21.198Z</time>
      </trkpt>
      <trkpt lat="42.97278" lon="0.66814">
        <ele>603.53</ele>
        <time>2024-02-16T11:18:34.950Z</time>
      </trkpt>
      <trkpt lat="42.97278" lon="0.66814">
        <ele>604.93</ele>
        <time>2024-02-16T11:18:48.702Z</time>
      </trkpt>
      <trkpt lat="42.97261" lon="0.66827">
        <ele>606.45</ele>
        <time>2024-02-16T11:19:02.460Z</time>
      </trkpt>
      <trkpt lat="42.97243" lon="0.6683">
        <ele>608.24</ele>
        <time>2024-02-16T11:19:16.224Z</time>
      </trkpt>
      <trkpt lat="42.97234" lon="0.66829">
        <ele>609.82</ele>
        <time>2024-02-16T11:19:29.992Z</time>
      </trkpt>
      <trkpt lat="42.97214" lon="0.66815">
        <ele>611.62</ele>
        <time>2024-02-16T11:19:43.767Z</time>
      </trkpt>
      <trkpt lat="42.97162" lon="0.66724">
        <ele>612.71</ele>
        <time>2024-02-16T11:19:57.570Z</time>
      </trkpt>
      <trkpt lat="42.97138" lon="0.66684">
        <ele>613.78</ele>
        <time>2024-02-16T11:20:11.386Z</time>
      </trkpt>
      <trkpt lat="42.97091" lon="0.66621">
        <ele>614.76</ele>
        <time>2024-02-16T11:20:25.224Z</time>
      </trkpt>
      <trkpt lat="42.97077" lon="0.66613">
        <ele>615.95</ele>
        <time>2024-02-16T11:20:39.067Z</time>
      </trkpt>
      <trkpt lat="42.97068" lon="0.66616">
        <ele>617.35</ele>
        <time>2024-02-16T11:20:52.913Z</time>
      </trkpt>
      <trkpt lat="42.97061" lon="0.66619">
        <ele>618.78</ele>
        <time>2024-02-16T11:21:06.761Z</time>
      </trkpt>
      <trkpt lat="42.97051" lon="0.66635">
        <ele>620.48</ele>
        <time>2024-02-16T11:21:20.615Z</time>
      </trkpt>
      <trkpt lat="42.9705" lon="0.66652">
        <ele>622.21</ele>
        <time>2024-02-16T11:21:34.473Z</time>
      </trkpt>
      <trkpt lat="42.97059" lon="0.66671">
        <ele>624</ele>
        <time>2024-02-16T11:21:48.336Z</time>
      </trkpt>
      <trkpt lat="42.97124" lon="0.66736">
        <ele>626.26</ele>
        <time>2024-02-16T11:22:02.226Z</time>
      </trkpt>
      <trkpt lat="42.9716" lon="0.66771">
        <ele>627.81</ele>
        <time>2024-02-16T11:22:16.131Z</time>
      </trkpt>
      <trkpt lat="42.97172" lon="0.66804">
        <ele>629.71</ele>
        <time>2024-02-16T11:22:30.045Z</time>
      </trkpt>
      <trkpt lat="42.97177" lon="0.66846">
        <ele>631.84</ele>
        <time>2024-02-16T11:22:43.969Z</time>
      </trkpt>
      <trkpt lat="42.97176" lon="0.66882">
        <ele>634.04</ele>
        <time>2024-02-16T11:22:57.902Z</time>
      </trkpt>
      <trkpt lat="42.9718" lon="0.66903">
        <ele>636.06</ele>
        <time>2024-02-16T11:23:11.840Z</time>
      </trkpt>
      <trkpt lat="42.97205" lon="0.66936">
        <ele>638.01</ele>
        <time>2024-02-16T11:23:25.790Z</time>
      </trkpt>
      <trkpt lat="42.9723" lon="0.66966">
        <ele>639.79</ele>
        <time>2024-02-16T11:23:39.751Z</time>
      </trkpt>
      <trkpt lat="42.97243" lon="0.66994">
        <ele>641.9</ele>
        <time>2024-02-16T11:23:53.720Z</time>
      </trkpt>
      <trkpt lat="42.97245" lon="0.67023">
        <ele>644.42</ele>
        <time>2024-02-16T11:24:07.697Z</time>
      </trkpt>
      <trkpt lat="42.97253" lon="0.67033">
        <ele>646.67</ele>
        <time>2024-02-16T11:24:21.677Z</time>
      </trkpt>
      <trkpt lat="42.97348" lon="0.67071">
        <ele>648.99</ele>
        <time>2024-02-16T11:24:35.690Z</time>
      </trkpt>
      <trkpt lat="42.97348" lon="0.67071">
        <ele>651.49</ele>
        <time>2024-02-16T11:24:49.703Z</time>
      </trkpt>
      <trkpt lat="42.97418" lon="0.67073">
        <ele>654.44</ele>
        <time>2024-02-16T11:25:03.739Z</time>
      </trkpt>
      <trkpt lat="42.97437" lon="0.67081">
        <ele>657.34</ele>
        <time>2024-02-16T11:25:17.782Z</time>
      </trkpt>
      <trkpt lat="42.97496" lon="0.67117">
        <ele>660.67</ele>
        <time>2024-02-16T11:25:31.847Z</time>
      </trkpt>
      <trkpt lat="42.97529" lon="0.67129">
        <ele>663.92</ele>
        <time>2024-02-16T11:25:45.923Z</time>
      </trkpt>
      <trkpt lat="42.97546" lon="0.6714">
        <ele>667.24</ele>
        <time>2024-02-16T11:26:00.005Z</time>
      </trkpt>
      <trkpt lat="42.97639" lon="0.67216">
        <ele>670.86</ele>
        <time>2024-02-16T11:26:14.123Z</time>
      </trkpt>
      <trkpt lat="42.97657" lon="0.67217">
        <ele>674.23</ele>
        <time>2024-02-16T11:26:28.247Z</time>
      </trkpt>
      <trkpt lat="42.97682" lon="0.67211">
        <ele>677.73</ele>
        <time>2024-02-16T11:26:42.380Z</time>
      </trkpt>
      <trkpt lat="42.9772" lon="0.67209">
        <ele>681.59</ele>
        <time>2024-02-16T11:26:56.525Z</time>
      </trkpt>
      <trkpt lat="42.97751" lon="0.67223">
        <ele>685.52</ele>
        <time>2024-02-16T11:27:10.681Z</time>
      </trkpt>
      <trkpt lat="42.97829" lon="0.67307">
        <ele>689.93</ele>
        <time>2024-02-16T11:27:24.871Z</time>
      </trkpt>
      <trkpt lat="42.97964" lon="0.67526">
        <ele>694.94</ele>
        <time>2024-02-16T11:27:39.131Z</time>
      </trkpt>
      <trkpt lat="42.98008" lon="0.67588">
        <ele>698.51</ele>
        <time>2024-02-16T11:27:53.412Z</time>
      </trkpt>
      <trkpt lat="42.9806" lon="0.67644">
        <ele>702.12</ele>
        <time>2024-02-16T11:28:07.715Z</time>
      </trkpt>
      <trkpt lat="42.98182" lon="0.67731">
        <ele>705.53</ele>
        <time>2024-02-16T11:28:22.064Z</time>
      </trkpt>
      <trkpt lat="42.98206" lon="0.67767">
        <ele>709.28</ele>
        <time>2024-02-16T11:28:36.424Z</time>
      </trkpt>
      <trkpt lat="42.98215" lon="0.67818">
        <ele>712.84</ele>
        <time>2024-02-16T11:28:50.797Z</time>
      </trkpt>
      <trkpt lat="42.98218" lon="0.67895">
        <ele>716.81</ele>
        <time>2024-02-16T11:29:05.189Z</time>
      </trkpt>
      <trkpt lat="42.98226" lon="0.67939">
        <ele>720.34</ele>
        <time>2024-02-16T11:29:19.592Z</time>
      </trkpt>
      <trkpt lat="42.98237" lon="0.67966">
        <ele>723.34</ele>
        <time>2024-02-16T11:29:34.003Z</time>
      </trkpt>
      <trkpt lat="42.98251" lon="0.67981">
        <ele>726.01</ele>
        <time>2024-02-16T11:29:48.420Z</time>
      </trkpt>
      <trkpt lat="42.98285" lon="0.67988">
        <ele>728.25</ele>
        <time>2024-02-16T11:30:02.848Z</time>
      </trkpt>
      <trkpt lat="42.98314" lon="0.67986">
        <ele>730.61</ele>
        <time>2024-02-16T11:30:17.286Z</time>
      </trkpt>
      <trkpt lat="42.9839" lon="0.68023">
        <ele>733.44</ele>
        <time>2024-02-16T11:30:31.751Z</time>
      </trkpt>
      <trkpt lat="42.9842" lon="0.68048">
        <ele>736.25</ele>
        <time>2024-02-16T11:30:46.228Z</time>
      </trkpt>
      <trkpt lat="42.98449" lon="0.68078">
        <ele>738.76</ele>
        <time>2024-02-16T11:31:00.717Z</time>
      </trkpt>
      <trkpt lat="42.98487" lon="0.6813">
        <ele>741.29</ele>
        <time>2024-02-16T11:31:15.224Z</time>
      </trkpt>
      <trkpt lat="42.98503" lon="0.68167">
        <ele>743.69</ele>
        <time>2024-02-16T11:31:29.741Z</time>
      </trkpt>
      <trkpt lat="42.98503" lon="0.68167">
        <ele>745.75</ele>
        <time>2024-02-16T11:31:44.258Z</time>
      </trkpt>
      <trkpt lat="42.98529" lon="0.68227">
        <ele>747.78</ele>
        <time>2024-02-16T11:31:58.792Z</time>
      </trkpt>
      <trkpt lat="42.98548" lon="0.68317">
        <ele>750.14</ele>
        <time>2024-02-16T11:32:13.349Z</time>
      </trkpt>
      <trkpt lat="42.98548" lon="0.68343">
        <ele>752</ele>
        <time>2024-02-16T11:32:27.912Z</time>
      </trkpt>
      <trkpt lat="42.98542" lon="0.68366">
        <ele>754.11</ele>
        <time>2024-02-16T11:32:42.481Z</time>
      </trkpt>
      <trkpt lat="42.98542" lon="0.68386">
        <ele>755.96</ele>
        <time>2024-02-16T11:32:57.055Z</time>
      </trkpt>
      <trkpt lat="42.9855" lon="0.68405">
        <ele>757.58</ele>
        <time>2024-02-16T11:33:11.634Z</time>
      </trkpt>
      <trkpt lat="42.98563" lon="0.6842">
        <ele>759.03</ele>
        <time>2024-02-16T11:33:26.219Z</time>
      </trkpt>
      <trkpt lat="42.98605" lon="0.68467">
        <ele>760.99</ele>
        <time>2024-02-16T11:33:40.822Z</time>
      </trkpt>
      <trkpt lat="42.98638" lon="0.68496">
        <ele>762.51</ele>
        <time>2024-02-16T11:33:55.438Z</time>
      </trkpt>
      <trkpt lat="42.98654" lon="0.68515">
        <ele>764.15</ele>
        <time>2024-02-16T11:34:10.062Z</time>
      </trkpt>
      <trkpt lat="42.98662" lon="0.68528">
        <ele>765.88</ele>
        <time>2024-02-16T11:34:24.690Z</time>
      </trkpt>
      <trkpt lat="42.98687" lon="0.68577">
        <ele>767.97</ele>
        <time>2024-02-16T11:34:39.332Z</time>
      </trkpt>
      <trkpt lat="42.98699" lon="0.68602">
        <ele>769.76</ele>
        <time>2024-02-16T11:34:53.982Z</time>
      </trkpt>
      <trkpt lat="42.98707" lon="0.68628">
        <ele>771.47</ele>
        <time>2024-02-16T11:35:08.638Z</time>
      </trkpt>
      <trkpt lat="42.98735" lon="0.68763">
        <ele>773.07</ele>
        <time>2024-02-16T11:35:23.329Z</time>
      </trkpt>
      <trkpt lat="42.98738" lon="0.68802">
        <ele>774.22</ele>
        <time>2024-02-16T11:35:38.029Z</time>
      </trkpt>
      <trkpt lat="42.98736" lon="0.6883">
        <ele>775.09</ele>
        <time>2024-02-16T11:35:52.736Z</time>
      </trkpt>
      <trkpt lat="42.98724" lon="0.68875">
        <ele>776.43</ele>
        <time>2024-02-16T11:36:07.455Z</time>
      </trkpt>
      <trkpt lat="42.98728" lon="0.68901">
        <ele>777.19</ele>
        <time>2024-02-16T11:36:22.180Z</time>
      </trkpt>
      <trkpt lat="42.98741" lon="0.68919">
        <ele>777.69</ele>
        <time>2024-02-16T11:36:36.911Z</time>
      </trkpt>
      <trkpt lat="42.98761" lon="0.68928">
        <ele>778.14</ele>
        <time>2024-02-16T11:36:51.650Z</time>
      </trkpt>
      <trkpt lat="42.98803" lon="0.68936">
        <ele>778.91</ele>
        <time>2024-02-16T11:37:06.403Z</time>
      </trkpt>
      <trkpt lat="42.98823" lon="0.68949">
        <ele>780.39</ele>
        <time>2024-02-16T11:37:21.163Z</time>
      </trkpt>
      <trkpt lat="42.98835" lon="0.68972">
        <ele>782.18</ele>
        <time>2024-02-16T11:37:35.930Z</time>
      </trkpt>
      <trkpt lat="42.98882" lon="0.69096">
        <ele>783.97</ele>
        <time>2024-02-16T11:37:50.731Z</time>
      </trkpt>
      <trkpt lat="42.98885" lon="0.69116">
        <ele>785.45</ele>
        <time>2024-02-16T11:38:05.537Z</time>
      </trkpt>
      <trkpt lat="42.98885" lon="0.69116">
        <ele>786.92</ele>
        <time>2024-02-16T11:38:20.343Z</time>
      </trkpt>
      <trkpt lat="42.98892" lon="0.6916">
        <ele>788.57</ele>
        <time>2024-02-16T11:38:35.160Z</time>
      </trkpt>
      <trkpt lat="42.98875" lon="0.6922">
        <ele>790.69</ele>
        <time>2024-02-16T11:38:49.993Z</time>
      </trkpt>
      <trkpt lat="42.9888" lon="0.69256">
        <ele>792.26</ele>
        <time>2024-02-16T11:39:04.835Z</time>
      </trkpt>
      <trkpt lat="42.98882" lon="0.69259">
        <ele>793.44</ele>
        <time>2024-02-16T11:39:19.678Z</time>
      </trkpt>
      <trkpt lat="42.98885" lon="0.69263">
        <ele>794.57</ele>
        <time>2024-02-16T11:39:34.522Z</time>
      </trkpt>
      <trkpt lat="42.9893" lon="0.69346">
        <ele>795.79</ele>
        <time>2024-02-16T11:39:49.391Z</time>
      </trkpt>
      <trkpt lat="42.98941" lon="0.69351">
        <ele>796.81</ele>
        <time>2024-02-16T11:40:04.264Z</time>
      </trkpt>
      <trkpt lat="42.9896" lon="0.69354">
        <ele>797.69</ele>
        <time>2024-02-16T11:40:19.144Z</time>
      </trkpt>
      <trkpt lat="42.98964" lon="0.69355">
        <ele>798.59</ele>
        <time>2024-02-16T11:40:34.025Z</time>
      </trkpt>
      <trkpt lat="42.98972" lon="0.69352">
        <ele>799.38</ele>
        <time>2024-02-16T11:40:48.909Z</time>
      </trkpt>
      <trkpt lat="42.98985" lon="0.69346">
        <ele>800.05</ele>
        <time>2024-02-16T11:41:03.797Z</time>
      </trkpt>
      <trkpt lat="42.99009" lon="0.6933">
        <ele>800.69</ele>
        <time>2024-02-16T11:41:18.694Z</time>
      </trkpt>
      <trkpt lat="42.99015" lon="0.69328">
        <ele>801.66</ele>
        <time>2024-02-16T11:41:33.593Z</time>
      </trkpt>
      <trkpt lat="42.99034" lon="0.69328">
        <ele>802.9</ele>
        <time>2024-02-16T11:41:48.499Z</time>
      </trkpt>
      <trkpt lat="42.99048" lon="0.69334">
        <ele>804.07</ele>
        <time>2024-02-16T11:42:03.410Z</time>
      </trkpt>
      <trkpt lat="42.99061" lon="0.69339">
        <ele>804.85</ele>
        <time>2024-02-16T11:42:18.325Z</time>
      </trkpt>
      <trkpt lat="42.99089" lon="0.69369">
        <ele>805.45</ele>
        <time>2024-02-16T11:42:33.252Z</time>
      </trkpt>
      <trkpt lat="42.99093" lon="0.69375">
        <ele>805.38</ele>
        <time>2024-02-16T11:42:48.181Z</time>
      </trkpt>
      <trkpt lat="42.991" lon="0.69396">
        <ele>805.08</ele>
        <time>2024-02-16T11:43:03.116Z</time>
      </trkpt>
      <trkpt lat="42.99106" lon="0.69435">
        <ele>804.5</ele>
        <time>2024-02-16T11:43:18.060Z</time>
      </trkpt>
      <trkpt lat="42.9911" lon="0.69491">
        <ele>803.66</ele>
        <time>2024-02-16T11:43:33.018Z</time>
      </trkpt>
      <trkpt lat="42.9913" lon="0.69565">
        <ele>803.24</ele>
        <time>2024-02-16T11:43:47.995Z</time>
      </trkpt>
      <trkpt lat="42.99135" lon="0.69598">
        <ele>803.49</ele>
        <time>2024-02-16T11:44:02.981Z</time>
      </trkpt>
      <trkpt lat="42.99136" lon="0.69614">
        <ele>803.53</ele>
        <time>2024-02-16T11:44:17.971Z</time>
      </trkpt>
      <trkpt lat="42.99136" lon="0.69615">
        <ele>803.54</ele>
        <time>2024-02-16T11:44:32.961Z</time>
      </trkpt>
      <trkpt lat="42.99136" lon="0.69615">
        <ele>796.52</ele>
        <time>2024-02-16T11:44:47.951Z</time>
      </trkpt>
      <trkpt lat="42.99148" lon="0.69833">
        <ele>795</ele>
        <time>2024-02-16T11:45:02.994Z</time>
      </trkpt>
      <trkpt lat="42.99153" lon="0.69867">
        <ele>793.25</ele>
        <time>2024-02-16T11:45:18.046Z</time>
      </trkpt>
      <trkpt lat="42.99154" lon="0.69893">
        <ele>791.67</ele>
        <time>2024-02-16T11:45:33.104Z</time>
      </trkpt>
      <trkpt lat="42.99142" lon="0.69937">
        <ele>790.41</ele>
        <time>2024-02-16T11:45:48.174Z</time>
      </trkpt>
      <trkpt lat="42.99141" lon="0.69968">
        <ele>789.03</ele>
        <time>2024-02-16T11:46:03.251Z</time>
      </trkpt>
      <trkpt lat="42.99144" lon="0.70013">
        <ele>787.55</ele>
        <time>2024-02-16T11:46:18.339Z</time>
      </trkpt>
      <trkpt lat="42.99154" lon="0.70102">
        <ele>785.81</ele>
        <time>2024-02-16T11:46:33.449Z</time>
      </trkpt>
      <trkpt lat="42.99159" lon="0.7017">
        <ele>784.12</ele>
        <time>2024-02-16T11:46:48.576Z</time>
      </trkpt>
      <trkpt lat="42.99162" lon="0.70205">
        <ele>782.54</ele>
        <time>2024-02-16T11:47:03.712Z</time>
      </trkpt>
      <trkpt lat="42.9916" lon="0.70233">
        <ele>780.99</ele>
        <time>2024-02-16T11:47:18.854Z</time>
      </trkpt>
      <trkpt lat="42.99156" lon="0.70256">
        <ele>779.82</ele>
        <time>2024-02-16T11:47:34.002Z</time>
      </trkpt>
      <trkpt lat="42.99148" lon="0.7027">
        <ele>779.02</ele>
        <time>2024-02-16T11:47:49.155Z</time>
      </trkpt>
      <trkpt lat="42.99099" lon="0.70309">
        <ele>779.41</ele>
        <time>2024-02-16T11:48:04.326Z</time>
      </trkpt>
      <trkpt lat="42.99092" lon="0.70319">
        <ele>779.54</ele>
        <time>2024-02-16T11:48:19.501Z</time>
      </trkpt>
      <trkpt lat="42.99092" lon="0.70319">
        <ele>779.69</ele>
        <time>2024-02-16T11:48:34.676Z</time>
      </trkpt>
      <trkpt lat="42.99085" lon="0.70329">
        <ele>779.88</ele>
        <time>2024-02-16T11:48:49.854Z</time>
      </trkpt>
      <trkpt lat="42.99082" lon="0.70336">
        <ele>780.02</ele>
        <time>2024-02-16T11:49:05.034Z</time>
      </trkpt>
      <trkpt lat="42.99081" lon="0.70348">
        <ele>779.97</ele>
        <time>2024-02-16T11:49:20.217Z</time>
      </trkpt>
      <trkpt lat="42.99082" lon="0.7037">
        <ele>779.72</ele>
        <time>2024-02-16T11:49:35.406Z</time>
      </trkpt>
      <trkpt lat="42.99081" lon="0.70415">
        <ele>778.92</ele>
        <time>2024-02-16T11:49:50.606Z</time>
      </trkpt>
      <trkpt lat="42.99077" lon="0.70429">
        <ele>778.22</ele>
        <time>2024-02-16T11:50:05.809Z</time>
      </trkpt>
      <trkpt lat="42.99059" lon="0.70458">
        <ele>777.76</ele>
        <time>2024-02-16T11:50:21.022Z</time>
      </trkpt>
      <trkpt lat="42.99046" lon="0.70482">
        <ele>777.33</ele>
        <time>2024-02-16T11:50:36.242Z</time>
      </trkpt>
      <trkpt lat="42.9904" lon="0.70509">
        <ele>776.41</ele>
        <time>2024-02-16T11:50:51.469Z</time>
      </trkpt>
      <trkpt lat="42.99038" lon="0.70537">
        <ele>775.3</ele>
        <time>2024-02-16T11:51:06.703Z</time>
      </trkpt>
      <trkpt lat="42.9904" lon="0.70587">
        <ele>773.46</ele>
        <time>2024-02-16T11:51:21.949Z</time>
      </trkpt>
      <trkpt lat="42.99039" lon="0.70612">
        <ele>771.66</ele>
        <time>2024-02-16T11:51:37.201Z</time>
      </trkpt>
      <trkpt lat="42.99018" lon="0.70699">
        <ele>770.3</ele>
        <time>2024-02-16T11:51:52.475Z</time>
      </trkpt>
      <trkpt lat="42.99005" lon="0.70742">
        <ele>768.04</ele>
        <time>2024-02-16T11:52:07.761Z</time>
      </trkpt>
      <trkpt lat="42.98991" lon="0.70773">
        <ele>765.81</ele>
        <time>2024-02-16T11:52:23.056Z</time>
      </trkpt>
      <trkpt lat="42.98971" lon="0.70797">
        <ele>763.78</ele>
        <time>2024-02-16T11:52:38.360Z</time>
      </trkpt>
      <trkpt lat="42.98952" lon="0.70824">
        <ele>761.68</ele>
        <time>2024-02-16T11:52:53.673Z</time>
      </trkpt>
      <trkpt lat="42.98943" lon="0.70845">
        <ele>759.25</ele>
        <time>2024-02-16T11:53:08.992Z</time>
      </trkpt>
      <trkpt lat="42.9893" lon="0.70885">
        <ele>756.4</ele>
        <time>2024-02-16T11:53:24.321Z</time>
      </trkpt>
      <trkpt lat="42.98926" lon="0.70927">
        <ele>753.34</ele>
        <time>2024-02-16T11:53:39.661Z</time>
      </trkpt>
      <trkpt lat="42.98927" lon="0.7095">
        <ele>750.24</ele>
        <time>2024-02-16T11:53:55.006Z</time>
      </trkpt>
      <trkpt lat="42.98932" lon="0.71">
        <ele>747.04</ele>
        <time>2024-02-16T11:54:10.364Z</time>
      </trkpt>
      <trkpt lat="42.98936" lon="0.71081">
        <ele>743.48</ele>
        <time>2024-02-16T11:54:25.742Z</time>
      </trkpt>
      <trkpt lat="42.98934" lon="0.71112">
        <ele>740.11</ele>
        <time>2024-02-16T11:54:41.127Z</time>
      </trkpt>
      <trkpt lat="42.9893" lon="0.7114">
        <ele>736.77</ele>
        <time>2024-02-16T11:54:56.519Z</time>
      </trkpt>
      <trkpt lat="42.9892" lon="0.71178">
        <ele>733.46</ele>
        <time>2024-02-16T11:55:11.921Z</time>
      </trkpt>
      <trkpt lat="42.98902" lon="0.7123">
        <ele>729.95</ele>
        <time>2024-02-16T11:55:27.337Z</time>
      </trkpt>
      <trkpt lat="42.9888" lon="0.71266">
        <ele>726.61</ele>
        <time>2024-02-16T11:55:42.765Z</time>
      </trkpt>
      <trkpt lat="42.98857" lon="0.71286">
        <ele>723.02</ele>
        <time>2024-02-16T11:55:58.202Z</time>
      </trkpt>
      <trkpt lat="42.98838" lon="0.71288">
        <ele>719.74</ele>
        <time>2024-02-16T11:56:13.645Z</time>
      </trkpt>
      <trkpt lat="42.98786" lon="0.71279">
        <ele>716.63</ele>
        <time>2024-02-16T11:56:29.105Z</time>
      </trkpt>
      <trkpt lat="42.98764" lon="0.71281">
        <ele>713.51</ele>
        <time>2024-02-16T11:56:44.573Z</time>
      </trkpt>
      <trkpt lat="42.98725" lon="0.71291">
        <ele>710.3</ele>
        <time>2024-02-16T11:57:00.054Z</time>
      </trkpt>
      <trkpt lat="42.98661" lon="0.71293">
        <ele>706.57</ele>
        <time>2024-02-16T11:57:15.557Z</time>
      </trkpt>
      <trkpt lat="42.98632" lon="0.71288">
        <ele>703.1</ele>
        <time>2024-02-16T11:57:31.069Z</time>
      </trkpt>
      <trkpt lat="42.98533" lon="0.71231">
        <ele>700.1</ele>
        <time>2024-02-16T11:57:46.617Z</time>
      </trkpt>
      <trkpt lat="42.98533" lon="0.71231">
        <ele>697.19</ele>
        <time>2024-02-16T11:58:02.165Z</time>
      </trkpt>
      <trkpt lat="42.98501" lon="0.71209">
        <ele>693.86</ele>
        <time>2024-02-16T11:58:17.725Z</time>
      </trkpt>
      <trkpt lat="42.98477" lon="0.71178">
        <ele>690.92</ele>
        <time>2024-02-16T11:58:33.296Z</time>
      </trkpt>
      <trkpt lat="42.98443" lon="0.71129">
        <ele>688.2</ele>
        <time>2024-02-16T11:58:48.884Z</time>
      </trkpt>
      <trkpt lat="42.98385" lon="0.71056">
        <ele>685.64</ele>
        <time>2024-02-16T11:59:04.498Z</time>
      </trkpt>
      <trkpt lat="42.98358" lon="0.71056">
        <ele>682.52</ele>
        <time>2024-02-16T11:59:20.121Z</time>
      </trkpt>
      <trkpt lat="42.98341" lon="0.71046">
        <ele>679.77</ele>
        <time>2024-02-16T11:59:35.750Z</time>
      </trkpt>
      <trkpt lat="42.98332" lon="0.71016">
        <ele>677.28</ele>
        <time>2024-02-16T11:59:51.387Z</time>
      </trkpt>
      <trkpt lat="42.98317" lon="0.70922">
        <ele>675.05</ele>
        <time>2024-02-16T12:00:07.047Z</time>
      </trkpt>
      <trkpt lat="42.9829" lon="0.70885">
        <ele>672.45</ele>
        <time>2024-02-16T12:00:22.720Z</time>
      </trkpt>
      <trkpt lat="42.98242" lon="0.70844">
        <ele>669.71</ele>
        <time>2024-02-16T12:00:38.412Z</time>
      </trkpt>
      <trkpt lat="42.9823" lon="0.70826">
        <ele>667.25</ele>
        <time>2024-02-16T12:00:54.110Z</time>
      </trkpt>
      <trkpt lat="42.98225" lon="0.70803">
        <ele>664.96</ele>
        <time>2024-02-16T12:01:09.814Z</time>
      </trkpt>
      <trkpt lat="42.98218" lon="0.70764">
        <ele>662.73</ele>
        <time>2024-02-16T12:01:25.528Z</time>
      </trkpt>
      <trkpt lat="42.98212" lon="0.70683">
        <ele>661.18</ele>
        <time>2024-02-16T12:01:41.262Z</time>
      </trkpt>
      <trkpt lat="42.98207" lon="0.70668">
        <ele>659.47</ele>
        <time>2024-02-16T12:01:57.000Z</time>
      </trkpt>
      <trkpt lat="42.98193" lon="0.70653">
        <ele>657.65</ele>
        <time>2024-02-16T12:02:12.744Z</time>
      </trkpt>
      <trkpt lat="42.98142" lon="0.70641">
        <ele>654.56</ele>
        <time>2024-02-16T12:02:28.505Z</time>
      </trkpt>
      <trkpt lat="42.98132" lon="0.70628">
        <ele>652.5</ele>
        <time>2024-02-16T12:02:44.271Z</time>
      </trkpt>
      <trkpt lat="42.98115" lon="0.70581">
        <ele>650.72</ele>
        <time>2024-02-16T12:03:00.049Z</time>
      </trkpt>
      <trkpt lat="42.98104" lon="0.70536">
        <ele>648.68</ele>
        <time>2024-02-16T12:03:15.839Z</time>
      </trkpt>
      <trkpt lat="42.98097" lon="0.70491">
        <ele>646.65</ele>
        <time>2024-02-16T12:03:31.640Z</time>
      </trkpt>
      <trkpt lat="42.98088" lon="0.70437">
        <ele>644.93</ele>
        <time>2024-02-16T12:03:47.455Z</time>
      </trkpt>
      <trkpt lat="42.9806" lon="0.70346">
        <ele>643.19</ele>
        <time>2024-02-16T12:04:03.294Z</time>
      </trkpt>
      <trkpt lat="42.98038" lon="0.70284">
        <ele>641.4</ele>
        <time>2024-02-16T12:04:19.150Z</time>
      </trkpt>
      <trkpt lat="42.98012" lon="0.70219">
        <ele>640.02</ele>
        <time>2024-02-16T12:04:35.024Z</time>
      </trkpt>
      <trkpt lat="42.98006" lon="0.70213">
        <ele>638.51</ele>
        <time>2024-02-16T12:04:50.900Z</time>
      </trkpt>
      <trkpt lat="42.97997" lon="0.70212">
        <ele>636.97</ele>
        <time>2024-02-16T12:05:06.779Z</time>
      </trkpt>
      <trkpt lat="42.97991" lon="0.70217">
        <ele>635.52</ele>
        <time>2024-02-16T12:05:22.661Z</time>
      </trkpt>
      <trkpt lat="42.97988" lon="0.70226">
        <ele>634.24</ele>
        <time>2024-02-16T12:05:38.545Z</time>
      </trkpt>
      <trkpt lat="42.97987" lon="0.7024">
        <ele>633.03</ele>
        <time>2024-02-16T12:05:54.433Z</time>
      </trkpt>
      <trkpt lat="42.97993" lon="0.70255">
        <ele>632.12</ele>
        <time>2024-02-16T12:06:10.325Z</time>
      </trkpt>
      <trkpt lat="42.98007" lon="0.70266">
        <ele>631.57</ele>
        <time>2024-02-16T12:06:26.222Z</time>
      </trkpt>
      <trkpt lat="42.98016" lon="0.70277">
        <ele>630.97</ele>
        <time>2024-02-16T12:06:42.123Z</time>
      </trkpt>
      <trkpt lat="42.9802" lon="0.70292">
        <ele>630.29</ele>
        <time>2024-02-16T12:06:58.028Z</time>
      </trkpt>
      <trkpt lat="42.98023" lon="0.70314">
        <ele>629.71</ele>
        <time>2024-02-16T12:07:13.938Z</time>
      </trkpt>
      <trkpt lat="42.98028" lon="0.70402">
        <ele>629.04</ele>
        <time>2024-02-16T12:07:29.870Z</time>
      </trkpt>
      <trkpt lat="42.98031" lon="0.70418">
        <ele>628.47</ele>
        <time>2024-02-16T12:07:45.806Z</time>
      </trkpt>
      <trkpt lat="42.98041" lon="0.70441">
        <ele>627.99</ele>
        <time>2024-02-16T12:08:01.749Z</time>
      </trkpt>
      <trkpt lat="42.98047" lon="0.70462">
        <ele>627.33</ele>
        <time>2024-02-16T12:08:17.697Z</time>
      </trkpt>
      <trkpt lat="42.98048" lon="0.70481">
        <ele>626.56</ele>
        <time>2024-02-16T12:08:33.650Z</time>
      </trkpt>
      <trkpt lat="42.98047" lon="0.70528">
        <ele>625.63</ele>
        <time>2024-02-16T12:08:49.615Z</time>
      </trkpt>
      <trkpt lat="42.98066" lon="0.70623">
        <ele>625.21</ele>
        <time>2024-02-16T12:09:05.603Z</time>
      </trkpt>
      <trkpt lat="42.98067" lon="0.70646">
        <ele>624.26</ele>
        <time>2024-02-16T12:09:21.597Z</time>
      </trkpt>
      <trkpt lat="42.98066" lon="0.70693">
        <ele>623.07</ele>
        <time>2024-02-16T12:09:37.603Z</time>
      </trkpt>
      <trkpt lat="42.9807" lon="0.70717">
        <ele>622.18</ele>
        <time>2024-02-16T12:09:53.615Z</time>
      </trkpt>
      <trkpt lat="42.9808" lon="0.70734">
        <ele>621.4</ele>
        <time>2024-02-16T12:10:09.632Z</time>
      </trkpt>
      <trkpt lat="42.98109" lon="0.70747">
        <ele>621</ele>
        <time>2024-02-16T12:10:25.659Z</time>
      </trkpt>
      <trkpt lat="42.98118" lon="0.70755">
        <ele>620.2</ele>
        <time>2024-02-16T12:10:41.690Z</time>
      </trkpt>
      <trkpt lat="42.98123" lon="0.70766">
        <ele>619.27</ele>
        <time>2024-02-16T12:10:57.724Z</time>
      </trkpt>
      <trkpt lat="42.98124" lon="0.70778">
        <ele>618.19</ele>
        <time>2024-02-16T12:11:13.761Z</time>
      </trkpt>
      <trkpt lat="42.98112" lon="0.70831">
        <ele>616.35</ele>
        <time>2024-02-16T12:11:29.811Z</time>
      </trkpt>
      <trkpt lat="42.9811" lon="0.70853">
        <ele>614.93</ele>
        <time>2024-02-16T12:11:45.867Z</time>
      </trkpt>
      <trkpt lat="42.98112" lon="0.70875">
        <ele>613.66</ele>
        <time>2024-02-16T12:12:01.928Z</time>
      </trkpt>
      <trkpt lat="42.98118" lon="0.70895">
        <ele>612.46</ele>
        <time>2024-02-16T12:12:17.995Z</time>
      </trkpt>
      <trkpt lat="42.98132" lon="0.70921">
        <ele>611.41</ele>
        <time>2024-02-16T12:12:34.069Z</time>
      </trkpt>
      <trkpt lat="42.9815" lon="0.70947">
        <ele>610.27</ele>
        <time>2024-02-16T12:12:50.152Z</time>
      </trkpt>
      <trkpt lat="42.98156" lon="0.70964">
        <ele>608.83</ele>
        <time>2024-02-16T12:13:06.240Z</time>
      </trkpt>
      <trkpt lat="42.98156" lon="0.70981">
        <ele>607.2</ele>
        <time>2024-02-16T12:13:22.332Z</time>
      </trkpt>
      <trkpt lat="42.98153" lon="0.71048">
        <ele>605.28</ele>
        <time>2024-02-16T12:13:38.441Z</time>
      </trkpt>
      <trkpt lat="42.98155" lon="0.71076">
        <ele>603.76</ele>
        <time>2024-02-16T12:13:54.556Z</time>
      </trkpt>
      <trkpt lat="42.98155" lon="0.71076">
        <ele>602.34</ele>
        <time>2024-02-16T12:14:10.671Z</time>
      </trkpt>
      <trkpt lat="42.98161" lon="0.711">
        <ele>600.91</ele>
        <time>2024-02-16T12:14:26.793Z</time>
      </trkpt>
      <trkpt lat="42.98172" lon="0.71136">
        <ele>599.47</ele>
        <time>2024-02-16T12:14:42.924Z</time>
      </trkpt>
      <trkpt lat="42.98177" lon="0.71148">
        <ele>598.09</ele>
        <time>2024-02-16T12:14:59.059Z</time>
      </trkpt>
      <trkpt lat="42.98194" lon="0.7118">
        <ele>596.76</ele>
        <time>2024-02-16T12:15:15.203Z</time>
      </trkpt>
      <trkpt lat="42.9822" lon="0.71212">
        <ele>595.62</ele>
        <time>2024-02-16T12:15:31.359Z</time>
      </trkpt>
      <trkpt lat="42.98236" lon="0.71243">
        <ele>594.42</ele>
        <time>2024-02-16T12:15:47.524Z</time>
      </trkpt>
      <trkpt lat="42.98241" lon="0.71272">
        <ele>593.02</ele>
        <time>2024-02-16T12:16:03.696Z</time>
      </trkpt>
      <trkpt lat="42.98232" lon="0.71305">
        <ele>591.22</ele>
        <time>2024-02-16T12:16:19.877Z</time>
      </trkpt>
      <trkpt lat="42.98215" lon="0.71335">
        <ele>589.4</ele>
        <time>2024-02-16T12:16:36.067Z</time>
      </trkpt>
      <trkpt lat="42.98186" lon="0.71365">
        <ele>587.86</ele>
        <time>2024-02-16T12:16:52.269Z</time>
      </trkpt>
      <trkpt lat="42.98168" lon="0.71393">
        <ele>586.45</ele>
        <time>2024-02-16T12:17:08.481Z</time>
      </trkpt>
      <trkpt lat="42.98161" lon="0.71412">
        <ele>585.31</ele>
        <time>2024-02-16T12:17:24.698Z</time>
      </trkpt>
      <trkpt lat="42.98156" lon="0.71448">
        <ele>584.28</ele>
        <time>2024-02-16T12:17:40.924Z</time>
      </trkpt>
      <trkpt lat="42.98159" lon="0.71469">
        <ele>583.32</ele>
        <time>2024-02-16T12:17:57.155Z</time>
      </trkpt>
      <trkpt lat="42.98164" lon="0.71491">
        <ele>582.38</ele>
        <time>2024-02-16T12:18:13.391Z</time>
      </trkpt>
      <trkpt lat="42.98179" lon="0.71524">
        <ele>581.61</ele>
        <time>2024-02-16T12:18:29.637Z</time>
      </trkpt>
      <trkpt lat="42.98186" lon="0.71529">
        <ele>580.86</ele>
        <time>2024-02-16T12:18:45.886Z</time>
      </trkpt>
      <trkpt lat="42.98195" lon="0.71532">
        <ele>580.19</ele>
        <time>2024-02-16T12:19:02.138Z</time>
      </trkpt>
      <trkpt lat="42.98231" lon="0.71529">
        <ele>579.84</ele>
        <time>2024-02-16T12:19:18.402Z</time>
      </trkpt>
      <trkpt lat="42.98242" lon="0.71537">
        <ele>579.11</ele>
        <time>2024-02-16T12:19:34.670Z</time>
      </trkpt>
      <trkpt lat="42.98249" lon="0.7155">
        <ele>578.35</ele>
        <time>2024-02-16T12:19:50.942Z</time>
      </trkpt>
      <trkpt lat="42.98252" lon="0.71566">
        <ele>577.51</ele>
        <time>2024-02-16T12:20:07.218Z</time>
      </trkpt>
      <trkpt lat="42.98258" lon="0.71618">
        <ele>576.3</ele>
        <time>2024-02-16T12:20:23.507Z</time>
      </trkpt>
      <trkpt lat="42.98258" lon="0.71618">
        <ele>575.6</ele>
        <time>2024-02-16T12:20:39.796Z</time>
      </trkpt>
      <trkpt lat="42.9826" lon="0.71642">
        <ele>574.69</ele>
        <time>2024-02-16T12:20:56.091Z</time>
      </trkpt>
      <trkpt lat="42.98259" lon="0.71659">
        <ele>573.93</ele>
        <time>2024-02-16T12:21:12.390Z</time>
      </trkpt>
      <trkpt lat="42.98255" lon="0.71674">
        <ele>573.14</ele>
        <time>2024-02-16T12:21:28.693Z</time>
      </trkpt>
      <trkpt lat="42.98226" lon="0.71739">
        <ele>571.93</ele>
        <time>2024-02-16T12:21:45.015Z</time>
      </trkpt>
      <trkpt lat="42.98221" lon="0.7176">
        <ele>571.16</ele>
        <time>2024-02-16T12:22:01.342Z</time>
      </trkpt>
      <trkpt lat="42.98222" lon="0.71777">
        <ele>570.54</ele>
        <time>2024-02-16T12:22:17.673Z</time>
      </trkpt>
      <trkpt lat="42.98229" lon="0.71786">
        <ele>569.96</ele>
        <time>2024-02-16T12:22:34.007Z</time>
      </trkpt>
      <trkpt lat="42.98236" lon="0.7179">
        <ele>569.31</ele>
        <time>2024-02-16T12:22:50.344Z</time>
      </trkpt>
      <trkpt lat="42.98249" lon="0.7179">
        <ele>568.63</ele>
        <time>2024-02-16T12:23:06.685Z</time>
      </trkpt>
      <trkpt lat="42.98256" lon="0.71786">
        <ele>567.96</ele>
        <time>2024-02-16T12:23:23.029Z</time>
      </trkpt>
      <trkpt lat="42.98284" lon="0.71762">
        <ele>567.45</ele>
        <time>2024-02-16T12:23:39.384Z</time>
      </trkpt>
      <trkpt lat="42.98296" lon="0.71758">
        <ele>566.7</ele>
        <time>2024-02-16T12:23:55.743Z</time>
      </trkpt>
      <trkpt lat="42.98305" lon="0.71758">
        <ele>565.78</ele>
        <time>2024-02-16T12:24:12.105Z</time>
      </trkpt>
      <trkpt lat="42.98323" lon="0.71765">
        <ele>564.68</ele>
        <time>2024-02-16T12:24:28.473Z</time>
      </trkpt>
      <trkpt lat="42.98332" lon="0.71775">
        <ele>563.35</ele>
        <time>2024-02-16T12:24:44.845Z</time>
      </trkpt>
      <trkpt lat="42.98337" lon="0.71789">
        <ele>561.81</ele>
        <time>2024-02-16T12:25:01.221Z</time>
      </trkpt>
      <trkpt lat="42.98337" lon="0.71809">
        <ele>560.06</ele>
        <time>2024-02-16T12:25:17.602Z</time>
      </trkpt>
      <trkpt lat="42.98331" lon="0.71861">
        <ele>558.17</ele>
        <time>2024-02-16T12:25:33.995Z</time>
      </trkpt>
      <trkpt lat="42.98308" lon="0.71923">
        <ele>556.23</ele>
        <time>2024-02-16T12:25:50.406Z</time>
      </trkpt>
      <trkpt lat="42.98303" lon="0.71939">
        <ele>554.58</ele>
        <time>2024-02-16T12:26:06.821Z</time>
      </trkpt>
      <trkpt lat="42.98302" lon="0.71957">
        <ele>552.86</ele>
        <time>2024-02-16T12:26:23.240Z</time>
      </trkpt>
      <trkpt lat="42.98298" lon="0.71974">
        <ele>551.02</ele>
        <time>2024-02-16T12:26:39.664Z</time>
      </trkpt>
      <trkpt lat="42.98275" lon="0.72003">
        <ele>548.8</ele>
        <time>2024-02-16T12:26:56.098Z</time>
      </trkpt>
      <trkpt lat="42.98271" lon="0.72014">
        <ele>546.81</ele>
        <time>2024-02-16T12:27:12.535Z</time>
      </trkpt>
      <trkpt lat="42.98269" lon="0.72026">
        <ele>544.89</ele>
        <time>2024-02-16T12:27:28.975Z</time>
      </trkpt>
      <trkpt lat="42.9827" lon="0.72044">
        <ele>542.97</ele>
        <time>2024-02-16T12:27:45.419Z</time>
      </trkpt>
      <trkpt lat="42.98303" lon="0.72205">
        <ele>541.15</ele>
        <time>2024-02-16T12:28:01.904Z</time>
      </trkpt>
      <trkpt lat="42.98308" lon="0.72257">
        <ele>539.15</ele>
        <time>2024-02-16T12:28:18.402Z</time>
      </trkpt>
      <trkpt lat="42.98308" lon="0.72398">
        <ele>536.48</ele>
        <time>2024-02-16T12:28:34.935Z</time>
      </trkpt>
      <trkpt lat="42.98304" lon="0.72423">
        <ele>534.44</ele>
        <time>2024-02-16T12:28:51.474Z</time>
      </trkpt>
      <trkpt lat="42.98303" lon="0.72431">
        <ele>532.5</ele>
        <time>2024-02-16T12:29:08.015Z</time>
      </trkpt>
      <trkpt lat="42.98304" lon="0.72443">
        <ele>530.62</ele>
        <time>2024-02-16T12:29:24.559Z</time>
      </trkpt>
      <trkpt lat="42.98308" lon="0.72455">
        <ele>528.84</ele>
        <time>2024-02-16T12:29:41.106Z</time>
      </trkpt>
      <trkpt lat="42.98316" lon="0.7247">
        <ele>527.21</ele>
        <time>2024-02-16T12:29:57.658Z</time>
      </trkpt>
      <trkpt lat="42.98321" lon="0.72484">
        <ele>525.55</ele>
        <time>2024-02-16T12:30:14.214Z</time>
      </trkpt>
      <trkpt lat="42.98323" lon="0.72497">
        <ele>523.83</ele>
        <time>2024-02-16T12:30:30.773Z</time>
      </trkpt>
      <trkpt lat="42.98321" lon="0.72511">
        <ele>522.12</ele>
        <time>2024-02-16T12:30:47.335Z</time>
      </trkpt>
      <trkpt lat="42.98309" lon="0.72539">
        <ele>520.2</ele>
        <time>2024-02-16T12:31:03.905Z</time>
      </trkpt>
      <trkpt lat="42.98308" lon="0.72551">
        <ele>518.73</ele>
        <time>2024-02-16T12:31:20.478Z</time>
      </trkpt>
      <trkpt lat="42.98308" lon="0.72574">
        <ele>517.38</ele>
        <time>2024-02-16T12:31:37.057Z</time>
      </trkpt>
      <trkpt lat="42.98318" lon="0.72672">
        <ele>516.1</ele>
        <time>2024-02-16T12:31:53.660Z</time>
      </trkpt>
      <trkpt lat="42.98324" lon="0.727">
        <ele>515.06</ele>
        <time>2024-02-16T12:32:10.270Z</time>
      </trkpt>
      <trkpt lat="42.98332" lon="0.72719">
        <ele>514.01</ele>
        <time>2024-02-16T12:32:26.886Z</time>
      </trkpt>
      <trkpt lat="42.98343" lon="0.72738">
        <ele>512.98</ele>
        <time>2024-02-16T12:32:43.508Z</time>
      </trkpt>
      <trkpt lat="42.98384" lon="0.72791">
        <ele>512.04</ele>
        <time>2024-02-16T12:33:00.148Z</time>
      </trkpt>
      <trkpt lat="42.98393" lon="0.72812">
        <ele>511.04</ele>
        <time>2024-02-16T12:33:16.794Z</time>
      </trkpt>
      <trkpt lat="42.98411" lon="0.72871">
        <ele>509.95</ele>
        <time>2024-02-16T12:33:33.456Z</time>
      </trkpt>
      <trkpt lat="42.98419" lon="0.72905">
        <ele>509.21</ele>
        <time>2024-02-16T12:33:50.127Z</time>
      </trkpt>
      <trkpt lat="42.98428" lon="0.72942">
        <ele>508.64</ele>
        <time>2024-02-16T12:34:06.807Z</time>
      </trkpt>
      <trkpt lat="42.98429" lon="0.72972">
        <ele>507.9</ele>
        <time>2024-02-16T12:34:23.495Z</time>
      </trkpt>
      <trkpt lat="42.98436" lon="0.72974">
        <ele>507.41</ele>
        <time>2024-02-16T12:34:40.185Z</time>
      </trkpt>
      <trkpt lat="42.98442" lon="0.7298">
        <ele>507.34</ele>
        <time>2024-02-16T12:34:56.877Z</time>
      </trkpt>
      <trkpt lat="42.98442" lon="0.7298">
        <ele>507.28</ele>
        <time>2024-02-16T12:35:13.569Z</time>
      </trkpt>
      <trkpt lat="42.98445" lon="0.7299">
        <ele>507.29</ele>
        <time>2024-02-16T12:35:30.264Z</time>
      </trkpt>
      <trkpt lat="42.98445" lon="0.73">
        <ele>507.37</ele>
        <time>2024-02-16T12:35:46.961Z</time>
      </trkpt>
      <trkpt lat="42.98445" lon="0.73">
        <ele>507.69</ele>
        <time>2024-02-16T12:36:03.659Z</time>
      </trkpt>
      <trkpt lat="42.98443" lon="0.73023">
        <ele>507.82</ele>
        <time>2024-02-16T12:36:20.362Z</time>
      </trkpt>
      <trkpt lat="42.98447" lon="0.73043">
        <ele>508.39</ele>
        <time>2024-02-16T12:36:37.070Z</time>
      </trkpt>
      <trkpt lat="42.98453" lon="0.73062">
        <ele>509.14</ele>
        <time>2024-02-16T12:36:53.783Z</time>
      </trkpt>
      <trkpt lat="42.98461" lon="0.73068">
        <ele>510.15</ele>
        <time>2024-02-16T12:37:10.499Z</time>
      </trkpt>
      <trkpt lat="42.98472" lon="0.73064">
        <ele>511.46</ele>
        <time>2024-02-16T12:37:27.219Z</time>
      </trkpt>
      <trkpt lat="42.9848" lon="0.73068">
        <ele>512.83</ele>
        <time>2024-02-16T12:37:43.942Z</time>
      </trkpt>
      <trkpt lat="42.98489" lon="0.73079">
        <ele>514.27</ele>
        <time>2024-02-16T12:38:00.669Z</time>
      </trkpt>
      <trkpt lat="42.98507" lon="0.73123">
        <ele>515.94</ele>
        <time>2024-02-16T12:38:17.408Z</time>
      </trkpt>
      <trkpt lat="42.98527" lon="0.73164">
        <ele>517.9</ele>
        <time>2024-02-16T12:38:34.159Z</time>
      </trkpt>
      <trkpt lat="42.98541" lon="0.73179">
        <ele>519.91</ele>
        <time>2024-02-16T12:38:50.916Z</time>
      </trkpt>
      <trkpt lat="42.98545" lon="0.73193">
        <ele>521.82</ele>
        <time>2024-02-16T12:39:07.677Z</time>
      </trkpt>
      <trkpt lat="42.98542" lon="0.73228">
        <ele>523.62</ele>
        <time>2024-02-16T12:39:24.446Z</time>
      </trkpt>
      <trkpt lat="42.98551" lon="0.73291">
        <ele>526.14</ele>
        <time>2024-02-16T12:39:41.231Z</time>
      </trkpt>
      <trkpt lat="42.98554" lon="0.73323">
        <ele>528.47</ele>
        <time>2024-02-16T12:39:58.024Z</time>
      </trkpt>
      <trkpt lat="42.9856" lon="0.73356">
        <ele>530.79</ele>
        <time>2024-02-16T12:40:14.825Z</time>
      </trkpt>
      <trkpt lat="42.98566" lon="0.73382">
        <ele>533.12</ele>
        <time>2024-02-16T12:40:31.633Z</time>
      </trkpt>
      <trkpt lat="42.98576" lon="0.734">
        <ele>535.56</ele>
        <time>2024-02-16T12:40:48.447Z</time>
      </trkpt>
      <trkpt lat="42.98585" lon="0.73408">
        <ele>538.03</ele>
        <time>2024-02-16T12:41:05.264Z</time>
      </trkpt>
      <trkpt lat="42.98603" lon="0.73409">
        <ele>540.66</ele>
        <time>2024-02-16T12:41:22.087Z</time>
      </trkpt>
      <trkpt lat="42.98608" lon="0.73421">
        <ele>542.87</ele>
        <time>2024-02-16T12:41:38.913Z</time>
      </trkpt>
      <trkpt lat="42.98621" lon="0.7344">
        <ele>545.13</ele>
        <time>2024-02-16T12:41:55.746Z</time>
      </trkpt>
      <trkpt lat="42.98658" lon="0.73486">
        <ele>547.35</ele>
        <time>2024-02-16T12:42:12.596Z</time>
      </trkpt>
      <trkpt lat="42.98663" lon="0.73489">
        <ele>549.46</ele>
        <time>2024-02-16T12:42:29.447Z</time>
      </trkpt>
      <trkpt lat="42.98663" lon="0.73489">
        <ele>551.49</ele>
        <time>2024-02-16T12:42:46.298Z</time>
      </trkpt>
      <trkpt lat="42.98687" lon="0.73504">
        <ele>553.55</ele>
        <time>2024-02-16T12:43:03.158Z</time>
      </trkpt>
      <trkpt lat="42.98725" lon="0.73518">
        <ele>555.53</ele>
        <time>2024-02-16T12:43:20.031Z</time>
      </trkpt>
      <trkpt lat="42.98757" lon="0.73539">
        <ele>557.18</ele>
        <time>2024-02-16T12:43:36.916Z</time>
      </trkpt>
      <trkpt lat="42.98757" lon="0.73539">
        <ele>558.9</ele>
        <time>2024-02-16T12:43:53.801Z</time>
      </trkpt>
      <trkpt lat="42.9878" lon="0.73554">
        <ele>560.48</ele>
        <time>2024-02-16T12:44:10.694Z</time>
      </trkpt>
      <trkpt lat="42.98796" lon="0.73567">
        <ele>562.04</ele>
        <time>2024-02-16T12:44:27.594Z</time>
      </trkpt>
      <trkpt lat="42.98828" lon="0.73624">
        <ele>563.7</ele>
        <time>2024-02-16T12:44:44.511Z</time>
      </trkpt>
      <trkpt lat="42.98876" lon="0.73673">
        <ele>565.43</ele>
        <time>2024-02-16T12:45:01.448Z</time>
      </trkpt>
      <trkpt lat="42.98915" lon="0.73715">
        <ele>566.84</ele>
        <time>2024-02-16T12:45:18.402Z</time>
      </trkpt>
      <trkpt lat="42.98931" lon="0.73746">
        <ele>567.55</ele>
        <time>2024-02-16T12:45:35.365Z</time>
      </trkpt>
      <trkpt lat="42.98966" lon="0.738">
        <ele>568.38</ele>
        <time>2024-02-16T12:45:52.346Z</time>
      </trkpt>
      <trkpt lat="42.98981" lon="0.73843">
        <ele>568.68</ele>
        <time>2024-02-16T12:46:09.339Z</time>
      </trkpt>
      <trkpt lat="42.99" lon="0.73884">
        <ele>569.14</ele>
        <time>2024-02-16T12:46:26.343Z</time>
      </trkpt>
      <trkpt lat="42.99026" lon="0.73936">
        <ele>569.61</ele>
        <time>2024-02-16T12:46:43.363Z</time>
      </trkpt>
      <trkpt lat="42.99046" lon="0.73996">
        <ele>569.71</ele>
        <time>2024-02-16T12:47:00.399Z</time>
      </trkpt>
      <trkpt lat="42.99055" lon="0.74013">
        <ele>569.79</ele>
        <time>2024-02-16T12:47:17.440Z</time>
      </trkpt>
      <trkpt lat="42.99115" lon="0.74091">
        <ele>570.29</ele>
        <time>2024-02-16T12:47:34.509Z</time>
      </trkpt>
      <trkpt lat="42.99129" lon="0.74116">
        <ele>569.9</ele>
        <time>2024-02-16T12:47:51.585Z</time>
      </trkpt>
      <trkpt lat="42.99134" lon="0.74128">
        <ele>569.17</ele>
        <time>2024-02-16T12:48:08.665Z</time>
      </trkpt>
      <trkpt lat="42.99141" lon="0.74168">
        <ele>567.83</ele>
        <time>2024-02-16T12:48:25.755Z</time>
      </trkpt>
      <trkpt lat="42.99149" lon="0.74181">
        <ele>566.67</ele>
        <time>2024-02-16T12:48:42.849Z</time>
      </trkpt>
      <trkpt lat="42.99173" lon="0.74195">
        <ele>565.34</ele>
        <time>2024-02-16T12:48:59.952Z</time>
      </trkpt>
      <trkpt lat="42.99182" lon="0.74196">
        <ele>563.8</ele>
        <time>2024-02-16T12:49:17.058Z</time>
      </trkpt>
      <trkpt lat="42.99199" lon="0.74192">
        <ele>562.12</ele>
        <time>2024-02-16T12:49:34.170Z</time>
      </trkpt>
      <trkpt lat="42.99239" lon="0.74177">
        <ele>560.15</ele>
        <time>2024-02-16T12:49:51.295Z</time>
      </trkpt>
      <trkpt lat="42.99247" lon="0.74171">
        <ele>557.91</ele>
        <time>2024-02-16T12:50:08.423Z</time>
      </trkpt>
      <trkpt lat="42.99285" lon="0.74135">
        <ele>555.21</ele>
        <time>2024-02-16T12:50:25.567Z</time>
      </trkpt>
      <trkpt lat="42.99296" lon="0.7412">
        <ele>552.36</ele>
        <time>2024-02-16T12:50:42.716Z</time>
      </trkpt>
      <trkpt lat="42.99325" lon="0.74071">
        <ele>549.44</ele>
        <time>2024-02-16T12:50:59.880Z</time>
      </trkpt>
      <trkpt lat="42.99354" lon="0.74032">
        <ele>546.4</ele>
        <time>2024-02-16T12:51:17.058Z</time>
      </trkpt>
      <trkpt lat="42.99366" lon="0.74001">
        <ele>543.5</ele>
        <time>2024-02-16T12:51:34.245Z</time>
      </trkpt>
      <trkpt lat="42.9938" lon="0.73859">
        <ele>540.65</ele>
        <time>2024-02-16T12:51:51.467Z</time>
      </trkpt>
      <trkpt lat="42.99378" lon="0.73839">
        <ele>538.42</ele>
        <time>2024-02-16T12:52:08.694Z</time>
      </trkpt>
      <trkpt lat="42.9937" lon="0.73817">
        <ele>536.47</ele>
        <time>2024-02-16T12:52:25.927Z</time>
      </trkpt>
      <trkpt lat="42.99368" lon="0.73807">
        <ele>534.67</ele>
        <time>2024-02-16T12:52:43.162Z</time>
      </trkpt>
      <trkpt lat="42.99368" lon="0.73797">
        <ele>533.11</ele>
        <time>2024-02-16T12:53:00.400Z</time>
      </trkpt>
      <trkpt lat="42.99374" lon="0.73789">
        <ele>531.69</ele>
        <time>2024-02-16T12:53:17.641Z</time>
      </trkpt>
      <trkpt lat="42.99383" lon="0.73789">
        <ele>530.65</ele>
        <time>2024-02-16T12:53:34.884Z</time>
      </trkpt>
      <trkpt lat="42.99388" lon="0.73798">
        <ele>529.94</ele>
        <time>2024-02-16T12:53:52.130Z</time>
      </trkpt>
      <trkpt lat="42.99412" lon="0.73876">
        <ele>529.5</ele>
        <time>2024-02-16T12:54:09.397Z</time>
      </trkpt>
      <trkpt lat="42.99433" lon="0.73937">
        <ele>529.43</ele>
        <time>2024-02-16T12:54:26.680Z</time>
      </trkpt>
      <trkpt lat="42.99441" lon="0.73965">
        <ele>529.69</ele>
        <time>2024-02-16T12:54:43.971Z</time>
      </trkpt>
      <trkpt lat="42.99472" lon="0.74053">
        <ele>530.68</ele>
        <time>2024-02-16T12:55:01.286Z</time>
      </trkpt>
      <trkpt lat="42.99489" lon="0.74076">
        <ele>531.88</ele>
        <time>2024-02-16T12:55:18.609Z</time>
      </trkpt>
      <trkpt lat="42.99517" lon="0.74097">
        <ele>533.49</ele>
        <time>2024-02-16T12:55:35.942Z</time>
      </trkpt>
      <trkpt lat="42.99525" lon="0.74106">
        <ele>534.83</ele>
        <time>2024-02-16T12:55:53.279Z</time>
      </trkpt>
      <trkpt lat="42.99533" lon="0.74141">
        <ele>536.28</ele>
        <time>2024-02-16T12:56:10.625Z</time>
      </trkpt>
      <trkpt lat="42.99542" lon="0.74154">
        <ele>537.97</ele>
        <time>2024-02-16T12:56:27.975Z</time>
      </trkpt>
      <trkpt lat="42.99542" lon="0.74161">
        <ele>539.61</ele>
        <time>2024-02-16T12:56:45.327Z</time>
      </trkpt>
      <trkpt lat="42.99533" lon="0.74182">
        <ele>541.24</ele>
        <time>2024-02-16T12:57:02.685Z</time>
      </trkpt>
      <trkpt lat="42.99533" lon="0.74182">
        <ele>543.18</ele>
        <time>2024-02-16T12:57:20.043Z</time>
      </trkpt>
      <trkpt lat="42.99526" lon="0.74196">
        <ele>545.2</ele>
        <time>2024-02-16T12:57:37.405Z</time>
      </trkpt>
      <trkpt lat="42.99523" lon="0.7421">
        <ele>547.4</ele>
        <time>2024-02-16T12:57:54.771Z</time>
      </trkpt>
      <trkpt lat="42.99522" lon="0.74225">
        <ele>549.71</ele>
        <time>2024-02-16T12:58:12.141Z</time>
      </trkpt>
      <trkpt lat="42.99531" lon="0.74266">
        <ele>552.28</ele>
        <time>2024-02-16T12:58:29.521Z</time>
      </trkpt>
      <trkpt lat="42.9954" lon="0.74293">
        <ele>554.84</ele>
        <time>2024-02-16T12:58:46.908Z</time>
      </trkpt>
      <trkpt lat="42.99548" lon="0.74304">
        <ele>557.45</ele>
        <time>2024-02-16T12:59:04.299Z</time>
      </trkpt>
      <trkpt lat="42.9958" lon="0.74337">
        <ele>560.63</ele>
        <time>2024-02-16T12:59:21.703Z</time>
      </trkpt>
      <trkpt lat="42.99586" lon="0.7434">
        <ele>563.19</ele>
        <time>2024-02-16T12:59:39.110Z</time>
      </trkpt>
      <trkpt lat="42.99595" lon="0.7434">
        <ele>565.77</ele>
        <time>2024-02-16T12:59:56.519Z</time>
      </trkpt>
      <trkpt lat="42.9961" lon="0.74341">
        <ele>568.2</ele>
        <time>2024-02-16T13:00:13.933Z</time>
      </trkpt>
      <trkpt lat="42.99624" lon="0.74336">
        <ele>570.59</ele>
        <time>2024-02-16T13:00:31.352Z</time>
      </trkpt>
      <trkpt lat="42.99634" lon="0.74337">
        <ele>573.04</ele>
        <time>2024-02-16T13:00:48.774Z</time>
      </trkpt>
      <trkpt lat="42.99639" lon="0.74339">
        <ele>575.41</ele>
        <time>2024-02-16T13:01:06.198Z</time>
      </trkpt>
      <trkpt lat="42.99646" lon="0.7435">
        <ele>577.72</ele>
        <time>2024-02-16T13:01:23.626Z</time>
      </trkpt>
      <trkpt lat="42.99651" lon="0.74369">
        <ele>579.95</ele>
        <time>2024-02-16T13:01:41.059Z</time>
      </trkpt>
      <trkpt lat="42.99655" lon="0.74416">
        <ele>581.95</ele>
        <time>2024-02-16T13:01:58.504Z</time>
      </trkpt>
      <trkpt lat="42.99658" lon="0.7443">
        <ele>584.24</ele>
        <time>2024-02-16T13:02:15.952Z</time>
      </trkpt>
      <trkpt lat="42.99666" lon="0.74447">
        <ele>586.65</ele>
        <time>2024-02-16T13:02:33.405Z</time>
      </trkpt>
      <trkpt lat="42.9968" lon="0.74459">
        <ele>589.21</ele>
        <time>2024-02-16T13:02:50.863Z</time>
      </trkpt>
      <trkpt lat="42.99694" lon="0.74467">
        <ele>591.74</ele>
        <time>2024-02-16T13:03:08.326Z</time>
      </trkpt>
      <trkpt lat="42.99702" lon="0.74467">
        <ele>594.16</ele>
        <time>2024-02-16T13:03:25.792Z</time>
      </trkpt>
      <trkpt lat="42.99724" lon="0.74459">
        <ele>596.63</ele>
        <time>2024-02-16T13:03:43.266Z</time>
      </trkpt>
      <trkpt lat="42.99759" lon="0.74438">
        <ele>599.04</ele>
        <time>2024-02-16T13:04:00.753Z</time>
      </trkpt>
      <trkpt lat="42.99789" lon="0.74432">
        <ele>601.07</ele>
        <time>2024-02-16T13:04:18.250Z</time>
      </trkpt>
      <trkpt lat="42.998" lon="0.74428">
        <ele>602.76</ele>
        <time>2024-02-16T13:04:35.750Z</time>
      </trkpt>
      <trkpt lat="42.9981" lon="0.74428">
        <ele>604.19</ele>
        <time>2024-02-16T13:04:53.254Z</time>
      </trkpt>
      <trkpt lat="42.9982" lon="0.74433">
        <ele>605.37</ele>
        <time>2024-02-16T13:05:10.762Z</time>
      </trkpt>
      <trkpt lat="42.9983" lon="0.74442">
        <ele>606.34</ele>
        <time>2024-02-16T13:05:28.273Z</time>
      </trkpt>
      <trkpt lat="42.99843" lon="0.74463">
        <ele>606.94</ele>
        <time>2024-02-16T13:05:45.791Z</time>
      </trkpt>
      <trkpt lat="42.9985" lon="0.74473">
        <ele>607.55</ele>
        <time>2024-02-16T13:06:03.313Z</time>
      </trkpt>
      <trkpt lat="42.99857" lon="0.74479">
        <ele>608.09</ele>
        <time>2024-02-16T13:06:20.837Z</time>
      </trkpt>
      <trkpt lat="42.99884" lon="0.74485">
        <ele>608.68</ele>
        <time>2024-02-16T13:06:38.370Z</time>
      </trkpt>
      <trkpt lat="42.99936" lon="0.74477">
        <ele>608.97</ele>
        <time>2024-02-16T13:06:55.921Z</time>
      </trkpt>
      <trkpt lat="42.99958" lon="0.74476">
        <ele>608.96</ele>
        <time>2024-02-16T13:07:13.479Z</time>
      </trkpt>
      <trkpt lat="42.99967" lon="0.74479">
        <ele>608.85</ele>
        <time>2024-02-16T13:07:31.040Z</time>
      </trkpt>
      <trkpt lat="42.99983" lon="0.74491">
        <ele>608.6</ele>
        <time>2024-02-16T13:07:48.607Z</time>
      </trkpt>
      <trkpt lat="43.00003" lon="0.74519">
        <ele>608.15</ele>
        <time>2024-02-16T13:08:06.184Z</time>
      </trkpt>
      <trkpt lat="43.0003" lon="0.74541">
        <ele>607.64</ele>
        <time>2024-02-16T13:08:23.771Z</time>
      </trkpt>
      <trkpt lat="43.00049" lon="0.74543">
        <ele>606.96</ele>
        <time>2024-02-16T13:08:41.365Z</time>
      </trkpt>
      <trkpt lat="43.0008" lon="0.74541">
        <ele>606.15</ele>
        <time>2024-02-16T13:08:58.969Z</time>
      </trkpt>
      <trkpt lat="43.001" lon="0.74595">
        <ele>604.98</ele>
        <time>2024-02-16T13:09:16.588Z</time>
      </trkpt>
      <trkpt lat="43.00101" lon="0.74603">
        <ele>604.15</ele>
        <time>2024-02-16T13:09:34.209Z</time>
      </trkpt>
      <trkpt lat="43.00094" lon="0.74616">
        <ele>603.35</ele>
        <time>2024-02-16T13:09:51.834Z</time>
      </trkpt>
      <trkpt lat="43.00087" lon="0.74632">
        <ele>602.4</ele>
        <time>2024-02-16T13:10:09.463Z</time>
      </trkpt>
      <trkpt lat="43.00075" lon="0.74664">
        <ele>601.34</ele>
        <time>2024-02-16T13:10:27.101Z</time>
      </trkpt>
      <trkpt lat="43.00064" lon="0.7468">
        <ele>600.32</ele>
        <time>2024-02-16T13:10:44.745Z</time>
      </trkpt>
      <trkpt lat="43.00049" lon="0.74712">
        <ele>599.28</ele>
        <time>2024-02-16T13:11:02.398Z</time>
      </trkpt>
      <trkpt lat="43.00049" lon="0.74722">
        <ele>598.4</ele>
        <time>2024-02-16T13:11:20.053Z</time>
      </trkpt>
      <trkpt lat="43.00053" lon="0.74749">
        <ele>597.48</ele>
        <time>2024-02-16T13:11:37.715Z</time>
      </trkpt>
      <trkpt lat="43.00054" lon="0.74756">
        <ele>596.72</ele>
        <time>2024-02-16T13:11:55.379Z</time>
      </trkpt>
      <trkpt lat="43.00051" lon="0.74764">
        <ele>596</ele>
        <time>2024-02-16T13:12:13.045Z</time>
      </trkpt>
      <trkpt lat="43.00051" lon="0.74767">
        <ele>595.26</ele>
        <time>2024-02-16T13:12:30.712Z</time>
      </trkpt>
      <trkpt lat="43.00056" lon="0.74774">
        <ele>594.45</ele>
        <time>2024-02-16T13:12:48.381Z</time>
      </trkpt>
      <trkpt lat="43.00067" lon="0.74798">
        <ele>593.55</ele>
        <time>2024-02-16T13:13:06.057Z</time>
      </trkpt>
      <trkpt lat="43.00077" lon="0.74825">
        <ele>592.63</ele>
        <time>2024-02-16T13:13:23.741Z</time>
      </trkpt>
      <trkpt lat="43.00079" lon="0.74839">
        <ele>591.48</ele>
        <time>2024-02-16T13:13:41.428Z</time>
      </trkpt>
      <trkpt lat="43.00081" lon="0.74862">
        <ele>590.08</ele>
        <time>2024-02-16T13:13:59.121Z</time>
      </trkpt>
      <trkpt lat="43.00099" lon="0.74907">
        <ele>588.57</ele>
        <time>2024-02-16T13:14:16.826Z</time>
      </trkpt>
      <trkpt lat="43.00109" lon="0.74928">
        <ele>586.49</ele>
        <time>2024-02-16T13:14:34.537Z</time>
      </trkpt>
      <trkpt lat="43.00136" lon="0.74977">
        <ele>583.86</ele>
        <time>2024-02-16T13:14:52.263Z</time>
      </trkpt>
      <trkpt lat="43.00145" lon="0.74991">
        <ele>581.3</ele>
        <time>2024-02-16T13:15:09.994Z</time>
      </trkpt>
      <trkpt lat="43.0022" lon="0.75026">
        <ele>577.88</ele>
        <time>2024-02-16T13:15:27.751Z</time>
      </trkpt>
      <trkpt lat="43.00238" lon="0.75027">
        <ele>574.75</ele>
        <time>2024-02-16T13:15:45.514Z</time>
      </trkpt>
      <trkpt lat="43.00249" lon="0.75024">
        <ele>571.42</ele>
        <time>2024-02-16T13:16:03.281Z</time>
      </trkpt>
      <trkpt lat="43.0029" lon="0.7499">
        <ele>567.62</ele>
        <time>2024-02-16T13:16:21.064Z</time>
      </trkpt>
      <trkpt lat="43.00404" lon="0.74863">
        <ele>562.95</ele>
        <time>2024-02-16T13:16:38.896Z</time>
      </trkpt>
      <trkpt lat="43.00509" lon="0.74698">
        <ele>559.11</ele>
        <time>2024-02-16T13:16:56.781Z</time>
      </trkpt>
      <trkpt lat="43.0052" lon="0.74675">
        <ele>556.16</ele>
        <time>2024-02-16T13:17:14.673Z</time>
      </trkpt>
      <trkpt lat="43.00545" lon="0.74667">
        <ele>552.94</ele>
        <time>2024-02-16T13:17:32.574Z</time>
      </trkpt>
      <trkpt lat="43.00604" lon="0.74665">
        <ele>549.1</ele>
        <time>2024-02-16T13:17:50.494Z</time>
      </trkpt>
      <trkpt lat="43.00625" lon="0.74656">
        <ele>546.27</ele>
        <time>2024-02-16T13:18:08.422Z</time>
      </trkpt>
      <trkpt lat="43.0066" lon="0.74644">
        <ele>543.43</ele>
        <time>2024-02-16T13:18:26.362Z</time>
      </trkpt>
      <trkpt lat="43.00671" lon="0.74643">
        <ele>539.86</ele>
        <time>2024-02-16T13:18:44.306Z</time>
      </trkpt>
      <trkpt lat="43.0068" lon="0.7465">
        <ele>535.54</ele>
        <time>2024-02-16T13:19:02.253Z</time>
      </trkpt>
      <trkpt lat="43.0071" lon="0.74685">
        <ele>530.49</ele>
        <time>2024-02-16T13:19:20.213Z</time>
      </trkpt>
      <trkpt lat="43.00727" lon="0.74697">
        <ele>525.86</ele>
        <time>2024-02-16T13:19:38.180Z</time>
      </trkpt>
      <trkpt lat="43.00762" lon="0.74725">
        <ele>520.77</ele>
        <time>2024-02-16T13:19:56.160Z</time>
      </trkpt>
      <trkpt lat="43.00814" lon="0.74754">
        <ele>515.62</ele>
        <time>2024-02-16T13:20:14.159Z</time>
      </trkpt>
      <trkpt lat="43.00889" lon="0.74805">
        <ele>510.85</ele>
        <time>2024-02-16T13:20:32.186Z</time>
      </trkpt>
      <trkpt lat="43.00922" lon="0.74813">
        <ele>490.41</ele>
        <time>2024-02-16T13:20:50.224Z</time>
      </trkpt>
      <trkpt lat="43.00922" lon="0.74813">
        <ele>490.37</ele>
        <time>2024-02-16T13:21:08.262Z</time>
      </trkpt>
      <trkpt lat="43.00951" lon="0.74821">
        <ele>484.95</ele>
        <time>2024-02-16T13:21:26.310Z</time>
      </trkpt>
      <trkpt lat="43.00988" lon="0.74822">
        <ele>478.84</ele>
        <time>2024-02-16T13:21:44.370Z</time>
      </trkpt>
      <trkpt lat="43.01102" lon="0.74775">
        <ele>470.39</ele>
        <time>2024-02-16T13:22:02.470Z</time>
      </trkpt>
      <trkpt lat="43.01233" lon="0.747">
        <ele>461.18</ele>
        <time>2024-02-16T13:22:20.617Z</time>
      </trkpt>
      <trkpt lat="43.01278" lon="0.74683">
        <ele>451.5</ele>
        <time>2024-02-16T13:22:38.780Z</time>
      </trkpt>
      <trkpt lat="43.01287" lon="0.74687">
        <ele>444.39</ele>
        <time>2024-02-16T13:22:56.946Z</time>
      </trkpt>
      <trkpt lat="43.01299" lon="0.74691">
        <ele>438.66</ele>
        <time>2024-02-16T13:23:15.116Z</time>
      </trkpt>
      <trkpt lat="43.01466" lon="0.74904">
        <ele>432.44</ele>
        <time>2024-02-16T13:23:33.362Z</time>
      </trkpt>
      <trkpt lat="43.01547" lon="0.74991">
        <ele>428.13</ele>
        <time>2024-02-16T13:23:51.642Z</time>
      </trkpt>
      <trkpt lat="43.01562" lon="0.75">
        <ele>425</ele>
        <time>2024-02-16T13:24:09.928Z</time>
      </trkpt>
      <trkpt lat="43.01562" lon="0.75">
        <ele>422.65</ele>
        <time>2024-02-16T13:24:28.214Z</time>
      </trkpt>
      <trkpt lat="43.01613" lon="0.75031">
        <ele>420.76</ele>
        <time>2024-02-16T13:24:46.519Z</time>
      </trkpt>
      <trkpt lat="43.01629" lon="0.75041">
        <ele>419.31</ele>
        <time>2024-02-16T13:25:04.830Z</time>
      </trkpt>
      <trkpt lat="43.01729" lon="0.75117">
        <ele>417.39</ele>
        <time>2024-02-16T13:25:23.179Z</time>
      </trkpt>
      <trkpt lat="43.01721" lon="0.75136">
        <ele>416.3</ele>
        <time>2024-02-16T13:25:41.533Z</time>
      </trkpt>
      <trkpt lat="43.01721" lon="0.75136">
        <ele>415.54</ele>
        <time>2024-02-16T13:25:59.887Z</time>
      </trkpt>
      <trkpt lat="43.01586" lon="0.75294">
        <ele>415</ele>
        <time>2024-02-16T13:26:18.300Z</time>
      </trkpt>
      <trkpt lat="43.01586" lon="0.75294">
        <ele>414.67</ele>
        <time>2024-02-16T13:26:36.713Z</time>
      </trkpt>
      <trkpt lat="43.01576" lon="0.75346">
        <ele>414.06</ele>
        <time>2024-02-16T13:26:55.140Z</time>
      </trkpt>
      <trkpt lat="43.01576" lon="0.75346">
        <ele>413.99</ele>
        <time>2024-02-16T13:27:13.567Z</time>
      </trkpt>
      <trkpt lat="43.01551" lon="0.75401">
        <ele>414.02</ele>
        <time>2024-02-16T13:27:32.009Z</time>
      </trkpt>
      <trkpt lat="43.01551" lon="0.75426">
        <ele>414.31</ele>
        <time>2024-02-16T13:27:50.457Z</time>
      </trkpt>
      <trkpt lat="43.01554" lon="0.75446">
        <ele>414.8</ele>
        <time>2024-02-16T13:28:08.911Z</time>
      </trkpt>
      <trkpt lat="43.0155" lon="0.75473">
        <ele>415.5</ele>
        <time>2024-02-16T13:28:27.371Z</time>
      </trkpt>
      <trkpt lat="43.01553" lon="0.75512">
        <ele>416.38</ele>
        <time>2024-02-16T13:28:45.841Z</time>
      </trkpt>
      <trkpt lat="43.01553" lon="0.75542">
        <ele>417.32</ele>
        <time>2024-02-16T13:29:04.318Z</time>
      </trkpt>
      <trkpt lat="43.01552" lon="0.75557">
        <ele>418.33</ele>
        <time>2024-02-16T13:29:22.799Z</time>
      </trkpt>
      <trkpt lat="43.01543" lon="0.75619">
        <ele>419.62</ele>
        <time>2024-02-16T13:29:41.295Z</time>
      </trkpt>
      <trkpt lat="43.0152" lon="0.75712">
        <ele>421.21</ele>
        <time>2024-02-16T13:29:59.815Z</time>
      </trkpt>
      <trkpt lat="43.0151" lon="0.758">
        <ele>422.64</ele>
        <time>2024-02-16T13:30:18.357Z</time>
      </trkpt>
      <trkpt lat="43.01509" lon="0.75809">
        <ele>423.83</ele>
        <time>2024-02-16T13:30:36.901Z</time>
      </trkpt>
      <trkpt lat="43.01509" lon="0.75809">
        <ele>425</ele>
        <time>2024-02-16T13:30:55.445Z</time>
      </trkpt>
      <trkpt lat="43.01489" lon="0.75858">
        <ele>426.25</ele>
        <time>2024-02-16T13:31:14.003Z</time>
      </trkpt>
      <trkpt lat="43.0142" lon="0.76026">
        <ele>427.43</ele>
        <time>2024-02-16T13:31:32.608Z</time>
      </trkpt>
      <trkpt lat="43.01393" lon="0.76093">
        <ele>428.64</ele>
        <time>2024-02-16T13:31:51.232Z</time>
      </trkpt>
      <trkpt lat="43.01383" lon="0.76123">
        <ele>429.6</ele>
        <time>2024-02-16T13:32:09.864Z</time>
      </trkpt>
      <trkpt lat="43.01377" lon="0.76153">
        <ele>430.41</ele>
        <time>2024-02-16T13:32:28.503Z</time>
      </trkpt>
      <trkpt lat="43.01376" lon="0.76195">
        <ele>431.09</ele>
        <time>2024-02-16T13:32:47.153Z</time>
      </trkpt>
      <trkpt lat="43.01381" lon="0.76268">
        <ele>432.09</ele>
        <time>2024-02-16T13:33:05.821Z</time>
      </trkpt>
      <trkpt lat="43.01429" lon="0.76766">
        <ele>432.83</ele>
        <time>2024-02-16T13:33:24.611Z</time>
      </trkpt>
      <trkpt lat="43.01429" lon="0.76766">
        <ele>433.37</ele>
        <time>2024-02-16T13:33:43.401Z</time>
      </trkpt>
      <trkpt lat="43.01473" lon="0.76947">
        <ele>433.82</ele>
        <time>2024-02-16T13:34:02.238Z</time>
      </trkpt>
      <trkpt lat="43.01473" lon="0.76947">
        <ele>434.29</ele>
        <time>2024-02-16T13:34:21.075Z</time>
      </trkpt>
      <trkpt lat="43.01486" lon="0.77002">
        <ele>434.88</ele>
        <time>2024-02-16T13:34:39.926Z</time>
      </trkpt>
      <trkpt lat="43.0151" lon="0.7719">
        <ele>435.07</ele>
        <time>2024-02-16T13:34:58.824Z</time>
      </trkpt>
      <trkpt lat="43.01517" lon="0.7725">
        <ele>435.76</ele>
        <time>2024-02-16T13:35:17.737Z</time>
      </trkpt>
      <trkpt lat="43.01518" lon="0.77326">
        <ele>436.62</ele>
        <time>2024-02-16T13:35:36.668Z</time>
      </trkpt>
      <trkpt lat="43.01534" lon="0.77448">
        <ele>437.55</ele>
        <time>2024-02-16T13:35:55.630Z</time>
      </trkpt>
      <trkpt lat="43.01534" lon="0.77448">
        <ele>438.32</ele>
        <time>2024-02-16T13:36:14.592Z</time>
      </trkpt>
      <trkpt lat="43.01543" lon="0.77527">
        <ele>439.32</ele>
        <time>2024-02-16T13:36:33.573Z</time>
      </trkpt>
      <trkpt lat="43.01549" lon="0.77596">
        <ele>440.48</ele>
        <time>2024-02-16T13:36:52.571Z</time>
      </trkpt>
      <trkpt lat="43.01555" lon="0.7763">
        <ele>441.46</ele>
        <time>2024-02-16T13:37:11.578Z</time>
      </trkpt>
      <trkpt lat="43.01573" lon="0.77685">
        <ele>442.56</ele>
        <time>2024-02-16T13:37:30.600Z</time>
      </trkpt>
      <trkpt lat="43.01588" lon="0.7774">
        <ele>444.07</ele>
        <time>2024-02-16T13:37:49.636Z</time>
      </trkpt>
      <trkpt lat="43.01628" lon="0.77838">
        <ele>445.93</ele>
        <time>2024-02-16T13:38:08.699Z</time>
      </trkpt>
      <trkpt lat="43.0164" lon="0.77878">
        <ele>447.71</ele>
        <time>2024-02-16T13:38:27.773Z</time>
      </trkpt>
      <trkpt lat="43.01651" lon="0.77896">
        <ele>449.43</ele>
        <time>2024-02-16T13:38:46.853Z</time>
      </trkpt>
      <trkpt lat="43.01651" lon="0.77896">
        <ele>451.19</ele>
        <time>2024-02-16T13:39:05.933Z</time>
      </trkpt>
      <trkpt lat="43.01668" lon="0.7795">
        <ele>453.14</ele>
        <time>2024-02-16T13:39:25.027Z</time>
      </trkpt>
      <trkpt lat="43.01689" lon="0.78037">
        <ele>455.27</ele>
        <time>2024-02-16T13:39:44.143Z</time>
      </trkpt>
      <trkpt lat="43.01717" lon="0.78122">
        <ele>457.57</ele>
        <time>2024-02-16T13:40:03.282Z</time>
      </trkpt>
      <trkpt lat="43.01723" lon="0.78236">
        <ele>460.28</ele>
        <time>2024-02-16T13:40:22.449Z</time>
      </trkpt>
      <trkpt lat="43.01728" lon="0.7829">
        <ele>462.77</ele>
        <time>2024-02-16T13:40:41.630Z</time>
      </trkpt>
      <trkpt lat="43.01805" lon="0.78449">
        <ele>465.53</ele>
        <time>2024-02-16T13:41:00.857Z</time>
      </trkpt>
      <trkpt lat="43.01866" lon="0.78578">
        <ele>467.91</ele>
        <time>2024-02-16T13:41:20.122Z</time>
      </trkpt>
      <trkpt lat="43.01892" lon="0.7864">
        <ele>468.95</ele>
        <time>2024-02-16T13:41:39.404Z</time>
      </trkpt>
      <trkpt lat="43.01898" lon="0.78678">
        <ele>469.92</ele>
        <time>2024-02-16T13:41:58.696Z</time>
      </trkpt>
      <trkpt lat="43.01898" lon="0.78678">
        <ele>470.62</ele>
        <time>2024-02-16T13:42:17.988Z</time>
      </trkpt>
      <trkpt lat="43.01905" lon="0.78717">
        <ele>470.92</ele>
        <time>2024-02-16T13:42:37.290Z</time>
      </trkpt>
      <trkpt lat="43.01919" lon="0.78837">
        <ele>470.94</ele>
        <time>2024-02-16T13:42:56.621Z</time>
      </trkpt>
      <trkpt lat="43.01917" lon="0.789">
        <ele>470.36</ele>
        <time>2024-02-16T13:43:15.967Z</time>
      </trkpt>
      <trkpt lat="43.01919" lon="0.78946">
        <ele>469.63</ele>
        <time>2024-02-16T13:43:35.325Z</time>
      </trkpt>
      <trkpt lat="43.01924" lon="0.7897">
        <ele>468.89</ele>
        <time>2024-02-16T13:43:54.689Z</time>
      </trkpt>
      <trkpt lat="43.01939" lon="0.79008">
        <ele>467.87</ele>
        <time>2024-02-16T13:44:14.064Z</time>
      </trkpt>
      <trkpt lat="43.01945" lon="0.79033">
        <ele>466.49</ele>
        <time>2024-02-16T13:44:33.445Z</time>
      </trkpt>
      <trkpt lat="43.01947" lon="0.79055">
        <ele>464.91</ele>
        <time>2024-02-16T13:44:52.831Z</time>
      </trkpt>
      <trkpt lat="43.01941" lon="0.79099">
        <ele>462.97</ele>
        <time>2024-02-16T13:45:12.228Z</time>
      </trkpt>
      <trkpt lat="43.01935" lon="0.79131">
        <ele>460.43</ele>
        <time>2024-02-16T13:45:31.633Z</time>
      </trkpt>
      <trkpt lat="43.01882" lon="0.79285">
        <ele>449.69</ele>
        <time>2024-02-16T13:45:51.080Z</time>
      </trkpt>
      <trkpt lat="43.01882" lon="0.79285">
        <ele>449.69</ele>
        <time>2024-02-16T13:46:10.527Z</time>
      </trkpt>
      <trkpt lat="43.01865" lon="0.79332">
        <ele>449.29</ele>
        <time>2024-02-16T13:46:29.987Z</time>
      </trkpt>
      <trkpt lat="43.01849" lon="0.79385">
        <ele>448.63</ele>
        <time>2024-02-16T13:46:49.461Z</time>
      </trkpt>
      <trkpt lat="43.01847" lon="0.79414">
        <ele>447.73</ele>
        <time>2024-02-16T13:47:08.942Z</time>
      </trkpt>
      <trkpt lat="43.01856" lon="0.79445">
        <ele>446.7</ele>
        <time>2024-02-16T13:47:28.431Z</time>
      </trkpt>
      <trkpt lat="43.01882" lon="0.79507">
        <ele>445.14</ele>
        <time>2024-02-16T13:47:47.938Z</time>
      </trkpt>
      <trkpt lat="43.01891" lon="0.79536">
        <ele>443.59</ele>
        <time>2024-02-16T13:48:07.452Z</time>
      </trkpt>
      <trkpt lat="43.01886" lon="0.79559">
        <ele>442.28</ele>
        <time>2024-02-16T13:48:26.972Z</time>
      </trkpt>
      <trkpt lat="43.0186" lon="0.79612">
        <ele>440.8</ele>
        <time>2024-02-16T13:48:46.508Z</time>
      </trkpt>
      <trkpt lat="43.01827" lon="0.79644">
        <ele>439.49</ele>
        <time>2024-02-16T13:49:06.057Z</time>
      </trkpt>
      <trkpt lat="43.0178" lon="0.79679">
        <ele>438.48</ele>
        <time>2024-02-16T13:49:25.624Z</time>
      </trkpt>
      <trkpt lat="43.0178" lon="0.79679">
        <ele>437.33</ele>
        <time>2024-02-16T13:49:45.191Z</time>
      </trkpt>
      <trkpt lat="43.0177" lon="0.79685">
        <ele>436.18</ele>
        <time>2024-02-16T13:50:04.762Z</time>
      </trkpt>
      <trkpt lat="43.0172" lon="0.79714">
        <ele>434.18</ele>
        <time>2024-02-16T13:50:24.351Z</time>
      </trkpt>
      <trkpt lat="43.01719" lon="0.7972">
        <ele>432.76</ele>
        <time>2024-02-16T13:50:43.941Z</time>
      </trkpt>
      <trkpt lat="43.01717" lon="0.79741">
        <ele>431.2</ele>
        <time>2024-02-16T13:51:03.536Z</time>
      </trkpt>
      <trkpt lat="43.01716" lon="0.79755">
        <ele>429.93</ele>
        <time>2024-02-16T13:51:23.135Z</time>
      </trkpt>
      <trkpt lat="43.01717" lon="0.79761">
        <ele>428.94</ele>
        <time>2024-02-16T13:51:42.735Z</time>
      </trkpt>
      <trkpt lat="43.01723" lon="0.79765">
        <ele>428.15</ele>
        <time>2024-02-16T13:52:02.337Z</time>
      </trkpt>
      <trkpt lat="43.01744" lon="0.7977">
        <ele>427.49</ele>
        <time>2024-02-16T13:52:21.947Z</time>
      </trkpt>
      <trkpt lat="43.01767" lon="0.79795">
        <ele>427.11</ele>
        <time>2024-02-16T13:52:41.566Z</time>
      </trkpt>
      <trkpt lat="43.01767" lon="0.79795">
        <ele>426.87</ele>
        <time>2024-02-16T13:53:01.185Z</time>
      </trkpt>
      <trkpt lat="43.01799" lon="0.79828">
        <ele>426.78</ele>
        <time>2024-02-16T13:53:20.818Z</time>
      </trkpt>
      <trkpt lat="43.01809" lon="0.79836">
        <ele>426.87</ele>
        <time>2024-02-16T13:53:40.455Z</time>
      </trkpt>
      <trkpt lat="43.01821" lon="0.79846">
        <ele>427.17</ele>
        <time>2024-02-16T13:54:00.096Z</time>
      </trkpt>
      <trkpt lat="43.01813" lon="0.79854">
        <ele>427.78</ele>
        <time>2024-02-16T13:54:19.741Z</time>
      </trkpt>
      <trkpt lat="43.01795" lon="0.79867">
        <ele>428.65</ele>
        <time>2024-02-16T13:54:39.392Z</time>
      </trkpt>
      <trkpt lat="43.01772" lon="0.79888">
        <ele>429.63</ele>
        <time>2024-02-16T13:54:59.053Z</time>
      </trkpt>
      <trkpt lat="43.01755" lon="0.79917">
        <ele>430.77</ele>
        <time>2024-02-16T13:55:18.723Z</time>
      </trkpt>
      <trkpt lat="43.01699" lon="0.79977">
        <ele>432.39</ele>
        <time>2024-02-16T13:55:38.417Z</time>
      </trkpt>
      <trkpt lat="43.01684" lon="0.79997">
        <ele>432.98</ele>
        <time>2024-02-16T13:55:58.118Z</time>
      </trkpt>
      <trkpt lat="43.01706" lon="0.80003">
        <ele>432.87</ele>
        <time>2024-02-16T13:56:17.826Z</time>
      </trkpt>
      <trkpt lat="43.01714" lon="0.80009">
        <ele>433.63</ele>
        <time>2024-02-16T13:56:37.537Z</time>
      </trkpt>
      <trkpt lat="43.0173" lon="0.80016">
        <ele>434.82</ele>
        <time>2024-02-16T13:56:57.254Z</time>
      </trkpt>
      <trkpt lat="43.01743" lon="0.8002">
        <ele>436.38</ele>
        <time>2024-02-16T13:57:16.975Z</time>
      </trkpt>
      <trkpt lat="43.01817" lon="0.80035">
        <ele>438.52</ele>
        <time>2024-02-16T13:57:36.721Z</time>
      </trkpt>
      <trkpt lat="43.01851" lon="0.80041">
        <ele>440.79</ele>
        <time>2024-02-16T13:57:56.479Z</time>
      </trkpt>
      <trkpt lat="43.01851" lon="0.80041">
        <ele>440.8</ele>
        <time>2024-02-16T13:58:16.237Z</time>
      </trkpt>
      <trkpt lat="43.01961" lon="0.80062">
        <ele>442.34</ele>
        <time>2024-02-16T13:58:36.032Z</time>
      </trkpt>
      <trkpt lat="43.01971" lon="0.80055">
        <ele>442.33</ele>
        <time>2024-02-16T13:58:55.830Z</time>
      </trkpt>
      <trkpt lat="43.02019" lon="0.80046">
        <ele>441.79</ele>
        <time>2024-02-16T13:59:15.644Z</time>
      </trkpt>
      <trkpt lat="43.02085" lon="0.80056">
        <ele>442.47</ele>
        <time>2024-02-16T13:59:35.481Z</time>
      </trkpt>
      <trkpt lat="43.02103" lon="0.80065">
        <ele>443.45</ele>
        <time>2024-02-16T13:59:55.324Z</time>
      </trkpt>
      <trkpt lat="43.02115" lon="0.80076">
        <ele>445.03</ele>
        <time>2024-02-16T14:00:15.172Z</time>
      </trkpt>
      <trkpt lat="43.02139" lon="0.8009">
        <ele>447.13</ele>
        <time>2024-02-16T14:00:35.028Z</time>
      </trkpt>
      <trkpt lat="43.02182" lon="0.80091">
        <ele>448.54</ele>
        <time>2024-02-16T14:00:54.899Z</time>
      </trkpt>
      <trkpt lat="43.02209" lon="0.80096">
        <ele>449.76</ele>
        <time>2024-02-16T14:01:14.779Z</time>
      </trkpt>
      <trkpt lat="43.02253" lon="0.80121">
        <ele>451.39</ele>
        <time>2024-02-16T14:01:34.675Z</time>
      </trkpt>
      <trkpt lat="43.02265" lon="0.8012">
        <ele>452.55</ele>
        <time>2024-02-16T14:01:54.575Z</time>
      </trkpt>
      <trkpt lat="43.02319" lon="0.80068">
        <ele>454.09</ele>
        <time>2024-02-16T14:02:14.497Z</time>
      </trkpt>
      <trkpt lat="43.02323" lon="0.80046">
        <ele>455.16</ele>
        <time>2024-02-16T14:02:34.425Z</time>
      </trkpt>
      <trkpt lat="43.02422" lon="0.79786">
        <ele>455.73</ele>
        <time>2024-02-16T14:02:54.424Z</time>
      </trkpt>
      <trkpt lat="43.0243" lon="0.79775">
        <ele>456.61</ele>
        <time>2024-02-16T14:03:14.427Z</time>
      </trkpt>
    </trkseg>
  </trk>
</gpx>